[[{"header":{"parameterUnit":"m.s-1","parameterCategory":1,"la1":30.6,"la2":28.766,"lo1":-90.7593,"lo2":-88.6598,"dy":0.0162,"dx":0.0183,"nx":116,"ny":114,"refTime":"2024-03-23T12:00:00:Z","depth":0,"parameterNumber":2,"parameterNumberName":"U-component_of_WINDS"},"data":[0.0,0.0,0.0,0.0,0.0,0.0,0.0,0.0,0.0,0.0,0.0,0.0,0.0,0.0,0.0,0.0,0.0,0.0,0.0,0.0,0.0,0.0,0.0,0.0,0.0,0.0,0.0,0.0,0.0,0.0,0.0,0.0,0.0,0.0,0.0,0.0,0.0,0.0,0.0,0.0,0.0,0.0,0.0,0.0,0.0,0.0,0.0,0.0,0.0,0.0,0.0,0.0,0.0,0.0,0.0,0.0,0.0,0.0,0.0,0.0,0.0,0.0,0.0,0.0,0.0,0.0,0.0,0.0,0.0,0.0,0.0,0.0,0.0,0.0,0.0,0.0,0.0,0.0,0.0,0.0,0.0,0.0,0.0,0.0,0.0,0.0,0.0,0.0,0.0,0.0,0.0,0.0,0.0,0.0,0.0,0.0,0.0,0.0,0.0,0.0,0.0,0.0,0.0,0.0,0.0,0.0,0.0,0.0,0.0,0.0,0.0,0.0,0.0,0.0,0.0,0.0,0.0,0.0,0.0,0.0,0.0,0.0,0.0,0.0,0.0,0.0,0.0,0.0,0.0,0.0,0.0,0.0,0.0,0.0,0.0,0.0,0.0,0.0,0.0,0.0,0.0,0.0,0.0,0.0,0.0,0.0,0.0,0.0,0.0,0.0,0.0,0.0,0.0,0.0,0.0,0.0,0.0,0.0,0.0,0.0,0.0,0.0,0.0,0.0,0.0,0.0,0.0,0.0,0.0,0.0,0.0,0.0,0.0,0.0,0.0,0.0,0.0,0.0,0.0,0.0,0.0,0.0,0.0,0.0,0.0,0.0,0.0,0.0,0.0,0.0,0.0,0.0,0.0,0.0,0.0,0.0,0.0,0.0,0.0,0.0,0.0,0.0,0.0,0.0,0.0,0.0,0.0,0.0,0.0,0.0,0.0,0.0,0.0,0.0,0.0,0.0,0.0,0.0,0.0,0.0,0.0,0.0,0.0,0.0,0.0,0.0,0.0,0.0,0.0,0.0,0.0,0.0,0.0,0.0,0.0,0.0,0.0,0.0,0.0,0.0,0.0,0.0,0.0,0.0,0.0,0.0,0.0,0.0,0.0,0.0,0.0,0.0,0.0,0.0,0.0,0.0,0.0,0.0,0.0,0.0,0.0,0.0,0.0,0.0,0.0,0.0,0.0,0.0,0.0,0.0,0.0,0.0,0.0,0.0,0.0,0.0,0.0,0.0,0.0,0.0,0.0,0.0,0.0,0.0,0.0,0.0,0.0,0.0,0.0,0.0,0.0,0.0,0.0,0.0,0.0,0.0,0.0,0.0,0.0,0.0,0.0,0.0,0.0,0.0,0.0,0.0,0.0,0.0,0.0,0.0,0.0,0.0,0.0,0.0,0.0,0.0,0.0,0.0,0.0,0.0,0.0,0.0,0.0,0.0,0.0,0.0,0.0,0.0,0.0,0.0,0.0,0.0,0.0,0.0,0.0,0.0,0.0,0.0,0.0,0.0,0.0,0.0,0.0,0.0,0.0,0.0,0.0,0.0,0.0,0.0,0.0,0.0,0.0,0.0,0.0,0.0,0.0,0.0,0.0,0.0,0.0,0.0,0.0,0.0,0.0,0.0,0.0,0.0,0.0,0.0,0.0,0.0,0.0,0.0,0.0,0.0,0.0,0.0,0.0,0.0,0.0,0.0,0.0,0.0,0.0,0.0,0.0,0.0,0.0,0.0,0.0,0.0,0.0,0.0,0.0,0.0,0.0,0.0,0.0,0.0,0.0,0.0,0.0,0.0,0.0,0.0,0.0,0.0,0.0,0.0,0.0,0.0,0.0,0.0,0.0,0.0,0.0,0.0,0.0,0.0,0.0,0.0,0.0,0.0,0.0,0.0,0.0,0.0,0.0,0.0,0.0,0.0,0.0,0.0,0.0,0.0,0.0,0.0,0.0,0.0,0.0,0.0,0.0,0.0,0.0,0.0,0.0,0.0,0.0,0.0,0.0,0.0,0.0,0.0,0.0,0.0,0.0,0.0,0.0,0.0,0.0,0.0,0.0,0.0,0.0,0.0,0.0,0.0,0.0,0.0,0.0,0.0,0.0,0.0,0.0,0.0,0.0,0.0,0.0,0.0,0.0,0.0,0.0,0.0,0.0,0.0,0.0,0.0,0.0,0.0,0.0,0.0,0.0,0.0,0.0,0.0,0.0,0.0,0.0,0.0,0.0,0.0,0.0,0.0,0.0,0.0,0.0,0.0,0.0,0.0,0.0,0.0,0.0,0.0,0.0,0.0,0.0,0.0,0.0,0.0,0.0,0.0,0.0,0.0,0.0,0.0,0.0,0.0,0.0,0.0,0.0,0.0,0.0,0.0,0.0,0.0,0.0,0.0,0.0,0.0,0.0,0.0,0.0,0.0,0.0,0.0,0.0,0.0,0.0,0.0,0.0,0.0,0.0,0.0,0.0,0.0,0.0,0.0,0.0,0.0,0.0,0.0,0.0,0.0,0.0,0.0,0.0,0.0,0.0,0.0,0.0,0.0,0.0,0.0,0.0,0.0,0.0,0.0,0.0,0.0,0.0,0.0,0.0,0.0,0.0,0.0,0.0,0.0,0.0,0.0,0.0,0.0,0.0,0.0,0.0,0.0,0.0,0.0,0.0,0.0,0.0,0.0,0.0,0.0,0.0,0.0,0.0,0.0,0.0,0.0,0.0,0.0,0.0,0.0,0.0,0.0,0.0,0.0,0.0,0.0,0.0,0.0,0.0,0.0,0.0,0.0,0.0,0.0,0.0,0.0,0.0,0.0,0.0,0.0,0.0,0.0,0.0,0.0,0.0,0.0,0.0,0.0,0.0,0.0,0.0,0.0,0.0,0.0,0.0,0.0,0.0,0.0,0.0,0.0,0.0,0.0,0.0,0.0,0.0,0.0,0.0,0.0,0.0,0.0,0.0,0.0,0.0,0.0,0.0,0.0,0.0,0.0,0.0,0.0,0.0,0.0,0.0,0.0,0.0,0.0,0.0,0.0,0.0,0.0,0.0,0.0,0.0,0.0,0.0,0.0,0.0,0.0,0.0,0.0,0.0,0.0,0.0,0.0,0.0,0.0,0.0,0.0,0.0,0.0,0.0,0.0,0.0,0.0,0.0,0.0,0.0,0.0,0.0,0.0,0.0,0.0,0.0,0.0,0.0,0.0,0.0,0.0,0.0,0.0,0.0,0.0,0.0,0.0,0.0,0.0,0.0,0.0,0.0,0.0,0.0,0.0,0.0,0.0,0.0,0.0,0.0,0.0,0.0,0.0,0.0,0.0,0.0,0.0,0.0,0.0,0.0,0.0,0.0,0.0,0.0,0.0,0.0,0.0,0.0,0.0,0.0,0.0,0.0,0.0,0.0,0.0,0.0,0.0,0.0,0.0,0.0,0.0,0.0,0.0,0.0,0.0,0.0,0.0,0.0,0.0,0.0,0.0,0.0,0.0,0.0,0.0,0.0,0.0,0.0,0.0,0.0,0.0,0.0,0.0,0.0,0.0,0.0,0.0,0.0,0.0,0.0,0.0,0.0,0.0,0.0,0.0,0.0,0.0,0.0,0.0,0.0,0.0,0.0,0.0,0.0,0.0,0.0,0.0,0.0,0.0,0.0,0.0,0.0,0.0,0.0,0.0,0.0,0.0,0.0,0.0,0.0,0.0,0.0,0.0,0.0,0.0,0.0,0.0,0.0,0.0,0.0,0.0,0.0,0.0,0.0,0.0,0.0,0.0,0.0,0.0,0.0,0.0,0.0,0.0,0.0,0.0,0.0,0.0,0.0,0.0,0.0,0.0,0.0,0.0,0.0,0.0,0.0,0.0,0.0,0.0,0.0,0.0,0.0,0.0,0.0,0.0,0.0,0.0,0.0,0.0,0.0,0.0,0.0,0.0,0.0,0.0,0.0,0.0,0.0,0.0,0.0,0.0,0.0,0.0,0.0,0.0,0.0,0.0,0.0,0.0,0.0,0.0,0.0,0.0,0.0,0.0,0.0,0.0,0.0,0.0,0.0,0.0,0.0,0.0,0.0,0.0,0.0,0.0,0.0,0.0,0.0,0.0,0.0,0.0,0.0,0.0,0.0,0.0,0.0,0.0,0.0,0.0,0.0,0.0,0.0,0.0,0.0,0.0,0.0,0.0,0.0,0.0,0.0,0.0,0.0,0.0,0.0,0.0,0.0,0.0,0.0,0.0,0.0,0.0,0.0,0.0,0.0,0.0,0.0,0.0,0.0,0.0,0.0,0.0,0.0,0.0,0.0,0.0,0.0,0.0,0.0,0.0,0.0,0.0,0.0,0.0,0.0,0.0,0.0,0.0,0.0,0.0,0.0,0.0,0.0,0.0,0.0,0.0,0.0,0.0,0.0,0.0,0.0,0.0,0.0,0.0,0.0,0.0,0.0,0.0,0.0,0.0,0.0,0.0,0.0,0.0,0.0,0.0,0.0,0.0,0.0,0.0,0.0,0.0,0.0,0.0,0.0,0.0,0.0,0.0,0.0,0.0,0.0,0.0,0.0,0.0,0.0,0.0,0.0,0.0,0.0,0.0,0.0,0.0,0.0,0.0,0.0,0.0,0.0,0.0,0.0,0.0,0.0,0.0,0.0,0.0,0.0,0.0,0.0,0.0,0.0,0.0,0.0,0.0,0.0,0.0,0.0,0.0,0.0,0.0,0.0,0.0,0.0,0.0,0.0,0.0,0.0,0.0,0.0,0.0,0.0,0.0,0.0,0.0,0.0,0.0,0.0,0.0,0.0,0.0,0.0,0.0,0.0,0.0,0.0,0.0,0.0,0.0,0.0,0.0,0.0,0.0,0.0,0.0,0.0,0.0,0.0,0.0,0.0,0.0,0.0,0.0,0.0,0.0,0.0,0.0,0.0,0.0,0.0,0.0,0.0,0.0,0.0,0.0,0.0,0.0,0.0,0.0,0.0,0.0,0.0,0.0,0.0,0.0,0.0,0.0,0.0,0.0,0.0,0.0,0.0,0.0,0.0,0.0,0.0,0.0,0.0,0.0,0.0,0.0,0.0,0.0,0.0,0.0,0.0,0.0,0.0,0.0,0.0,0.0,0.0,0.0,0.0,0.0,0.0,0.0,0.0,0.0,0.0,0.0,0.0,0.0,0.0,0.0,0.0,0.0,0.0,0.0,0.0,0.0,0.0,0.0,0.0,0.0,0.0,0.0,0.0,0.0,0.0,0.0,0.0,0.0,0.0,0.0,0.0,0.0,0.0,0.0,0.0,0.0,0.0,0.0,0.0,0.0,0.0,0.0,0.0,0.0,0.0,0.0,0.0,0.0,0.0,0.0,0.0,0.0,0.0,0.0,0.0,0.0,0.0,0.0,0.0,0.0,0.0,0.0,0.0,0.0,0.0,0.0,0.0,0.0,0.0,0.0,0.0,0.0,0.0,0.0,0.0,0.0,0.0,0.0,0.0,0.0,0.0,0.0,0.0,0.0,0.0,0.0,0.0,0.0,0.0,0.0,0.0,0.0,0.0,0.0,0.0,0.0,0.0,0.0,0.0,0.0,0.0,0.0,0.0,0.0,0.0,0.0,0.0,0.0,0.0,0.0,0.0,0.0,0.0,0.0,0.0,0.0,0.0,0.0,0.0,0.0,0.0,0.0,0.0,0.0,0.0,0.0,0.0,0.0,0.0,0.0,0.0,0.0,0.0,0.0,0.0,0.0,0.0,0.0,0.0,0.0,0.0,0.0,0.0,0.0,0.0,0.0,0.0,0.0,0.0,0.0,0.0,0.0,0.0,0.0,0.0,0.0,0.0,0.0,0.0,0.0,0.0,0.0,0.0,0.0,0.0,0.0,0.0,0.0,0.0,0.0,0.0,0.0,0.0,0.0,0.0,0.0,0.0,0.0,0.0,0.0,0.0,0.0,0.0,0.0,0.0,0.0,0.0,0.0,0.0,0.0,0.0,0.0,0.0,0.0,0.0,0.0,0.0,0.0,0.0,0.0,0.0,0.0,0.0,0.0,0.0,0.0,0.0,0.0,0.0,0.0,0.0,0.0,0.0,0.0,0.0,0.0,0.0,0.0,0.0,0.0,0.0,0.0,0.0,0.0,0.0,0.0,2.7708,0.0,0.0,0.0,0.0,0.0,0.0,0.0,0.0,0.0,0.0,0.0,0.0,0.0,0.0,0.0,0.0,0.0,0.0,0.0,0.0,0.0,0.0,0.0,0.0,1.4886,1.5282,1.5282,1.5612,0.0,0.0,0.0,0.0,0.0,0.0,0.0,1.5799,1.6076,1.6398,1.6697,1.734,1.7818,1.8155,1.8331,1.823,1.7939,0.0,0.0,0.0,0.0,0.0,0.0,0.0,0.0,0.0,0.0,0.0,0.0,0.0,0.0,0.0,0.0,0.0,0.0,0.0,0.0,0.0,0.0,0.0,0.0,0.0,0.0,0.0,0.0,0.0,0.0,0.0,0.0,0.0,0.0,0.0,0.0,0.0,0.0,0.0,0.0,0.0,0.0,0.0,0.0,0.0,0.0,0.0,0.0,0.0,0.0,0.0,0.0,0.0,0.0,0.0,0.0,0.0,0.0,0.0,0.0,0.0,0.0,0.0,0.0,0.0,0.0,0.0,0.0,0.0,0.0,0.0,2.9464,0.0,0.0,0.0,0.0,0.0,0.0,0.0,0.0,0.0,0.0,0.0,0.0,0.0,0.0,0.0,0.0,0.0,0.0,0.0,0.0,0.0,1.4849,1.4975,1.5469,1.5851,1.5934,1.5964,1.5964,1.5964,1.5964,0.0,0.0,0.0,1.5851,1.5934,1.6465,1.7085,1.787,1.8783,1.969,2.0567,2.1116,2.1086,2.0572,2.0766,0.0,0.0,0.0,0.0,0.0,0.0,0.0,0.0,0.0,0.0,0.0,0.0,0.0,0.0,0.0,0.0,0.0,0.0,0.0,0.0,0.0,0.0,0.0,0.0,0.0,0.0,0.0,0.0,0.0,0.0,0.0,0.0,0.0,0.0,0.0,0.0,0.0,0.0,0.0,0.0,0.0,0.0,0.0,0.0,0.0,0.0,0.0,0.0,0.0,0.0,0.0,0.0,0.0,0.0,0.0,0.0,0.0,0.0,0.0,0.0,0.0,0.0,0.0,3.4394,3.4871,3.4871,3.5018,3.5452,3.5988,3.4674,3.3757,3.3176,0.0,0.0,0.0,0.0,0.0,0.0,0.0,0.0,0.0,0.0,0.0,0.0,0.0,0.0,0.0,0.0,0.0,0.0,0.0,0.0,1.5035,1.5612,1.5739,1.6024,1.6547,1.6577,1.6577,1.6577,1.6577,1.6353,1.5829,1.5799,1.6046,1.6577,1.6659,1.7324,1.8583,2.0408,2.2193,2.3947,2.4025,2.4032,2.3889,2.2285,2.149,2.1345,0.0,0.0,0.0,0.0,0.0,0.0,0.0,0.0,0.0,0.0,0.0,0.0,0.0,0.0,0.0,0.0,0.0,0.0,0.0,0.0,0.0,0.0,0.0,0.0,0.0,0.0,0.0,0.0,0.0,0.0,0.0,0.0,0.0,0.0,0.0,0.0,0.0,0.0,0.0,0.0,0.0,3.0173,2.9911,0.0,0.0,0.0,0.0,0.0,0.0,0.0,0.0,0.0,0.0,0.0,0.0,0.0,3.3653,3.4374,3.5341,3.6156,3.6868,3.8366,3.91,3.9137,3.9819,4.0215,4.0288,4.0068,0.0,3.5679,3.4137,0.0,0.0,0.0,0.0,0.0,0.0,0.0,0.0,0.0,0.0,0.0,0.0,0.0,0.0,0.0,0.0,0.0,0.0,0.0,0.0,0.0,1.6293,1.672,1.7728,1.781,1.781,1.781,1.7473,1.6973,1.6323,1.6293,1.6435,1.6689,1.819,1.9971,2.2004,2.327,2.4317,2.5173,2.5543,2.5722,2.5693,2.5237,2.4313,2.3122,2.2523,0.0,0.0,0.0,0.0,0.0,0.0,0.0,0.0,0.0,0.0,0.0,0.0,0.0,0.0,0.0,0.0,0.0,0.0,0.0,0.0,0.0,0.0,0.0,0.0,0.0,0.0,0.0,0.0,0.0,0.0,0.0,0.0,0.0,0.0,0.0,0.0,0.0,0.0,0.0,2.9704,3.0156,3.0198,2.9849,2.962,0.0,0.0,0.0,0.0,0.0,0.0,0.0,0.0,0.0,3.5312,3.6119,3.6927,3.7771,3.8571,3.9158,3.9533,4.023,4.0818,4.1258,4.1617,4.2278,4.3122,4.3122,4.2571,4.1442,3.8469,3.6494,3.5275,0.0,0.0,0.0,0.0,3.3997,3.4328,0.0,0.0,0.0,0.0,0.0,0.0,0.0,0.0,0.0,0.0,0.0,0.0,1.6659,1.7025,1.769,1.8852,1.9112,1.9202,1.9202,1.8565,1.79,1.7234,1.7047,1.7115,1.7443,2.009,2.2552,2.4844,2.5513,2.5944,2.6123,2.6614,2.6866,2.6884,2.7375,2.6681,2.5109,2.4773,2.4348,2.3762,0.0,0.0,0.0,0.0,0.0,0.0,0.0,0.0,0.0,0.0,0.0,0.0,0.0,0.0,0.0,0.0,0.0,0.0,0.0,0.0,0.0,0.0,0.0,0.0,0.0,0.0,0.0,0.0,0.0,0.0,0.0,0.0,0.0,0.0,0.0,0.0,0.0,3.0313,3.0355,3.048,3.0478,3.0449,0.0,0.0,0.0,0.0,0.0,0.0,3.4454,3.5608,3.6809,3.808,3.9093,4.001,4.0826,4.1617,4.2122,4.2314,4.2314,4.2645,4.3204,4.3204,4.3864,4.4993,4.4993,4.5369,4.5626,4.2221,4.0128,3.8998,3.8586,3.8072,3.7588,3.7962,3.8117,3.8182,0.0,0.0,0.0,0.0,0.0,0.0,0.0,0.0,0.0,0.0,0.0,1.6659,1.6711,1.7848,1.8882,1.9588,2.0228,2.0608,2.0608,1.9959,1.931,1.8642,1.7997,1.8237,1.9519,2.2113,2.4148,2.5543,2.6213,2.6884,2.7495,2.7525,2.7555,2.7555,2.7585,2.7537,2.7353,2.6069,2.5777,2.596,2.4019,0.0,0.0,0.0,0.0,0.0,0.0,0.0,0.0,0.0,0.0,0.0,0.0,0.0,0.0,0.0,0.0,0.0,0.0,0.0,0.0,0.0,0.0,0.0,0.0,0.0,0.0,0.0,0.0,0.0,0.0,0.0,0.0,0.0,0.0,0.0,0.0,0.0,0.0,3.1347,3.2144,0.0,0.0,0.0,0.0,3.3283,3.5211,3.6414,3.6475,3.8482,3.9688,3.9761,4.1295,4.2506,4.3322,4.4121,4.4883,4.5663,4.5663,4.5663,4.57,4.57,4.5773,4.5847,4.5847,4.5847,4.5773,4.402,4.3286,4.3065,4.1507,4.0883,4.0773,4.0047,3.9761,3.9688,0.0,0.0,0.0,0.0,0.0,0.0,1.4314,1.5005,1.5529,1.5769,1.6323,1.7025,1.7878,1.8792,1.9968,2.1505,2.1854,2.2004,2.2004,2.0946,2.0438,2.0617,1.998,2.0838,2.343,2.4418,2.5525,2.6884,2.7136,2.7375,2.7585,2.7585,2.7585,2.7585,2.7585,2.7585,2.7525,2.6644,2.6099,2.5738,2.4601,2.3598,0.0,0.0,0.0,0.0,0.0,0.0,0.0,0.0,0.0,0.0,0.0,0.0,0.0,0.0,0.0,0.0,0.0,0.0,0.0,0.0,0.0,0.0,0.0,0.0,0.0,0.0,0.0,0.0,0.0,0.0,0.0,0.0,0.0,0.0,0.0,0.0,0.0,3.2675,3.3248,0.0,3.3389,3.4073,3.4818,3.5676,3.6622,3.7916,3.9608,4.0954,4.234,4.3709,4.4305,4.4745,4.5039,4.5333,4.5626,4.5883,4.5883,4.6177,4.6682,4.6682,4.6938,4.7462,4.7462,4.7462,4.7388,4.6838,4.5993,4.5011,4.4415,4.4195,4.4158,4.3864,4.3754,4.3718,0.0,0.0,0.0,0.0,0.0,0.0,1.4699,1.5372,1.5881,1.6076,1.6645,1.7541,1.8882,1.9848,2.0996,2.2553,2.2882,2.2992,2.2992,2.1964,2.1575,2.2004,2.1814,2.2911,2.5543,2.5812,2.6602,2.7944,2.7944,2.8051,2.8274,2.8274,2.8274,2.8274,2.8274,2.8274,2.8244,2.7782,2.7081,2.6213,2.5543,2.4777,2.3934,0.0,0.0,0.0,0.0,0.0,0.0,0.0,0.0,0.0,0.0,0.0,0.0,0.0,0.0,0.0,0.0,0.0,0.0,0.0,0.0,0.0,0.0,0.0,0.0,0.0,0.0,0.0,0.0,0.0,0.0,0.0,0.0,0.0,0.0,0.0,3.3231,3.4112,3.4863,3.5308,3.5342,3.622,3.713,3.7981,3.8887,4.0193,4.1918,4.2742,4.378,4.5223,4.5533,4.5767,4.5988,4.629,4.6522,4.6728,4.6728,4.7131,4.7929,4.7929,4.837,4.915,4.915,4.915,4.915,4.915,4.8526,4.7498,4.6948,4.6728,4.6691,4.6397,4.6315,4.6287,0.0,0.0,0.0,0.0,0.0,1.4015,1.4729,1.5365,1.6024,1.6629,1.7294,1.8245,1.9579,2.0926,2.2004,2.2673,2.3261,2.361,2.361,2.3032,2.2733,2.2763,2.3381,2.4358,2.5663,2.6333,2.7303,2.8637,2.8637,2.8966,2.9608,2.9608,2.9608,2.9608,2.9608,2.9608,2.9608,2.9608,2.8843,2.7615,2.6944,2.6644,2.6405,0.0,0.0,0.0,0.0,0.0,0.0,0.0,0.0,0.0,0.0,0.0,0.0,0.0,0.0,0.0,0.0,0.0,0.0,0.0,0.0,0.0,0.0,0.0,0.0,0.0,0.0,0.0,0.0,0.0,0.0,0.0,0.0,0.0,3.29,3.4239,3.5293,3.5622,3.7031,3.7686,3.6953,3.887,4.0164,4.0164,4.2028,4.318,4.3239,4.3711,4.4023,4.4069,4.4857,4.5601,4.625,4.7028,4.7747,4.8321,4.8321,4.8781,4.9581,4.9581,5.0021,5.0802,5.0802,5.0802,5.0802,5.0802,5.0802,5.0655,4.8994,4.837,4.8296,4.748,4.7186,4.7076,0.0,0.0,0.0,0.0,0.0,1.3918,1.5307,1.5671,1.6024,1.6629,1.772,1.8933,2.0279,2.1615,2.2662,2.3291,2.349,2.361,2.361,2.3032,2.3112,2.4048,2.5626,2.6884,2.7769,2.7949,2.8457,2.9338,2.9338,2.9428,2.9608,2.9608,2.9608,2.9608,2.9608,2.9608,2.9608,2.9608,2.9382,2.8979,2.8321,2.747,2.6494,0.0,0.0,0.0,0.0,0.0,0.0,0.0,0.0,0.0,0.0,0.0,0.0,0.0,0.0,0.0,0.0,0.0,0.0,0.0,0.0,0.0,0.0,0.0,0.0,0.0,0.0,0.0,0.0,0.0,0.0,0.0,0.0,3.4549,3.4111,3.538,3.6582,3.7178,3.8599,3.9423,3.9196,4.0696,4.1711,4.1711,4.2221,4.3001,4.4039,4.4212,4.4749,4.5717,4.6507,4.7027,4.7192,4.7962,4.8437,4.8602,4.8602,4.8964,4.9651,4.9651,5.008,5.0802,5.0802,5.0802,5.0802,5.0802,5.0802,5.0765,5.0278,5.0105,5.0105,4.9874,4.9407,4.8866,0.0,0.0,0.0,0.0,0.0,1.4105,1.5569,1.5799,1.6114,1.6995,1.8027,1.9331,2.0937,2.2064,2.2932,2.355,2.3879,2.3898,2.361,2.352,2.4088,2.5393,2.6554,2.7632,2.8577,2.8607,2.9056,2.9997,2.9997,3.0103,3.0402,3.0672,3.0821,3.0821,3.0821,3.0821,3.0791,3.0522,3.0223,2.9924,2.9564,2.8786,2.7752,2.6794,2.6497,2.6467,2.5521,2.5467,2.5895,2.618,0.0,0.0,0.0,0.0,0.0,0.0,0.0,0.0,0.0,0.0,0.0,0.0,0.0,0.0,0.0,0.0,0.0,0.0,0.0,0.0,0.0,0.0,0.0,0.0,3.5554,3.6963,3.6874,3.7618,3.8464,3.9208,4.029,4.1014,4.1022,4.2083,4.276,4.276,4.3078,4.3606,4.4443,4.4799,4.5315,4.6074,4.6873,4.74,4.7637,4.808,4.8432,4.871,4.871,4.9062,4.9794,4.9794,5.0336,0.0,5.1351,5.1527,5.182,5.182,5.182,0.0,0.0,0.0,0.0,0.0,5.0508,5.0115,0.0,0.0,0.0,1.3562,1.3957,1.4493,1.5621,1.5799,1.6263,1.7519,1.8365,1.954,2.1495,2.2312,2.2929,2.355,2.4064,2.4186,2.3729,2.4421,2.5329,2.6445,2.6685,2.7335,2.8429,2.8585,2.9264,3.0485,3.0545,3.0931,3.163,3.2303,3.2602,3.2602,3.2602,3.2602,3.2572,3.1899,3.1286,3.0731,3.0628,3.0193,2.9458,2.8274,2.8079,2.8276,2.7088,2.6921,2.7243,2.7198,0.0,0.0,0.0,0.0,0.0,0.0,0.0,0.0,0.0,0.0,0.0,0.0,0.0,0.0,0.0,0.0,0.0,0.0,0.0,0.0,0.0,0.0,0.0,0.0,3.7809,3.9512,4.0244,4.0413,4.0684,4.1271,4.1982,4.2422,4.2422,4.3085,4.3558,4.366,4.4316,4.477,4.4838,0.0,0.0,0.0,0.0,4.716,4.7727,4.79,4.8263,4.887,4.8927,4.9401,5.0175,5.0175,5.0913,5.2246,5.2318,5.274,5.3338,5.3439,5.3471,5.3324,5.172,5.1059,5.1059,5.1059,5.1022,5.0949,0.0,0.0,0.0,1.326,1.3883,1.46,1.5629,1.5799,1.6263,1.7519,1.8762,2.0058,2.1555,2.2291,2.2948,2.3537,2.3207,2.3368,2.4276,2.5514,2.606,2.5732,2.7339,2.7962,2.7481,2.857,2.9566,3.035,3.0844,3.1482,3.2333,3.3006,3.3305,3.3305,3.3305,3.3305,3.3275,3.2572,3.2243,3.2063,3.1511,3.0628,2.9578,2.9309,2.8925,2.8536,2.8265,2.7901,2.7679,2.8597,2.8522,2.8177,2.9121,0.0,0.0,0.0,0.0,0.0,0.0,0.0,0.0,0.0,0.0,0.0,0.0,0.0,0.0,0.0,0.0,0.0,0.0,0.0,0.0,3.8091,3.9715,4.1035,4.1779,4.2374,4.2577,4.2151,4.276,4.3186,4.3186,4.391,4.4587,4.5215,4.5399,4.5737,4.636,4.653,4.6597,4.6597,4.7278,4.7759,4.7859,4.9029,4.9683,4.9835,0.0,0.0,5.1836,5.1836,5.2271,5.3087,5.374,5.4134,5.4279,5.4897,5.5144,5.4997,5.3361,5.2737,5.2737,5.2737,5.2344,5.1767,0.0,0.0,0.0,0.0,1.3898,1.4723,1.5652,1.5799,1.6263,1.7519,1.859,1.9733,2.1067,2.156,2.1923,2.2203,2.218,2.2963,2.4882,2.5319,2.548,2.5452,2.6711,2.7343,2.7194,2.8148,2.8977,2.9644,3.0233,3.0958,3.1865,3.233,3.3067,3.3993,3.3508,3.3556,3.3949,3.2946,3.2512,3.2452,3.178,3.1122,3.0508,3.0193,2.9654,2.9069,2.8727,2.8368,2.8174,2.8747,2.8707,2.8571,2.9456,2.9692,2.9411,0.0,0.0,0.0,0.0,0.0,0.0,0.0,0.0,0.0,0.0,0.0,0.0,0.0,0.0,3.4303,3.543,0.0,3.8273,3.9377,4.1089,4.2442,4.2794,4.3504,4.3707,4.2929,4.3538,4.4147,4.4505,4.4925,4.5466,4.621,4.6244,4.6413,4.68,4.7158,4.7361,4.7361,4.8409,4.9018,4.9018,5.0101,5.0642,5.0642,5.1032,5.1392,5.1751,5.1751,5.211,5.2824,5.3217,5.3584,5.394,5.4713,5.5256,5.5511,5.4693,5.4399,5.4399,5.4399,5.4153,5.3786,0.0,0.0,0.0,0.0,0.0,1.4876,1.569,1.5799,1.6203,1.7362,1.8256,1.9187,2.0249,2.0553,2.0712,2.0703,2.143,2.2806,2.4937,2.4769,2.4764,2.5175,2.585,2.6383,2.6743,2.7421,2.8099,2.8748,2.9318,3.0104,3.1127,3.1489,3.2518,3.4109,3.3537,3.3644,3.4161,3.3139,3.2632,3.2452,3.178,3.1511,3.1451,3.0897,3.0313,2.9698,2.9175,2.8876,2.8801,2.8855,2.889,2.8998,2.9604,3.0126,3.0402,2.9807,3.0278,0.0,0.0,0.0,0.0,0.0,0.0,0.0,0.0,0.0,3.3512,3.4686,3.5509,3.6321,3.7257,3.8408,3.9546,4.0569,4.2239,4.3457,4.3626,4.4181,4.4398,4.3896,4.4418,4.5041,4.5635,4.5838,4.621,4.6955,4.7022,4.709,4.7225,4.7921,4.8326,4.8326,4.9627,5.0304,5.0304,5.1048,5.1404,5.1404,5.1573,5.1641,5.1641,5.1641,5.1977,5.2548,5.268,5.3235,5.4037,5.4699,5.5401,5.6062,5.6062,5.6062,5.6025,5.5732,5.5585,5.5585,0.0,0.0,0.0,0.0,0.0,1.5224,1.5726,1.5799,1.6046,1.6719,1.791,1.8824,1.9082,1.9644,1.9985,1.9925,2.1565,2.2889,2.3606,2.4654,2.5037,2.4437,2.5692,2.5983,2.5087,2.6337,2.7301,2.7851,2.8518,2.9524,3.0865,3.148,3.2142,3.2845,3.3557,3.3672,3.3256,3.3338,3.302,3.2452,3.178,3.1511,3.1481,3.1421,3.0987,3.0402,3.0313,2.9924,2.9566,3.0102,3.027,3.0372,3.0973,3.1214,3.1253,3.1111,0.0,3.0249,3.0022,3.0098,0.0,3.092,3.207,3.322,0.0,0.0,3.6355,3.6524,3.711,3.8079,3.9466,3.9851,4.0641,4.2713,4.3254,4.366,4.4364,4.4533,4.4804,4.5399,4.5534,4.5602,4.5703,4.6278,4.6989,4.7718,4.7785,4.8056,4.8714,4.9458,4.983,4.983,5.0642,5.1066,5.1066,5.1826,5.2198,5.2198,5.2909,5.3247,5.3247,5.3247,5.3297,5.3396,5.4071,5.5147,5.6495,5.6572,5.7085,5.774,5.774,5.774,5.7567,5.6136,5.5585,5.5585,0.0,0.0,0.0,0.0,0.0,1.5269,1.5734,1.5799,1.6024,1.6629,1.755,1.8221,1.8308,1.8361,1.8526,1.8898,2.0218,2.1379,2.2286,2.3426,2.3915,2.3617,2.4517,2.4936,2.4808,2.567,2.6429,2.6994,2.7593,2.8481,2.9599,3.014,3.1117,3.2387,3.2737,3.3064,3.3327,3.3033,3.2766,3.2452,3.178,3.1511,3.1511,3.1511,3.1331,3.1046,3.0628,3.0103,0.0,2.9883,2.9733,2.9498,3.0137,3.0867,3.1446,3.1428,3.1736,0.0,3.2539,0.0,0.0,0.0,3.4573,3.5464,3.5769,3.6682,3.7562,3.8002,3.9005,4.0007,4.0616,4.1441,4.2307,0.0,4.3795,4.4228,4.4533,4.4973,4.5365,4.5655,4.6466,4.6974,4.6974,4.7244,4.7752,4.8462,4.8951,4.9323,4.9627,5.0338,5.0744,5.0744,5.1454,5.1844,5.1844,5.2604,5.301,5.301,5.3348,5.3518,5.3518,5.3518,5.3518,5.3534,5.3849,5.4579,5.5602,5.6004,5.6682,5.7401,5.7821,5.7997,5.7923,5.7226,5.7017,5.7017,0.0,0.0,0.0,0.0,0.0,0.0,0.0,0.0,1.5802,1.6368,1.7002,1.7495,1.7721,1.747,1.7508,1.8,1.8996,2.0092,2.1264,2.2302,2.2945,2.3095,2.3537,2.4014,2.4566,2.4958,2.5527,2.6248,2.6633,2.7325,2.8316,2.8647,2.9623,3.1082,3.1528,3.2022,3.2464,3.2496,3.2392,3.2168,3.169,3.1511,3.1511,3.1511,3.1391,3.1152,3.0658,3.0223,2.9817,2.9668,2.9279,2.8966,2.9458,3.0351,3.1268,3.1462,3.2417,3.3525,3.4066,0.0,0.0,3.5746,3.6671,3.7393,3.7393,3.8125,3.8959,3.9512,4.0629,4.1576,4.1779,4.2679,4.349,4.3693,4.4228,4.4668,4.4871,4.5365,4.5858,4.6264,4.7244,4.7988,4.8191,4.8191,4.8496,4.9255,4.9796,5.0168,5.0405,5.1116,5.1505,5.1505,5.2232,5.2638,5.2638,5.3213,5.3518,5.3518,5.3518,5.3518,5.3518,5.3518,5.3619,5.3788,5.3788,5.4323,5.5227,5.5774,5.6461,5.7262,5.8055,5.8348,5.8372,5.8587,5.8364,5.7997,0.0,0.0,0.0,0.0,0.0,0.0,0.0,0.0,0.0,1.5778,1.6121,1.6582,1.7245,1.7322,1.7344,1.7415,1.8405,1.951,2.0643,2.1733,2.2558,2.307,2.312,2.3411,2.4004,2.4029,2.4556,2.5611,2.5636,2.6231,2.7321,2.7364,2.7684,2.8315,3.005,3.0483,3.0039,3.1773,3.2108,3.154,3.1511,3.1511,3.1511,3.1511,3.1092,3.0522,3.0522,3.0492,3.0372,2.9788,2.9578,2.9578,2.9578,3.0029,0.0,3.1317,3.2417,0.0,0.0,0.0,3.578,3.6547,3.7867,3.8949,3.8949,4.0054,4.1089,4.1136,4.1745,4.2489,4.3186,4.3389,4.366,4.4432,4.4567,4.4838,4.5568,4.5703,4.623,4.765,4.7887,4.8191,0.0,4.8984,4.9255,5.0015,5.0083,5.0405,5.1133,5.186,5.2266,5.2266,5.3044,5.345,5.345,5.3484,5.3518,5.3518,5.3518,5.3518,5.3518,5.3518,5.389,5.4583,5.4583,5.5382,5.6741,5.6757,5.725,5.8054,5.8852,5.915,5.9279,6.0029,5.9355,5.7997,0.0,0.0,0.0,0.0,0.0,0.0,0.0,0.0,0.0,0.0,0.0,0.0,0.0,0.0,0.0,0.0,1.8035,1.8794,1.9522,2.0941,2.202,2.2558,2.292,2.3371,2.3979,2.4004,2.4356,2.5067,2.5067,2.546,2.6197,2.7364,2.8179,2.8758,3.0485,3.1123,3.0979,3.1575,3.172,3.1511,3.1511,3.1511,3.1511,3.1511,3.1062,3.0402,0.0,2.9235,2.9295,2.9518,0.0,0.0,2.9916,0.0,0.0,3.1119,0.0,3.4235,0.0,0.0,3.7302,3.807,3.8983,3.9863,4.0358,4.0832,4.1339,4.1813,4.2117,4.2523,4.3254,4.3389,4.366,4.4465,4.4615,4.4871,4.5602,4.6109,4.6786,4.7785,4.8326,0.0,0.0,0.0,0.0,5.0083,5.1014,5.1657,5.1928,5.2672,5.3112,5.3112,5.3382,5.3518,5.3518,5.3518,5.3518,5.3518,5.3991,5.4499,5.4955,5.4955,5.509,5.5344,5.5344,5.5602,5.6099,5.66,5.732,5.814,5.891,5.9522,6.0028,6.0298,6.0052,5.9612,0.0,0.0,0.0,0.0,0.0,0.0,0.0,0.0,0.0,0.0,0.0,0.0,0.0,0.0,0.0,0.0,0.0,1.8154,1.8682,2.0087,2.1142,2.1694,2.2232,2.2709,2.31,2.31,2.3477,2.4199,2.4199,2.4709,2.5742,2.658,2.7441,2.8339,2.9459,3.0119,3.0364,3.0694,3.0957,3.1122,3.0927,3.0957,3.1122,3.0897,3.0388,0.0,2.862,2.8231,2.8261,2.847,0.0,0.0,0.0,0.0,0.0,0.0,3.325,3.4813,3.6095,3.7335,3.8464,3.922,3.9931,4.0608,4.1102,4.1597,4.2104,4.2591,4.2692,4.2828,4.3321,4.3186,4.3267,4.4045,4.4398,4.4939,4.594,4.6718,4.7462,4.8191,4.8951,4.9593,0.0,0.0,0.0,5.0895,5.1758,5.2435,5.2706,5.3213,5.3518,5.3518,5.3518,5.3518,5.3518,5.3754,5.4025,5.4279,5.4769,5.5243,5.5699,5.5699,5.5834,5.6071,5.6071,5.624,5.653,5.7004,5.7526,5.8091,5.8859,5.9474,6.0011,6.0602,6.083,6.0782,0.0,0.0,0.0,0.0,0.0,0.0,0.0,0.0,0.0,0.0,0.0,0.0,0.0,0.0,0.0,0.0,0.0,0.0,1.8129,1.9133,2.0,2.0616,2.1155,2.1482,2.1507,2.1507,2.1995,2.302,2.302,2.3943,2.5697,2.5055,2.5486,2.6891,2.7082,2.7551,2.8267,2.9133,2.9847,3.0313,2.9758,2.9907,3.0342,2.9788,2.9189,2.8517,2.7854,2.7585,2.7435,0.0,0.0,0.0,0.0,0.0,0.0,0.0,0.0,3.5226,3.7396,3.8497,3.922,3.9943,4.0641,4.1191,4.1271,4.2374,4.3389,4.3389,4.3389,4.3321,0.0,0.0,4.2523,4.322,4.4079,4.5142,4.6597,4.7428,4.8157,0.0,0.0,0.0,0.0,0.0,0.0,5.2367,0.0,5.2706,5.345,5.3518,5.3518,5.3518,5.3518,5.3518,5.3551,5.4296,5.504,5.5767,5.5767,5.5767,5.58,5.58,5.6172,5.6867,5.6867,5.7239,5.79,5.79,5.7918,5.8029,5.8789,5.9128,5.9377,6.0932,6.1576,6.1484,0.0,0.0,0.0,0.0,0.0,0.0,0.0,0.0,0.0,0.0,0.0,0.0,0.0,0.0,0.0,0.0,0.0,0.0,1.7562,1.8229,1.9032,1.9987,2.0577,2.1094,2.1482,2.1507,2.1619,2.192,2.192,2.2347,2.3236,2.3693,2.4322,2.5112,2.6259,2.6862,2.7078,2.781,2.8214,2.8364,2.871,2.8936,2.9116,2.9458,2.9189,2.8517,2.7854,2.7285,0.0,0.0,0.0,0.0,0.0,3.1434,3.2736,0.0,0.0,3.728,3.8427,3.9254,3.9863,4.0045,4.0641,4.1339,4.188,4.276,4.3389,4.3389,4.2949,4.2422,0.0,0.0,0.0,4.2557,4.4181,0.0,4.665,4.7428,0.0,0.0,0.0,5.0304,5.0863,5.1758,0.0,0.0,5.3179,5.3281,5.3484,5.3518,5.3518,5.3518,5.3518,5.3754,5.4296,5.5074,5.5784,5.6528,5.6528,5.6799,5.734,5.734,5.7442,5.7611,5.7611,5.7712,5.79,5.79,5.8246,5.8806,5.901,5.9509,6.0117,6.0549,6.1084,6.1559,0.0,0.0,0.0,0.0,0.0,0.0,0.0,0.0,0.0,0.0,0.0,0.0,0.0,0.0,0.0,0.0,0.0,0.0,0.0,1.7764,1.8475,1.907,1.9635,2.0188,2.074,2.074,2.0879,2.1144,2.1144,2.1738,2.2874,2.2749,2.3486,2.4927,2.5179,2.5593,2.6193,2.6557,2.6884,0.0,0.0,2.747,2.7739,2.7799,2.7799,2.7619,2.6973,2.7031,0.0,0.0,0.0,3.023,3.156,3.2733,3.3868,3.5212,0.0,3.8154,3.9214,3.9762,4.018,4.0506,4.1136,4.1711,4.1813,4.2645,4.3118,4.2172,4.161,0.0,0.0,0.0,0.0,0.0,0.0,0.0,4.6699,4.7733,4.8529,0.0,4.9932,0.0,5.1167,5.2198,5.301,0.0,5.3518,5.3518,5.3518,5.3518,5.3653,5.3957,5.3991,5.4499,5.5547,5.5987,5.6544,5.7273,5.7273,5.7476,5.79,5.79,5.79,5.79,0.0,5.79,5.7934,5.8254,5.8631,5.9112,5.9421,5.984,6.0285,6.0721,6.1377,6.2116,0.0,0.0,0.0,0.0,0.0,0.0,0.0,0.0,0.0,0.0,1.5612,1.5758,0.0,0.0,0.0,0.0,0.0,0.0,0.0,0.0,1.8225,1.8287,1.8822,1.9319,1.98,1.9978,2.027,2.0699,2.0792,2.1708,2.3315,2.2086,2.2798,2.5035,2.3955,2.4116,2.5229,2.531,2.5674,2.6165,2.5674,2.5824,2.6273,0.0,2.6004,2.6537,2.6129,0.0,0.0,0.0,3.1344,3.1105,3.2475,3.3466,3.4493,3.6412,3.7593,3.8537,3.9758,4.0113,4.0282,4.1035,4.1745,4.2117,4.1508,4.2354,4.2645,4.0548,0.0,3.9728,3.8983,3.9534,4.0345,4.1068,0.0,4.5974,4.6699,4.8071,4.9052,4.912,5.0356,5.1235,5.1336,5.2655,5.3518,5.3518,5.3518,5.3518,5.3518,5.3585,5.3991,5.4702,5.4854,5.5513,5.6799,5.69,5.7273,5.79,5.79,5.79,5.79,5.79,5.7967,5.8069,0.0,0.0,5.8238,5.8896,5.9148,5.9216,5.9844,6.0114,6.0175,6.0935,6.1777,6.2634,0.0,0.0,0.0,0.0,0.0,0.0,0.0,0.0,0.0,0.0,1.6054,1.5957,0.0,0.0,0.0,0.0,0.0,0.0,0.0,0.0,0.0,1.8762,1.9402,1.9749,1.9806,2.082,2.1164,2.0779,2.1271,2.1715,2.2014,2.1773,2.1918,2.2383,2.271,2.2994,2.3246,2.374,2.3999,2.4148,2.4605,2.4844,2.4993,2.5423,0.0,0.0,0.0,0.0,0.0,3.1514,3.229,3.2569,3.4462,3.5592,3.6455,3.7415,3.8673,3.9805,4.0041,4.0113,4.0282,4.1035,4.1745,4.2266,4.213,4.23,0.0,0.0,0.0,3.8983,3.8227,3.9196,0.0,4.1068,0.0,0.0,0.0,0.0,4.9221,0.0,0.0,0.0,0.0,0.0,0.0,0.0,0.0,5.3518,5.3518,5.4093,5.4735,5.5496,5.6089,5.6528,5.6799,5.7408,5.7764,5.79,5.79,5.79,5.79,5.79,5.822,5.881,5.881,0.0,5.9742,5.9844,5.9911,5.9911,6.0047,6.0114,6.0133,6.0269,6.0863,6.1657,0.0,0.0,0.0,0.0,0.0,0.0,0.0,1.6517,1.6838,1.7167,1.6959,1.6899,1.7182,1.7263,1.7477,0.0,0.0,0.0,0.0,0.0,0.0,0.0,1.9551,2.0025,2.0324,2.1231,0.0,0.0,0.0,2.1875,2.2219,0.0,0.0,0.0,2.2706,2.2864,2.3176,2.349,2.361,2.364,2.3958,2.4077,0.0,0.0,0.0,0.0,0.0,0.0,0.0,3.1412,3.2479,3.349,3.5563,3.6742,3.7513,3.8244,3.9254,4.0113,4.0113,4.0113,4.0383,4.1474,4.2049,4.2097,4.1318,0.0,0.0,0.0,3.7799,3.763,3.6862,0.0,0.0,0.0,0.0,0.0,0.0,0.0,0.0,0.0,0.0,0.0,0.0,0.0,0.0,0.0,0.0,5.3687,5.4059,5.5141,5.5919,5.624,5.7002,5.7374,5.7374,5.773,5.79,5.79,5.79,5.8084,5.8457,5.8457,5.8863,5.9573,5.9573,0.0,6.0148,6.0554,6.0723,6.0757,6.1129,6.1298,6.1298,6.1298,6.1857,6.2609,0.0,0.0,0.0,0.0,0.0,0.0,1.6599,1.683,1.7145,1.7818,1.79,1.787,1.7728,1.7818,1.7907,0.0,0.0,0.0,0.0,0.0,0.0,0.0,0.0,2.0307,2.0768,0.0,0.0,0.0,0.0,0.0,0.0,0.0,0.0,0.0,0.0,0.0,0.0,2.361,2.361,0.0,0.0,0.0,0.0,0.0,0.0,0.0,0.0,0.0,0.0,0.0,3.2288,3.3503,3.5644,3.7054,3.8012,3.8599,3.9389,4.0113,4.0113,4.0113,4.0438,4.1927,4.23,4.1961,4.0641,4.0675,0.0,0.0,3.6231,3.6411,3.5949,0.0,0.0,0.0,0.0,0.0,0.0,0.0,0.0,0.0,0.0,0.0,0.0,0.0,0.0,0.0,0.0,0.0,5.4803,5.6089,5.6867,5.7036,5.7577,5.79,5.79,5.79,5.8001,5.8118,5.8118,5.8524,5.925,5.925,5.9674,6.0351,6.0351,0.0,0.0,6.1264,6.1535,6.1603,6.2178,6.24,6.24,6.24,6.2836,6.3425,0.0,0.0,0.0,0.0,0.0,0.0,1.6599,1.7204,1.784,1.8514,1.8604,1.8395,1.7758,1.8245,1.8378,0.0,0.0,0.0,0.0,0.0,0.0,0.0,0.0,0.0,0.0,0.0,0.0,0.0,0.0,0.0,0.0,0.0,0.0,0.0,0.0,0.0,0.0,0.0,0.0,0.0,0.0,0.0,0.0,0.0,0.0,0.0,0.0,0.0,0.0,0.0,0.0,3.1979,3.4038,3.6163,3.791,3.799,0.0,0.0,4.0113,4.0113,4.0438,4.1927,4.23,4.2097,4.1271,0.0,0.0,3.7168,3.6163,3.5915,3.6581,3.6863,0.0,0.0,0.0,4.3335,0.0,0.0,0.0,0.0,0.0,0.0,0.0,0.0,0.0,0.0,0.0,0.0,5.5597,5.6341,5.7103,5.7798,5.7866,5.79,5.79,5.79,5.822,5.8912,5.8912,5.9302,6.0013,6.0013,6.0419,6.1197,6.1197,0.0,0.0,6.2245,6.2299,6.2333,6.2347,6.24,6.24,6.24,6.2459,6.2537,0.0,0.0,0.0,0.0,0.0,0.0,1.7153,1.7541,1.8087,1.9151,1.931,1.9061,1.8395,1.8544,1.8424,1.775,0.0,0.0,0.0,0.0,0.0,0.0,0.0,0.0,0.0,0.0,0.0,0.0,0.0,0.0,0.0,0.0,0.0,0.0,0.0,0.0,0.0,0.0,0.0,0.0,0.0,0.0,0.0,0.0,0.0,0.0,0.0,0.0,0.0,0.0,0.0,0.0,3.2803,3.4709,0.0,0.0,3.8633,3.9525,3.9977,4.0113,4.035,4.1373,4.1644,4.1339,4.0155,0.0,3.8814,3.6535,3.5814,3.5712,3.6017,3.6479,3.7224,3.8565,4.0392,0.0,0.0,0.0,0.0,0.0,0.0,0.0,0.0,0.0,0.0,0.0,0.0,0.0,5.6341,5.707,5.7595,5.79,5.79,5.79,5.79,5.8355,5.8709,5.9013,5.9453,6.008,6.0825,6.0825,6.1231,6.1941,6.1941,0.0,0.0,6.24,6.24,6.24,6.24,6.24,6.24,6.24,6.24,6.24,0.0,0.0,0.0,0.0,0.0,1.6241,1.7519,1.769,1.8177,1.9519,1.9528,1.9211,1.8762,1.8365,1.8087,1.7997,1.8424,0.0,0.0,0.0,0.0,0.0,0.0,0.0,0.0,0.0,2.2493,2.2703,2.3291,0.0,0.0,0.0,0.0,0.0,0.0,0.0,0.0,0.0,0.0,0.0,0.0,0.0,0.0,0.0,0.0,0.0,0.0,0.0,0.0,0.0,0.0,0.0,0.0,0.0,0.0,0.0,3.8058,3.9119,3.9626,3.9943,4.0282,4.1035,4.1204,4.0798,0.0,0.0,3.8362,3.6084,3.56,3.56,3.56,3.6062,3.6772,3.7753,3.9377,4.1035,4.2422,0.0,0.0,0.0,0.0,0.0,0.0,0.0,0.0,0.0,0.0,0.0,5.7103,5.7611,5.79,5.79,5.79,5.7983,5.822,5.8761,5.9216,5.9689,6.0216,6.0858,6.1637,6.1637,6.1907,6.24,0.0,0.0,0.0,6.24,6.24,6.24,6.24,6.24,6.24,6.24,6.24,6.24,0.0,0.0,0.0,0.0,0.0,0.0,1.7519,1.769,1.8177,1.9519,1.9121,1.8694,1.8694,1.7511,1.7264,1.8574,1.8694,0.0,0.0,0.0,0.0,0.0,0.0,0.0,0.0,0.0,2.2034,2.2703,2.3291,2.361,2.361,0.0,0.0,0.0,0.0,0.0,0.0,0.0,0.0,0.0,0.0,0.0,0.0,0.0,0.0,0.0,0.0,0.0,0.0,0.0,0.0,0.0,0.0,3.1742,3.2767,0.0,3.7234,3.9017,3.9005,3.9525,4.0282,4.1035,4.1204,4.0798,0.0,0.0,3.8362,3.6084,3.56,3.56,3.56,3.56,3.6107,3.764,3.8531,4.0054,4.2983,0.0,0.0,0.0,0.0,0.0,0.0,0.0,0.0,0.0,0.0,0.0,5.7866,5.79,5.79,5.79,5.79,5.8254,5.8979,5.9013,5.9757,6.1298,6.1298,6.167,6.24,6.24,6.2381,0.0,0.0,0.0,0.0,6.24,6.24,6.24,6.24,6.24,6.24,6.24,6.24,6.24,0.0,0.0,0.0,0.0,0.0,0.0,1.6906,1.7025,1.7324,1.8215,1.8147,1.8027,1.8027,1.7234,1.7234,1.8574,1.8275,0.0,0.0,0.0,0.0,0.0,0.0,0.0,0.0,2.1136,2.1794,2.2004,2.3071,2.361,2.361,2.361,2.361,0.0,0.0,0.0,0.0,0.0,0.0,0.0,0.0,0.0,0.0,0.0,0.0,0.0,0.0,0.0,0.0,0.0,0.0,0.0,0.0,0.0,0.0,3.3129,3.4945,3.6896,3.7956,3.843,3.8667,3.8903,3.8925,3.87,3.7731,3.7494,3.7156,3.5847,3.56,3.56,3.56,3.56,3.6287,3.8328,3.8836,3.9851,0.0,0.0,0.0,0.0,0.0,0.0,0.0,0.0,0.0,0.0,0.0,0.0,5.7866,5.79,5.79,5.79,5.79,5.8254,5.8979,5.9505,6.0283,6.1298,6.1806,6.2178,6.24,6.24,6.24,0.0,0.0,0.0,0.0,6.24,6.24,6.24,6.24,6.24,6.24,6.24,6.24,6.24,0.0,0.0,0.0,0.0,0.0,0.0,1.6599,1.6711,1.6928,1.7601,1.7481,1.7413,1.7661,1.6891,1.6989,1.8574,1.8087,0.0,0.0,0.0,0.0,0.0,0.0,0.0,1.9708,2.1006,2.1814,2.2064,2.334,2.3988,2.3988,2.4238,2.4088,2.361,2.3868,0.0,0.0,0.0,0.0,0.0,0.0,0.0,2.475,0.0,0.0,0.0,0.0,0.0,0.0,0.0,0.0,0.0,0.0,0.0,0.0,0.0,3.3264,3.4742,3.6524,3.7471,3.791,3.791,3.791,0.0,3.6953,3.6795,3.6581,3.578,3.56,3.56,3.56,3.56,3.6253,3.8261,3.8565,3.9546,0.0,0.0,0.0,0.0,0.0,0.0,0.0,0.0,0.0,0.0,0.0,0.0,5.79,5.79,5.8035,5.8321,5.8321,5.866,5.9404,6.0182,6.0926,6.1704,6.2178,6.24,6.24,6.24,6.24,0.0,0.0,0.0,0.0,6.24,6.24,6.24,6.24,6.24,6.24,6.24,6.24,6.24,0.0,0.0,0.0,0.0,0.0,0.0,0.0,1.6629,1.6846,1.7481,1.7025,1.6868,1.7489,1.6503,1.6563,1.8454,1.8057,0.0,0.0,0.0,0.0,0.0,0.0,0.0,1.9708,2.1006,2.2004,2.2613,2.3958,2.4593,2.4593,2.5304,2.4926,2.3699,2.4306,2.4227,0.0,0.0,0.0,0.0,2.3623,2.3666,0.0,0.0,0.0,0.0,0.0,0.0,0.0,0.0,0.0,0.0,0.0,0.0,0.0,0.0,0.0,0.0,0.0,3.6456,3.7572,3.7652,3.764,3.7483,3.6851,3.6716,0.0,3.5735,3.56,3.5633,3.5667,3.5633,3.6152,3.7787,3.8046,0.0,0.0,0.0,0.0,0.0,0.0,0.0,0.0,0.0,0.0,0.0,0.0,0.0,5.79,5.79,5.8254,5.8979,5.9047,5.9419,6.0182,6.0926,6.167,6.24,6.24,6.24,6.24,6.24,6.24,0.0,0.0,0.0,0.0,6.24,6.24,6.24,6.24,6.24,6.24,6.24,6.24,6.24,0.0,0.0,0.0,0.0,0.0,0.0,0.0,0.0,0.0,0.0,1.6114,1.6084,1.6233,1.5971,1.6383,0.0,0.0,0.0,0.0,0.0,0.0,0.0,0.0,0.0,1.9708,2.1006,2.1794,2.1944,2.3708,2.4593,2.4593,2.5304,2.5154,2.4365,2.4545,2.4227,0.0,0.0,0.0,0.0,2.4058,2.4461,0.0,0.0,0.0,0.0,2.8444,2.9528,0.0,0.0,0.0,0.0,0.0,0.0,0.0,0.0,3.1843,3.2429,3.2926,0.0,3.4607,3.5148,3.5284,3.5385,0.0,3.5881,3.5814,3.5633,0.0,3.578,3.6411,3.6017,3.649,3.9153,3.958,0.0,0.0,0.0,0.0,0.0,0.0,0.0,0.0,0.0,0.0,0.0,0.0,5.79,5.79,5.79,5.8254,5.8979,5.9573,6.0216,6.1028,6.1197,6.167,6.24,6.24,6.24,6.24,6.24,6.24,0.0,0.0,0.0,6.24,6.24,6.24,6.24,6.24,6.24,6.24,6.24,6.24,6.24,0.0,0.0,0.0,0.0,0.0,0.0,0.0,0.0,0.0,0.0,1.5799,1.5799,1.5799,1.5799,1.6323,0.0,0.0,0.0,0.0,0.0,0.0,0.0,0.0,1.9708,1.9708,2.1006,2.1854,2.2154,2.3808,2.4754,2.5064,2.5423,2.5244,2.4605,2.4276,2.3928,0.0,0.0,0.0,0.0,2.3921,0.0,0.0,0.0,0.0,0.0,2.7989,2.8942,0.0,3.0986,3.1244,3.1283,0.0,0.0,0.0,0.0,3.1471,3.1819,3.1819,3.2824,3.4066,3.481,3.5002,3.5216,3.5994,0.0,0.0,0.0,0.0,3.5359,3.6118,3.6202,0.0,3.9205,4.046,0.0,0.0,0.0,0.0,0.0,0.0,0.0,0.0,0.0,0.0,0.0,0.0,5.79,5.79,5.79,5.8389,5.9471,5.9911,6.0486,6.1298,6.1637,6.2009,6.24,6.24,6.24,6.24,6.24,6.24,0.0,0.0,0.0,6.24,6.24,6.24,6.24,6.24,6.24,6.24,6.24,6.24,6.24,0.0,0.0,0.0,0.0,0.0,0.0,0.0,0.0,0.0,0.0,0.0,0.0,0.0,0.0,0.0,0.0,0.0,0.0,0.0,0.0,0.0,0.0,1.9708,1.9738,1.9848,2.1076,2.2034,2.2703,2.4077,2.5023,2.5603,2.5812,2.5483,2.4724,2.4048,2.3699,0.0,0.0,0.0,0.0,2.3677,0.0,0.0,0.0,0.0,0.0,0.0,0.0,0.0,3.0753,3.1219,3.1229,3.12,0.0,0.0,0.0,0.0,0.0,3.1336,3.2892,3.4607,3.5137,3.5329,3.5645,3.6445,0.0,0.0,0.0,0.0,0.0,0.0,0.0,0.0,0.0,0.0,0.0,0.0,0.0,0.0,0.0,0.0,0.0,0.0,0.0,0.0,0.0,0.0,5.79,5.79,5.79,5.8558,6.0047,6.0114,6.0554,6.1467,6.2076,6.24,6.24,6.24,6.24,6.24,6.24,6.24,6.24,0.0,0.0,6.24,6.24,6.24,6.24,6.24,6.24,6.24,6.24,6.24,6.24,0.0,0.0,0.0,0.0,0.0,0.0,0.0,0.0,0.0,0.0,0.0,0.0,0.0,0.0,0.0,0.0,0.0,0.0,0.0,0.0,0.0,1.9708,1.9708,1.9968,2.0518,2.1306,2.2034,2.2703,2.4537,2.5513,2.5633,2.6764,2.6644,2.5423,2.4754,2.4137,2.361,2.361,0.0,2.3653,2.408,0.0,0.0,0.0,0.0,0.0,0.0,0.0,0.0,3.0753,3.0874,3.0546,3.1066,0.0,0.0,0.0,0.0,0.0,3.1945,3.3298,3.437,3.3852,3.4201,3.4878,3.5611,0.0,0.0,0.0,0.0,0.0,0.0,0.0,0.0,0.0,0.0,0.0,0.0,0.0,0.0,0.0,0.0,0.0,0.0,0.0,0.0,0.0,0.0,5.79,5.79,5.79,5.8558,6.0047,6.0114,6.0791,6.2231,6.2347,6.24,6.24,6.24,6.24,6.24,6.24,6.24,6.24,0.0,6.24,6.24,6.24,6.24,6.24,6.24,6.24,6.24,6.24,6.24,6.24,0.0,0.0,0.0,0.0,0.0,0.0,0.0,0.0,0.0,0.0,0.0,0.0,0.0,0.0,0.0,0.0,0.0,0.0,0.0,0.0,1.9848,2.0228,2.0228,2.0369,2.0688,2.1695,2.2722,2.3729,2.5345,2.6345,2.6674,2.6584,2.6004,2.5023,2.4377,2.3898,2.361,2.361,2.3762,2.4048,0.0,0.0,0.0,0.0,0.0,0.0,0.0,0.0,0.0,0.0,3.0741,3.0931,3.1133,0.0,0.0,0.0,0.0,0.0,3.1606,3.2791,3.4032,3.4461,3.5757,3.7224,3.835,0.0,0.0,0.0,0.0,0.0,0.0,0.0,0.0,0.0,0.0,0.0,0.0,0.0,0.0,0.0,0.0,0.0,0.0,0.0,0.0,0.0,0.0,0.0,5.79,5.79,5.8558,6.0047,6.0114,6.0825,6.24,6.24,6.24,6.24,6.24,6.24,6.24,6.24,6.24,6.24,0.0,6.24,6.24,6.24,6.24,6.24,6.24,6.24,6.24,6.24,6.24,6.24,0.0,0.0,0.0,0.0,0.0,0.0,0.0,0.0,0.0,0.0,0.0,0.0,0.0,0.0,0.0,0.0,0.0,0.0,0.0,1.9708,1.9998,2.0668,2.0688,2.0897,2.1356,2.2393,2.361,2.5064,2.6243,2.7183,2.7782,2.6452,2.5483,2.4814,2.4137,2.3759,2.361,2.361,2.3837,2.4163,0.0,0.0,0.0,0.0,0.0,0.0,0.0,0.0,0.0,0.0,0.0,0.0,0.0,0.0,0.0,3.1606,3.1471,3.1475,3.149,3.2552,3.4,3.5318,3.6949,3.8667,4.0527,0.0,0.0,0.0,0.0,0.0,0.0,0.0,0.0,0.0,0.0,0.0,0.0,0.0,0.0,0.0,0.0,0.0,0.0,0.0,0.0,0.0,0.0,0.0,5.79,5.79,5.8558,6.0047,6.0114,6.0825,6.24,6.24,6.24,6.24,6.24,6.24,6.24,6.24,6.24,6.24,6.24,6.24,6.24,6.24,6.24,6.24,6.24,6.24,6.24,6.24,6.24,6.24,0.0,0.0,0.0,0.0,0.0,0.0,0.0,0.0,0.0,0.0,0.0,0.0,0.0,0.0,0.0,0.0,0.0,0.0,0.0,1.9708,1.9998,2.0668,2.0688,2.1535,2.334,2.349,2.4477,2.6465,2.7195,2.7872,2.8487,2.7153,2.6183,2.5513,2.4844,2.4197,2.361,2.361,2.3631,2.3634,2.3631,0.0,0.0,0.0,0.0,0.0,0.0,0.0,0.0,0.0,0.0,0.0,0.0,0.0,3.2293,3.2226,3.2226,3.2249,3.2365,3.3383,3.4666,3.5623,3.586,0.0,3.9525,3.9073,0.0,0.0,0.0,0.0,0.0,0.0,0.0,0.0,0.0,0.0,0.0,0.0,0.0,0.0,0.0,0.0,0.0,0.0,0.0,0.0,0.0,0.0,5.79,5.79,5.8558,6.0047,6.0114,6.0825,6.24,6.24,6.24,6.24,6.24,6.24,6.24,6.24,6.24,6.24,6.24,6.24,6.24,6.24,6.24,6.24,6.24,6.24,6.24,6.24,6.24,6.24,0.0,0.0,0.0,0.0,0.0,0.0,0.0,0.0,0.0,0.0,0.0,1.7025,1.784,0.0,0.0,0.0,0.0,0.0,0.0,1.9708,1.9998,2.0668,2.1086,2.2024,2.358,2.4018,2.5393,2.7829,2.8513,2.8543,2.7961,2.6602,2.5633,2.4963,2.4287,2.3849,2.361,2.361,2.3784,2.4079,2.3719,2.3921,0.0,0.0,0.0,0.0,0.0,0.0,0.0,0.0,2.9595,3.0318,3.0996,3.1708,3.2293,3.2293,3.2293,3.232,3.2372,3.3746,3.5397,3.6236,3.6701,0.0,0.0,0.0,0.0,0.0,0.0,0.0,0.0,0.0,0.0,0.0,0.0,0.0,0.0,0.0,0.0,0.0,0.0,0.0,0.0,0.0,0.0,0.0,0.0,0.0,5.79,5.79,5.8558,6.0047,6.0114,6.0825,6.24,6.24,6.24,6.24,6.24,6.24,6.24,6.24,6.24,6.24,6.24,6.24,6.24,6.24,6.24,6.24,6.24,6.24,6.24,6.24,6.24,6.24,0.0,0.0,0.0,0.0,0.0,0.0,0.0,0.0,1.6241,0.0,0.0,0.0,0.0,1.8882,0.0,0.0,0.0,0.0,1.9708,1.9708,2.0088,2.0967,2.1455,2.2383,2.3868,2.4586,2.6022,2.8278,2.8949,2.8723,2.7555,2.6213,2.5364,2.4903,2.4197,2.3939,2.3928,2.4148,2.4198,2.4162,2.4223,2.4208,0.0,0.0,0.0,0.0,0.0,0.0,0.0,0.0,2.9365,3.0548,3.1021,3.1708,3.2293,3.2293,3.2462,3.2624,3.2414,3.3627,3.5204,0.0,0.0,0.0,4.1546,0.0,0.0,0.0,0.0,0.0,0.0,0.0,0.0,0.0,0.0,0.0,0.0,0.0,0.0,0.0,0.0,0.0,0.0,0.0,0.0,0.0,0.0,0.0,0.0,5.79,5.8558,6.0047,6.0114,6.0825,6.24,6.24,6.24,6.24,6.24,6.24,6.24,6.24,6.24,6.24,6.24,6.24,6.24,6.24,6.24,6.24,6.24,6.24,6.24,6.24,6.24,6.24,0.0,0.0,0.0,0.0,0.0,0.0,0.0,0.0,1.6689,1.6711,1.787,0.0,0.0,0.0,0.0,0.0,0.0,0.0,1.9708,1.9708,2.0297,2.1635,2.1695,2.2622,2.4545,2.5244,2.6255,2.7585,2.8248,2.8231,2.7525,2.6213,2.5573,2.5543,2.4903,2.4593,2.4634,2.5304,2.4837,2.3729,2.5064,2.4807,2.3699,0.0,0.0,0.0,0.0,0.0,0.0,0.0,2.9111,3.12,3.12,3.1708,3.2327,3.2293,3.2814,3.3262,3.2652,3.2989,3.39,0.0,0.0,0.0,0.0,4.1143,0.0,0.0,0.0,0.0,0.0,0.0,0.0,0.0,0.0,0.0,0.0,0.0,0.0,0.0,0.0,0.0,0.0,0.0,0.0,0.0,0.0,0.0,0.0,5.79,5.8558,6.0047,6.0114,6.0825,6.2347,6.24,6.24,6.24,6.24,6.24,6.24,6.24,6.24,6.24,6.24,6.24,6.24,6.24,6.24,6.24,6.24,6.24,6.24,6.24,6.24,6.24,0.0,0.0,0.0,0.0,0.0,0.0,0.0,0.0,1.6211,1.6629,1.7443,0.0,0.0,0.0,0.0,0.0,0.0,0.0,1.9708,1.9708,2.0088,2.0967,2.1455,2.2365,2.3733,2.4877,2.5918,2.6884,2.7585,2.7063,2.5483,2.5573,2.5106,2.4208,2.4485,2.4593,2.4593,2.4814,2.4945,2.5035,2.5423,2.5364,2.502,0.0,0.0,0.0,0.0,0.0,0.0,0.0,0.0,0.0,3.1021,3.207,3.2983,3.2452,3.2519,3.2829,3.3057,3.4074,0.0,0.0,0.0,0.0,0.0,0.0,0.0,0.0,0.0,0.0,0.0,0.0,0.0,0.0,0.0,0.0,0.0,0.0,0.0,0.0,0.0,0.0,0.0,0.0,0.0,0.0,0.0,0.0,0.0,5.79,5.8321,5.9284,5.9844,6.0588,6.1603,6.2144,6.24,6.24,6.24,6.24,6.24,6.24,6.24,6.24,6.24,6.24,6.24,6.24,6.24,6.24,6.24,6.24,6.24,6.24,6.24,6.24,0.0,0.0,0.0,0.0,0.0,0.0,1.5799,1.5994,1.6301,1.6659,1.7511,1.8237,0.0,0.0,0.0,1.9708,1.9708,0.0,1.9708,1.9708,2.0118,2.1066,2.1485,2.2395,2.3824,2.4669,2.5315,2.5824,2.6494,2.6063,2.4593,2.5304,2.5166,2.4448,2.5364,2.5633,2.5423,2.595,2.5962,2.5633,2.6183,2.6063,2.5578,0.0,0.0,0.0,0.0,0.0,0.0,0.0,0.0,0.0,3.1065,3.1799,3.2425,3.2039,3.2154,3.266,3.3563,3.4497,0.0,0.0,0.0,0.0,0.0,0.0,0.0,0.0,0.0,0.0,0.0,0.0,0.0,0.0,0.0,0.0,0.0,0.0,0.0,0.0,0.0,0.0,0.0,0.0,0.0,0.0,0.0,0.0,0.0,5.79,5.8254,5.8979,5.9708,6.0486,6.1298,6.2009,6.24,6.24,6.24,6.24,6.24,6.24,6.24,6.24,6.24,6.24,6.24,6.24,6.24,6.24,6.24,6.24,6.24,6.24,6.24,6.24,0.0,0.0,1.5799,1.5799,0.0,0.0,1.5799,1.6271,1.6629,1.6629,1.7788,1.8604,0.0,0.0,0.0,1.9708,1.9708,1.9726,1.9762,1.9786,2.0404,2.1773,2.1943,2.2786,2.4485,2.4571,2.4571,2.4515,2.5184,2.5184,2.4515,2.5274,2.5603,2.5674,2.6944,2.7195,2.6764,2.7919,2.741,2.5884,2.7106,2.6884,2.5794,2.5693,0.0,0.0,0.0,0.0,0.0,0.0,0.0,0.0,3.12,3.1268,3.1294,3.1282,3.189,3.2775,3.4034,0.0,0.0,0.0,0.0,0.0,0.0,0.0,0.0,0.0,0.0,0.0,0.0,0.0,0.0,0.0,0.0,0.0,0.0,0.0,0.0,0.0,0.0,0.0,0.0,0.0,0.0,0.0,0.0,0.0,0.0,5.79,5.822,5.8878,5.9674,6.0452,6.1197,6.1975,6.24,6.24,6.24,6.24,6.24,6.24,6.24,6.24,6.24,6.24,6.24,6.24,6.24,6.24,6.24,6.24,6.24,6.24,6.24,6.24,0.0,0.0,1.5799,1.5799,0.0,0.0,1.5799,1.5911,1.5994,1.5994,1.7116,1.7908,1.7908,1.8972,0.0,1.9708,1.9708,1.983,2.0158,2.037,2.1184,2.2722,2.386,2.4253,2.383,2.423,2.424,2.3819,2.4496,2.4455,2.3838,2.5035,2.5603,2.5633,2.6465,2.7046,2.7375,2.7123,2.7093,2.7195,2.7495,2.7435,2.7106,2.6584,2.6363,0.0,0.0,0.0,0.0,0.0,0.0,0.0,3.12,3.1606,3.1958,3.1379,3.2186,3.3423,3.4176,3.5223,0.0,0.0,0.0,0.0,0.0,0.0,0.0,0.0,0.0,0.0,0.0,0.0,0.0,0.0,0.0,0.0,0.0,0.0,0.0,0.0,0.0,0.0,0.0,0.0,0.0,0.0,0.0,0.0,5.79,5.79,5.7949,5.8118,5.9404,6.0182,6.0351,6.1724,6.24,0.0,6.24,6.24,6.24,6.24,6.24,6.24,6.24,6.24,6.24,6.24,6.24,6.24,6.24,6.24,6.24,6.24,6.24,6.24,0.0,0.0,0.0,0.0,0.0,0.0,0.0,0.0,1.6241,1.6241,1.7101,1.769,1.769,1.8604,0.0,0.0,1.9693,2.0072,2.0304,2.0627,2.1415,2.2667,2.3824,2.4163,2.3591,2.3879,2.389,2.361,2.3958,2.3928,2.361,2.4646,2.5304,2.5633,2.6644,2.7285,2.7585,2.7572,2.7572,2.7585,2.7585,2.7585,2.7525,2.6866,2.6989,2.7515,2.7512,0.0,0.0,0.0,0.0,0.0,0.0,0.0,3.1327,3.1297,3.1892,3.2883,3.4484,0.0,0.0,0.0,0.0,0.0,0.0,0.0,0.0,0.0,0.0,0.0,0.0,0.0,0.0,0.0,0.0,0.0,0.0,0.0,0.0,0.0,0.0,0.0,0.0,0.0,0.0,0.0,0.0,5.79,5.79,5.79,5.79,5.79,5.8998,5.9742,6.0114,6.1264,6.2042,6.24,6.24,6.24,6.24,6.24,6.24,6.24,6.24,6.24,6.24,6.24,6.24,6.24,6.24,6.24,6.24,6.24,6.24,6.24,0.0,0.0,0.0,0.0,0.0,0.0,0.0,0.0,0.0,1.6711,1.7384,1.787,1.787,1.8365,1.8758,0.0,0.0,0.0,2.04,2.0892,2.1564,2.2433,2.3264,2.3663,2.3591,2.3677,2.3677,2.361,2.361,2.367,2.3789,2.4455,2.5124,2.5824,2.7033,2.7585,2.7615,2.8081,2.7872,2.7255,2.7375,2.7435,2.7375,2.6944,2.7425,2.8221,2.7261,2.7992,2.9417,2.9518,0.0,0.0,0.0,0.0,3.0433,3.1165,3.149,3.2157,3.4516,0.0,3.7113,0.0,0.0,0.0,0.0,0.0,0.0,0.0,0.0,0.0,0.0,0.0,0.0,0.0,0.0,0.0,0.0,0.0,0.0,0.0,0.0,0.0,0.0,0.0,0.0,0.0,0.0,5.79,5.79,5.79,5.79,5.79,5.8626,5.9351,6.008,6.0892,6.167,6.24,6.24,6.24,6.24,6.24,6.24,6.24,6.24,6.24,6.24,6.24,6.24,6.24,6.24,6.24,6.24,6.24,6.24,6.24,0.0,0.0,0.0,0.0,0.0,0.0,0.0,0.0,0.0,0.0,1.778,1.8583,1.8583,1.8634,1.9067,2.0017,1.9376,1.9468,2.0822,0.0,0.0,2.3134,2.3796,2.3947,2.3601,2.4079,2.4079,2.361,2.361,2.3898,2.4485,2.5143,2.5812,2.6494,2.7255,2.7585,2.7555,2.7063,2.6482,2.5914,2.6494,2.6734,2.6794,2.7285,2.7575,2.7785,2.8118,2.8748,2.9485,2.9989,3.057,0.0,0.0,0.0,3.042,3.1101,3.176,3.2485,0.0,0.0,3.7614,0.0,0.0,0.0,0.0,0.0,0.0,0.0,0.0,0.0,0.0,0.0,0.0,0.0,0.0,0.0,0.0,0.0,0.0,0.0,0.0,0.0,0.0,0.0,0.0,0.0,5.79,5.79,5.79,5.79,5.79,5.79,5.8626,5.9351,6.008,6.0892,6.167,6.24,6.24,6.24,6.24,6.24,6.24,6.24,6.24,6.24,6.24,6.24,6.24,6.24,6.24,6.24,6.24,6.24,6.24,6.24,0.0,0.0,0.0,0.0,0.0,0.0,0.0,0.0,0.0,0.0,0.0,1.8694,1.8694,1.8694,1.901,1.9724,1.9658,2.0003,2.0951,2.1671,2.2079,2.2183,2.2937,2.3111,2.2553,2.3121,2.3333,2.3092,2.3092,2.361,0.0,2.5304,2.5974,2.6614,2.6914,2.7255,2.7567,2.6884,2.6644,2.6704,2.6644,2.7273,2.8231,0.0,0.0,0.0,0.0,0.0,0.0,2.9596,2.9968,3.0267,3.058,0.0,0.0,0.0,3.1633,0.0,3.5705,3.6894,3.7824,0.0,0.0,0.0,0.0,0.0,0.0,0.0,0.0,0.0,0.0,0.0,0.0,0.0,0.0,0.0,0.0,0.0,0.0,0.0,0.0,0.0,0.0,0.0,0.0,0.0,5.79,5.79,5.79,5.79,5.79,5.79,5.822,5.893,6.008,6.0452,6.1231,6.24,6.24,6.24,6.24,6.24,6.24,6.24,6.24,6.24,6.24,6.24,6.24,6.24,6.24,6.24,6.24,6.24,6.24,6.24,0.0,0.0,0.0,0.0,0.0,0.0,0.0,0.0,0.0,0.0,0.0,1.8942,1.8942,0.0,0.0,0.0,1.997,2.0336,2.0967,2.1347,2.1498,2.1312,2.2099,2.2283,2.1704,2.2415,2.2758,2.2703,2.2853,2.358,2.4874,2.5543,2.6213,0.0,2.6854,2.7046,2.7315,2.6824,2.6794,2.7093,2.7093,2.8021,2.9279,0.0,0.0,0.0,0.0,0.0,0.0,0.0,0.0,0.0,0.0,0.0,0.0,0.0,0.0,0.0,0.0,0.0,3.7184,3.9334,0.0,0.0,0.0,0.0,0.0,0.0,0.0,0.0,0.0,0.0,0.0,0.0,0.0,0.0,0.0,0.0,0.0,0.0,0.0,0.0,0.0,0.0,0.0,0.0,5.7798,5.79,5.79,5.79,5.79,5.79,5.79,5.8524,5.981,6.0216,6.1061,6.24,6.24,6.24,6.24,6.24,6.24,6.24,6.24,6.24,6.24,6.24,6.24,6.24,6.24,6.24,6.24,6.24,6.24,6.24,0.0,0.0,0.0,0.0,0.0,0.0,0.0,0.0,0.0,0.0,0.0,1.9648,1.9648,1.907,1.9309,2.0799,2.001,1.9899,2.0935,2.063,2.0648,2.1264,2.1823,0.0,2.1724,2.2614,2.2967,2.2703,2.3261,2.4238,2.5573,2.6243,2.6926,2.7555,2.7555,2.7225,2.6644,0.0,0.0,2.5872,2.7739,2.8547,2.8786,0.0,0.0,0.0,0.0,0.0,0.0,0.0,0.0,0.0,0.0,0.0,0.0,0.0,0.0,0.0,0.0,3.4683,0.0,3.7083,0.0,0.0,0.0,0.0,0.0,0.0,0.0,0.0,0.0,0.0,0.0,0.0,0.0,0.0,0.0,0.0,0.0,0.0,0.0,0.0,0.0,0.0,0.0,0.0,5.7476,5.79,5.79,5.79,5.79,5.79,5.79,5.8254,5.9047,6.052,6.1637,6.24,6.24,6.24,6.24,6.24,6.24,6.24,6.24,6.24,6.24,6.24,6.24,6.24,6.24,6.24,6.24,6.24,6.24,6.24,0.0,0.0,0.0,0.0,0.0,0.0,0.0,0.0,0.0,0.0,0.0,0.0,0.0,1.9489,1.9654,2.0484,2.0469,2.0348,2.0176,2.0253,2.0405,2.0653,2.1011,2.1075,2.0797,2.1302,2.1732,2.2064,0.0,2.349,2.5615,2.5854,2.6554,2.7585,2.7585,2.7465,2.7225,2.6794,0.0,2.6973,2.8128,2.9355,0.0,0.0,0.0,0.0,0.0,0.0,0.0,0.0,0.0,0.0,0.0,0.0,0.0,0.0,0.0,0.0,0.0,0.0,0.0,3.6501,3.7395,3.8182,0.0,0.0,0.0,0.0,0.0,0.0,0.0,0.0,0.0,0.0,0.0,0.0,0.0,0.0,0.0,0.0,0.0,0.0,0.0,0.0,0.0,0.0,0.0,5.79,5.79,5.79,5.79,5.79,5.79,5.8254,5.8979,6.052,6.1434,6.1704,6.2178,6.24,6.24,6.24,6.24,6.24,6.24,6.24,6.24,6.24,6.24,6.24,6.24,6.24,6.24,6.24,6.24,6.24,0.0,0.0,0.0,1.769,0.0,1.7047,1.7047,1.7601,1.8027,1.8027,0.0,0.0,0.0,0.0,2.0452,2.061,2.0857,2.0682,1.9953,2.0158,2.0253,2.0106,2.0388,2.0521,2.0448,2.0743,2.128,2.2034,2.2243,2.334,2.5262,2.5722,2.6393,2.7285,2.7495,2.7585,0.0,0.0,0.0,2.7705,0.0,0.0,3.1511,0.0,0.0,0.0,0.0,0.0,0.0,0.0,0.0,0.0,0.0,0.0,0.0,0.0,0.0,0.0,0.0,0.0,0.0,0.0,0.0,3.6956,3.8943,0.0,0.0,0.0,0.0,0.0,0.0,0.0,0.0,0.0,0.0,0.0,0.0,0.0,0.0,0.0,0.0,0.0,0.0,0.0,0.0,0.0,0.0,0.0,5.79,5.79,5.79,5.79,5.79,5.8254,5.8979,6.0283,6.1028,6.1298,6.2042,6.24,6.24,6.24,6.24,6.24,6.24,6.24,6.24,6.24,6.24,6.24,6.24,6.24,6.24,6.24,6.24,6.24,1.6771,1.7294,1.775,1.775,1.775,1.775,1.772,1.8305,1.8732,1.8732,0.0,0.0,0.0,0.0,0.0,2.1324,2.1131,2.0804,2.033,2.0296,2.0115,1.9744,2.0102,2.0457,2.0717,2.1103,2.1776,2.2703,2.3291,2.3939,2.4634,2.5932,2.6554,2.6644,2.7285,2.7585,2.7585,0.0,2.7615,2.7854,0.0,3.1511,3.169,0.0,3.3544,0.0,3.2739,3.2471,0.0,0.0,0.0,0.0,0.0,0.0,0.0,0.0,0.0,0.0,0.0,0.0,0.0,0.0,0.0,0.0,3.8524,0.0,3.9888,0.0,0.0,0.0,0.0,0.0,0.0,0.0,0.0,0.0,0.0,0.0,0.0,0.0,0.0,0.0,0.0,0.0,0.0,0.0,5.6393,5.7103,5.7832,5.79,5.79,5.79,5.79,5.8254,5.8945,5.9708,6.0486,6.1264,6.2009,6.24,6.24,6.24,6.24,6.24,6.24,6.24,6.24,6.24,6.24,6.24,6.24,6.24,6.24,6.24,6.24,6.24,1.8147,1.8702,1.9151,1.9151,1.9151,1.8972,1.8514,1.9001,1.9429,0.0,0.0,0.0,2.1365,2.1575,2.1664,2.159,2.1108,2.074,2.0603,2.0128,1.9953,2.0132,2.0439,2.0755,2.1127,2.1432,2.1953,2.2703,2.2882,2.352,2.4593,2.4963,2.5663,2.6614,2.6794,2.7165,2.7585,2.7585,0.0,0.0,3.0644,3.178,0.0,3.3709,3.4502,3.4863,0.0,3.3925,0.0,0.0,3.3379,3.1844,0.0,0.0,0.0,0.0,0.0,0.0,3.1572,0.0,0.0,0.0,0.0,0.0,3.5535,3.6613,3.8003,0.0,0.0,0.0,0.0,0.0,0.0,0.0,0.0,0.0,0.0,0.0,0.0,0.0,0.0,0.0,0.0,0.0,0.0,0.0,5.6089,5.69,5.7103,5.7629,5.79,5.79,5.79,5.8001,5.8186,5.893,5.9656,6.0452,6.1231,6.1873,6.24,6.24,6.24,6.24,6.24,6.24,6.24,6.24,6.24,6.24,6.24,6.24,6.24,6.24,6.24,6.24,1.8694,1.948,2.0109,2.0109,2.0357,2.0387,2.0019,2.0288,2.0537,0.0,0.0,0.0,2.2413,2.2503,2.2383,2.2124,2.1485,2.0997,2.0728,2.0339,2.0228,2.0468,2.0608,2.1191,2.2228,2.2174,2.2573,2.349,2.3201,2.3471,2.4197,2.4765,2.5423,2.6213,2.6764,2.7225,0.0,0.0,0.0,0.0,3.0584,0.0,0.0,3.3889,3.4727,0.0,0.0,0.0,3.5056,3.5865,3.4801,0.0,3.1973,0.0,0.0,0.0,0.0,0.0,0.0,0.0,0.0,0.0,0.0,0.0,3.4937,3.6118,3.7751,0.0,4.1505,0.0,0.0,0.0,0.0,0.0,0.0,0.0,0.0,0.0,0.0,0.0,0.0,0.0,0.0,5.2939,5.4262,5.4583,5.5378,5.6156,5.6765,5.7476,5.79,5.79,5.79,5.79,5.79,5.8626,5.9351,6.0114,6.0926,6.167,6.24,6.24,6.24,6.24,6.24,6.24,6.24,6.24,6.24,6.24,6.24,6.24,6.24,6.24,6.24,6.24,0.0,1.998,2.0817,2.0817,2.1365,2.1824,2.1824,2.1824,2.1854,0.0,2.2613,2.3231,2.3759,2.3759,2.349,2.2972,2.2243,2.1545,2.0967,2.0847,2.0817,2.0817,2.0937,2.1804,2.346,2.3201,2.349,2.4485,2.3958,2.3699,2.3729,2.4915,2.5573,2.5752,2.6944,2.7525,2.7585,0.0,0.0,2.8034,3.0508,3.1526,0.0,0.0,3.4667,0.0,3.54,3.5699,3.6088,3.7734,3.7135,3.5549,3.4667,3.2856,0.0,0.0,3.0761,0.0,0.0,0.0,0.0,0.0,0.0,0.0,3.531,3.6484,3.7912,4.13,4.229,0.0,0.0,0.0,0.0,0.0,0.0,0.0,0.0,0.0,0.0,0.0,0.0,0.0,5.1903,5.287,5.3788,5.4431,5.455,5.5243,5.6731,5.7408,5.7832,5.79,5.79,5.79,5.79,5.8558,5.925,5.9979,6.0791,6.1569,6.2299,6.2367,6.24,6.24,6.24,6.24,6.24,6.24,6.24,6.24,6.24,6.24,6.24,6.24,6.24,6.24,2.1096,2.1335,2.1485,2.1485,2.2064,2.2493,2.2493,2.2493,2.2872,2.3887,2.4616,2.5076,2.5184,2.4735,2.4365,2.4246,2.3171,2.2463,2.2313,2.1794,2.1485,2.1485,2.2503,2.2981,2.2882,2.4298,2.4627,2.3819,2.4186,2.4395,2.4425,2.4664,2.5364,2.6435,2.6674,2.7093,2.7585,0.0,0.0,2.9338,3.0897,0.0,3.2512,3.4532,3.5639,3.6134,3.6254,3.6956,3.7793,0.0,3.7327,3.6656,0.0,0.0,0.0,0.0,0.0,0.0,0.0,0.0,0.0,0.0,0.0,0.0,3.2572,3.3409,3.4773,0.0,3.7391,0.0,0.0,0.0,0.0,0.0,0.0,0.0,0.0,0.0,0.0,0.0,0.0,0.0,5.1903,5.287,5.3551,5.3687,5.4262,5.5243,5.6731,5.6934,5.7273,5.79,5.79,5.79,5.79,5.8017,5.849,5.9216,5.9979,6.0757,6.1535,6.211,6.24,6.24,6.24,6.24,6.24,6.24,6.24,6.24,6.24,6.24,6.24,6.24,6.24,6.24,2.1695,2.1974,2.2183,2.2183,2.2733,2.3261,2.361,2.364,2.3988,2.4963,2.5693,2.5974,2.5633,2.5603,2.5453,2.5124,2.4496,2.3849,2.3201,2.2832,2.2503,2.2213,2.2812,2.3471,2.4129,2.4448,2.4777,2.5106,2.4765,2.4784,2.5124,2.5453,2.5944,2.6614,2.6944,2.7285,0.0,0.0,2.8543,3.0133,3.1092,0.0,3.3664,3.537,3.6387,3.6985,3.7332,3.8063,3.8841,3.8494,3.7764,0.0,0.0,3.525,3.4651,0.0,3.3215,3.3784,0.0,0.0,0.0,3.3006,0.0,0.0,0.0,3.3517,3.4698,3.7219,3.7304,0.0,0.0,0.0,0.0,0.0,0.0,0.0,0.0,0.0,0.0,0.0,0.0,0.0,5.268,5.3179,5.3518,5.3518,5.416,5.5074,5.619,5.6596,5.7137,5.79,5.79,5.79,5.79,5.79,5.8254,5.9013,5.9742,6.052,6.1332,6.2042,6.24,6.24,6.24,6.24,6.24,6.24,6.24,6.24,6.24,6.24,6.24,6.24,6.24,6.24,2.2024,2.2513,2.2882,2.2882,2.3291,2.3819,2.4515,2.4485,2.4694,2.5483,2.6183,2.6435,2.6033,0.0,0.0,0.0,2.6004,2.5465,2.4268,2.4059,2.377,2.3272,2.3141,2.3849,2.5573,2.4657,2.4908,2.6393,2.5453,2.5274,2.5794,2.6333,2.6674,2.6824,2.7645,0.0,0.0,0.0,0.0,3.112,0.0,3.2991,3.4847,3.6164,3.7045,3.7674,3.8362,3.896,3.9391,3.9242,0.0,3.6883,3.7015,3.6207,0.0,0.0,0.0,0.0,0.0,0.0,0.0,0.0,0.0,3.323,0.0,0.0,0.0,3.8359,0.0,0.0,0.0,0.0,0.0,0.0,0.0,0.0,0.0,0.0,0.0,0.0,0.0,0.0,0.0,5.2942,5.3044,5.3484,5.3653,5.4262,5.5428,5.619,5.6934,5.7645,5.7832,5.79,5.79,5.79,5.8186,5.8776,5.9674,6.0452,6.1095,6.1975,6.24,6.24,6.24,6.24,6.24,6.24,6.24,6.24,6.24,6.24,6.24,6.24,6.24,6.24,2.3161,2.346,2.349,2.349,2.355,2.3819,2.4515,2.4107,2.4178,2.5423,2.6183,0.0,0.0,0.0,0.0,0.0,0.0,0.0,2.6315,0.0,2.5334,2.5274,2.4706,2.4754,2.5573,2.6033,2.6063,2.5693,2.6153,2.6393,2.6494,2.6554,2.6926,2.7555,2.8813,0.0,0.0,0.0,3.133,0.0,3.3245,3.4113,0.0,3.6806,3.7704,3.8362,3.905,3.9331,3.9302,0.0,3.8362,3.7901,0.0,3.6746,0.0,0.0,0.0,0.0,0.0,0.0,0.0,0.0,3.4352,0.0,0.0,0.0,3.4654,3.518,0.0,0.0,0.0,0.0,0.0,0.0,0.0,0.0,0.0,0.0,0.0,0.0,0.0,0.0,0.0,5.0879,5.1319,5.3348,5.1691,5.1809,5.4583,5.5428,5.6139,5.69,5.7561,5.79,5.79,5.79,5.7934,5.8017,5.9438,6.0148,6.0283,6.1738,6.24,6.24,6.24,6.24,6.24,6.24,6.24,6.24,6.24,6.24,6.24,6.24,6.24,6.24,2.2962,2.3082,2.3201,2.355,2.361,2.3819,2.4515,2.5345,2.6105,2.6704,2.732,0.0,0.0,0.0,0.0,0.0,0.0,2.8304,0.0,0.0,2.6393,2.5633,2.5334,2.5483,2.6153,2.6063,2.6243,2.6764,2.6644,2.6794,2.7195,2.7195,2.7315,2.7645,2.8992,0.0,2.9265,0.0,0.0,0.0,0.0,0.0,0.0,3.7614,3.8392,3.9002,3.9302,3.9391,3.9361,0.0,3.8452,0.0,0.0,0.0,0.0,0.0,0.0,0.0,0.0,0.0,0.0,0.0,0.0,0.0,0.0,0.0,3.4868,0.0,0.0,0.0,0.0,0.0,0.0,0.0,3.8424,0.0,0.0,0.0,0.0,0.0,0.0,0.0,0.0,0.0,0.0,0.0,5.1386,5.1436,5.4448,5.4905,5.5615,5.6765,5.7103,5.7476,5.79,5.79,5.79,5.7934,5.8964,5.9708,6.0148,6.1264,6.2009,6.24,6.24,6.24,6.24,6.24,6.24,6.24,6.24,6.24,6.24,6.24,6.24,6.24,2.2673,2.2823,2.3082,2.352,2.3748,2.4107,2.4784,2.6123,2.7136,0.0,0.0,0.0,2.8816,2.8876,0.0,0.0,0.0,2.9907,0.0,0.0,2.7782,0.0,0.0,0.0,2.7393,2.6393,2.6435,2.7585,2.7106,2.7123,2.7585,2.7585,2.7585,2.7675,0.0,3.0133,3.0223,0.0,0.0,3.4651,3.5639,3.6789,3.7985,3.8482,3.899,3.9391,3.9391,3.9391,3.9361,3.9182,3.8482,0.0,3.8584,0.0,0.0,0.0,0.0,0.0,3.5535,0.0,0.0,0.0,0.0,0.0,0.0,0.0,0.0,0.0,0.0,0.0,0.0,0.0,0.0,0.0,0.0,0.0,0.0,0.0,0.0,0.0,0.0,0.0,0.0,0.0,0.0,0.0,0.0,5.0692,5.4126,5.4482,5.5175,5.6461,5.6697,5.7137,5.79,5.79,5.79,5.7934,5.866,5.9404,6.0148,6.0926,6.1704,6.24,6.24,6.24,6.24,6.24,6.24,6.24,6.24,6.24,6.24,6.24,6.24,6.24,2.2583,2.3171,2.358,2.361,2.4137,2.4784,2.5453,2.5633,0.0,0.0,0.0,0.0,0.0,0.0,0.0,0.0,0.0,3.2123,3.1421,0.0,2.9788,0.0,0.0,2.6841,0.0,2.7572,2.6914,2.7585,2.7585,2.7585,2.7585,2.7585,2.7585,2.7705,3.0299,3.1451,3.16,3.4247,3.6118,3.7268,3.7315,3.8135,3.9331,0.0,3.9391,3.9391,3.9391,0.0,0.0,3.8661,3.8409,0.0,0.0,0.0,0.0,0.0,0.0,0.0,0.0,0.0,0.0,3.5296,0.0,0.0,0.0,0.0,3.6148,0.0,0.0,0.0,0.0,0.0,0.0,0.0,0.0,0.0,0.0,0.0,0.0,0.0,0.0,0.0,0.0,0.0,0.0,0.0,0.0,0.0,5.3315,5.4194,5.4938,5.5699,5.6427,5.7137,5.79,5.79,5.79,5.7934,5.866,5.9404,6.0148,6.0926,6.1704,6.24,6.24,6.24,6.24,6.24,6.24,6.24,6.24,6.24,6.24,6.24,6.24,6.24,2.3261,2.4178,2.4646,2.3759,0.0,0.0,2.6093,2.6644,0.0,0.0,0.0,0.0,0.0,0.0,3.1958,0.0,0.0,3.2886,3.2213,3.1346,0.0,0.0,0.0,2.868,0.0,0.0,2.7812,2.7585,2.7585,2.7585,2.7615,2.8051,2.8248,2.838,0.0,3.2422,0.0,0.0,0.0,0.0,0.0,3.8195,3.9391,0.0,0.0,3.9391,3.9391,3.9391,0.0,3.914,3.9062,3.9092,3.932,3.926,3.9092,3.932,3.9391,0.0,0.0,0.0,3.9469,3.7015,0.0,0.0,0.0,0.0,0.0,0.0,0.0,0.0,0.0,0.0,0.0,0.0,0.0,0.0,0.0,0.0,3.7562,0.0,0.0,0.0,0.0,0.0,0.0,0.0,0.0,0.0,0.0,5.3754,5.4431,5.5665,5.5936,5.6664,5.79,5.79,5.79,5.79,5.8152,5.8896,6.0114,6.0385,6.1197,6.24,6.24,6.24,6.24,6.24,6.24,6.24,6.24,6.24,6.24,6.24,6.24,6.24,2.4298,2.5005,2.5334,0.0,0.0,0.0,0.0,0.0,0.0,0.0,3.0059,0.0,3.2123,0.0,3.2961,0.0,3.3993,3.3664,3.3245,3.2572,0.0,3.2572,3.1091,0.0,0.0,0.0,0.0,2.862,2.8423,2.8304,2.8334,2.874,2.8949,2.9069,0.0,3.3006,0.0,0.0,3.7105,0.0,0.0,3.8614,0.0,0.0,3.9391,3.9391,0.0,3.9541,3.9768,3.9768,3.99,4.0187,4.0606,4.0457,4.0217,4.0636,4.0606,4.0397,4.0187,4.0606,0.0,3.8614,3.8452,0.0,3.6567,0.0,0.0,0.0,0.0,0.0,0.0,0.0,0.0,0.0,0.0,0.0,0.0,3.6851,0.0,0.0,0.0,0.0,0.0,0.0,0.0,0.0,0.0,0.0,0.0,0.0,5.4059,5.5277,5.5564,5.6274,5.7476,5.7764,5.79,5.79,5.79,5.866,6.0114,6.0114,6.0926,6.24,6.24,6.24,6.24,6.24,6.24,6.24,6.24,6.24,6.24,6.24,6.24,6.24,2.5586,2.5645,2.5717,0.0,2.6213,0.0,0.0,0.0,2.9608,0.0,3.0807,3.2079,3.3395,3.3036,3.3484,3.54,3.4997,0.0,3.4637,3.4009,0.0,0.0,3.2751,3.2288,3.3574,0.0,0.0,0.0,2.9937,2.9621,2.9638,2.9638,2.9638,2.9728,3.1689,0.0,3.4607,3.6567,3.8165,3.9391,3.9391,3.9421,3.9451,3.9451,3.9481,3.9481,3.9451,3.9888,4.0457,4.0457,4.0876,4.1463,4.1463,4.1463,4.1493,4.1493,4.1942,4.2321,4.1673,4.1942,4.1972,4.0019,0.0,0.0,0.0,0.0,4.0107,0.0,0.0,0.0,0.0,0.0,0.0,0.0,0.0,0.0,0.0,0.0,0.0,0.0,0.0,0.0,0.0,0.0,0.0,0.0,0.0,0.0,0.0,0.0,5.3721,5.4566,5.5327,5.6037,5.6799,5.7509,5.79,5.79,5.79,5.866,6.0114,6.0114,6.0926,6.24,6.24,6.24,6.24,6.24,6.24,6.24,6.24,6.24,6.24,6.24,6.24,6.24,2.5525,2.6242,2.7068,0.0,2.7141,2.7003,0.0,0.0,0.0,0.0,3.2153,3.3305,3.4158,3.4997,3.5669,3.6178,3.6507,0.0,0.0,0.0,0.0,3.6626,3.5234,3.4636,3.4981,3.3036,0.0,3.1974,3.0372,2.9817,3.0253,3.0253,3.0253,3.0372,0.0,0.0,3.4607,3.6567,3.8165,3.9391,3.9391,3.969,0.0,0.0,4.0457,4.0816,4.0337,4.0576,4.1134,4.1134,4.1583,4.2141,4.2141,4.2451,4.2801,4.2801,4.2921,4.304,4.2861,4.2921,4.2851,4.1882,4.1254,4.0666,0.0,0.0,0.0,0.0,0.0,0.0,0.0,0.0,0.0,0.0,0.0,0.0,0.0,0.0,0.0,3.8633,0.0,0.0,0.0,0.0,0.0,0.0,0.0,0.0,0.0,0.0,0.0,5.4499,5.5327,5.6037,5.6799,5.7509,5.79,5.79,5.79,5.866,6.0114,6.0114,6.0926,6.24,6.24,6.24,6.24,6.24,6.24,6.24,6.24,6.24,6.24,6.24,6.24,6.24,2.5762,0.0,0.0,2.832,0.0,0.0,2.9188,0.0,0.0,3.1809,3.3349,0.0,3.4907,3.6104,3.6896,3.6896,3.7195,0.0,0.0,0.0,0.0,3.7404,3.6716,3.6327,3.6327,3.4981,0.0,3.3365,0.0,0.0,3.0927,3.0927,3.0927,3.1017,0.0,3.3889,0.0,3.6896,3.8272,3.902,3.9601,0.0,0.0,4.0726,4.1254,4.1792,4.1403,4.1523,4.1822,4.1822,4.2271,4.2791,4.2791,4.301,4.329,4.329,4.329,4.329,4.329,4.329,4.322,4.288,4.2521,4.2073,4.1433,4.2065,4.2806,0.0,0.0,0.0,0.0,0.0,0.0,0.0,0.0,0.0,0.0,0.0,0.0,0.0,0.0,0.0,0.0,0.0,0.0,0.0,0.0,0.0,0.0,0.0,0.0,5.3078,5.4499,5.5581,5.6325,5.7036,5.7577,5.79,5.79,5.866,6.0114,6.0114,6.0926,6.24,6.24,6.24,6.24,6.24,6.24,6.24,6.24,6.24,6.24,6.24,6.24,6.24,0.0,0.0,0.0,0.0,0.0,0.0,0.0,3.1293,0.0,3.2536,0.0,3.5709,3.5578,3.6722,3.7524,3.7524,0.0,3.7656,3.7656,3.7656,3.7656,3.7656,3.7656,3.7656,3.7656,3.6985,0.0,0.0,0.0,0.0,3.163,3.154,3.1511,3.154,0.0,0.0,0.0,3.7272,3.8439,3.8751,3.9918,4.0516,4.0726,4.1313,4.1942,4.2511,4.2511,4.2511,4.2511,4.2511,4.288,4.329,4.329,4.329,4.329,4.329,4.329,4.3319,4.3409,4.3429,4.3439,4.3549,4.3579,4.3429,4.29,4.2867,4.3015,4.318,4.3913,4.4731,0.0,0.0,0.0,0.0,0.0,0.0,0.0,0.0,0.0,0.0,0.0,0.0,0.0,0.0,0.0,0.0,0.0,0.0,0.0,0.0,0.0,5.1472,5.3619,5.5006,5.553,0.0,5.7205,5.7764,5.7866,5.866,6.0114,6.0114,6.0926,6.24,6.24,6.24,6.24,6.24,6.24,6.24,6.24,6.24,6.24,6.24,6.24,6.24,0.0,0.0,0.0,0.0,0.0,2.9795,3.1837,3.2542,3.2884,3.3114,3.5427,3.6738,3.5909,3.7263,3.8212,3.8212,3.8721,0.0,0.0,0.0,0.0,3.9062,3.9062,3.9062,3.9062,3.7866,3.6896,0.0,0.0,0.0,3.2303,3.175,3.1511,0.0,0.0,0.0,3.6224,3.7165,0.0,4.0068,4.0307,4.1074,4.2081,4.2171,4.2631,4.313,4.313,4.313,4.313,4.313,4.322,4.329,4.329,4.329,4.329,4.329,4.329,4.3409,4.3967,4.4117,4.4267,4.4825,4.4945,4.4915,4.4825,4.5374,4.5965,4.5998,4.6352,4.6577,4.629,0.0,0.0,0.0,0.0,0.0,0.0,0.0,0.0,0.0,0.0,0.0,0.0,0.0,0.0,0.0,0.0,0.0,0.0,0.0,0.0,0.0,5.4651,0.0,0.0,0.0,5.7476,5.7002,5.7629,5.866,6.0114,6.0114,6.0926,6.24,6.24,6.24,6.24,6.24,6.24,6.24,6.24,6.24,6.24,6.24,6.24,6.24,0.0,0.0,0.0,0.0,0.0,0.0,0.0,3.3089,0.0,3.3321,3.4737,3.5607,3.5113,3.636,3.7473,3.8029,3.8388,3.8815,3.9355,3.9391,3.9391,3.9391,3.9391,0.0,3.9391,3.8763,3.7644,3.5968,0.0,0.0,3.1959,3.166,0.0,3.157,0.0,3.4442,0.0,0.0,0.0,3.996,4.1014,4.1822,4.244,4.275,4.304,4.329,4.329,4.3499,4.3758,4.3429,4.329,4.3349,4.3728,4.3818,4.3878,4.4237,4.4326,4.4416,4.4736,4.4825,4.4915,4.5214,4.5304,4.5304,4.5304,4.5635,4.5951,4.5951,4.6922,4.7784,4.7733,4.6018,0.0,0.0,0.0,0.0,0.0,0.0,0.0,0.0,0.0,0.0,0.0,0.0,0.0,0.0,0.0,0.0,0.0,0.0,0.0,0.0,0.0,0.0,0.0,0.0,0.0,5.7374,5.7712,5.866,6.0114,6.0114,6.0926,6.24,6.24,6.24,6.24,6.24,6.24,6.24,6.24,6.24,6.24,6.24,6.24,6.24,0.0,2.7645,0.0,0.0,2.9808,0.0,3.2257,3.3199,3.3567,3.3285,3.4091,3.4621,3.441,3.5679,3.6885,3.772,3.8013,3.8509,3.9337,3.9391,3.9391,3.9391,3.9391,3.9391,3.9391,3.9391,3.8255,0.0,0.0,0.0,0.0,0.0,0.0,0.0,0.0,0.0,0.0,0.0,3.978,4.0187,4.1762,4.25,4.2631,4.313,4.329,4.3339,4.3439,4.3848,4.4237,4.3848,4.3728,4.3818,4.4356,4.4506,4.4616,4.5155,4.5304,4.5334,4.5484,4.5514,4.5544,4.5693,4.5723,4.5723,4.5723,4.5723,4.5723,4.5723,4.7204,4.8537,4.867,4.7578,0.0,0.0,0.0,0.0,0.0,0.0,0.0,0.0,0.0,0.0,0.0,0.0,0.0,0.0,0.0,0.0,0.0,0.0,0.0,0.0,0.0,5.4566,5.4955,0.0,5.7239,5.7663,5.7832,5.866,6.0114,6.0114,6.0926,6.24,6.24,6.24,6.24,6.24,6.24,6.24,6.24,6.24,6.24,6.24,6.24,6.24,0.0,0.0,0.0,0.0,0.0,0.0,3.2143,3.2765,3.3156,3.3119,3.4807,3.567,3.4758,3.6459,3.7682,3.7805,3.8675,3.9283,3.9373,3.9391,3.9391,3.9391,3.9391,3.9391,3.9391,3.9391,3.8673,0.0,0.0,0.0,0.0,0.0,0.0,0.0,0.0,0.0,0.0,3.9679,4.1014,4.2141,4.2321,4.275,4.322,4.326,4.329,4.3399,4.3997,4.4237,4.4386,4.4915,4.5095,4.5125,4.5185,4.5214,4.5214,4.5274,4.5304,4.5424,4.6031,4.6211,4.636,4.698,4.713,4.713,4.713,4.713,4.713,4.713,4.8219,4.89,4.7901,4.8785,4.9018,0.0,0.0,0.0,0.0,0.0,0.0,0.0,0.0,0.0,0.0,0.0,0.0,0.0,0.0,0.0,0.0,0.0,0.0,5.1133,0.0,5.3281,5.2638,5.6055,5.7476,5.69,5.7577,5.866,6.0114,6.0114,6.0926,6.24,6.24,6.24,6.24,6.24,6.24,6.24,6.24,6.24,6.24,6.24,6.24,6.24,0.0,0.0,0.0,0.0,0.0,0.0,0.0,3.2939,3.309,3.309,3.3827,3.4199,3.3763,3.4491,3.5358,3.634,3.7428,3.8505,3.9469,4.0192,4.0606,4.0606,4.0217,4.0008,4.0008,3.9601,3.8733,0.0,0.0,0.0,0.0,0.0,0.0,0.0,0.0,3.8542,3.911,4.0864,4.1912,4.244,4.2791,4.307,4.3349,4.3758,4.3908,4.3997,4.4676,4.5155,4.5523,4.5792,4.5633,4.5364,4.5762,4.5882,4.5992,4.6381,4.6501,4.6561,4.683,4.6899,4.6958,4.7249,4.7309,4.7309,4.7309,4.7309,4.7309,4.7309,4.8705,5.0195,5.1009,5.0552,5.0117,0.0,0.0,0.0,0.0,0.0,0.0,0.0,0.0,0.0,0.0,0.0,0.0,0.0,0.0,0.0,0.0,0.0,0.0,4.9172,0.0,5.4245,5.3044,5.6258,5.7764,5.7442,5.7764,5.866,6.0114,6.0114,6.0926,6.24,6.24,6.24,6.24,6.24,6.24,6.24,6.24,6.24,6.24,6.24,6.24,6.24,3.1612,0.0,3.1386,0.0,3.2139,3.2236,3.319,3.3341,3.3391,3.3567,3.3571,3.3517,3.3366,3.377,3.4517,3.5652,3.7078,3.8384,3.9547,4.0732,4.1403,4.1403,4.0954,0.0,4.0696,4.0217,3.9511,3.8571,3.7764,0.0,0.0,0.0,0.0,0.0,3.92,4.0098,4.0397,4.2002,4.2661,4.269,4.313,4.3429,4.3668,4.4117,4.4416,4.4676,4.5364,4.5882,4.633,4.654,4.6292,4.5963,4.642,4.66,4.6689,4.716,4.7309,4.7309,4.7309,4.7309,4.7309,4.7309,4.7309,4.7309,4.7309,4.7309,4.7473,4.8072,4.9595,5.1392,5.3161,5.2198,5.1285,5.1894,0.0,0.0,0.0,0.0,0.0,0.0,0.0,4.7582,4.8462,0.0,0.0,0.0,0.0,0.0,0.0,0.0,0.0,0.0,0.0,0.0,0.0,5.6427,5.79,5.79,5.79,5.866,6.0114,6.0554,6.1366,6.24,6.24,6.24,6.24,6.24,6.24,6.24,6.24,6.24,6.24,6.24,6.24,6.24,3.2089,3.219,3.2365,3.2989,3.309,3.3266,3.3796,3.3897,3.4098,3.4603,3.4678,3.4477,3.3947,3.5291,3.6257,3.6305,3.8303,3.9567,3.9616,4.0732,4.1403,0.0,0.0,4.1403,4.1403,4.1373,4.1373,4.1343,0.0,0.0,3.9331,0.0,3.8721,3.9421,4.0756,4.1733,4.241,4.301,4.329,4.329,4.329,4.3698,4.4296,4.4296,4.4706,4.5364,4.6031,4.63,4.639,4.7048,4.7279,4.7279,4.7309,4.7309,4.7309,4.7309,4.7309,4.7309,4.7309,4.7309,4.7309,4.7309,4.7309,4.7309,4.7309,4.7309,4.7892,4.9931,5.1173,5.2223,5.3314,5.3484,5.2976,5.1472,0.0,0.0,0.0,0.0,0.0,0.0,4.7496,4.6887,4.9778,0.0,0.0,0.0,0.0,0.0,0.0,0.0,0.0,5.11,5.2689,0.0,5.3518,5.6427,5.79,5.79,5.79,5.866,6.0148,6.167,6.24,6.24,6.24,6.24,6.24,6.24,6.24,6.24,6.24,6.24,6.24,6.24,6.24,6.24,3.2788,3.2792,3.2989,3.3567,3.3668,3.3822,3.4352,3.4427,3.4502,3.4678,3.5029,3.5182,3.5029,3.5119,3.5344,0.0,3.786,3.9005,0.0,4.1175,4.2337,4.156,4.1882,4.2081,4.2081,4.1643,4.1403,4.1403,0.0,0.0,0.0,4.0325,4.0804,4.1493,4.2312,4.2801,4.301,4.322,4.3579,4.3997,4.3997,4.4386,4.5035,4.5493,4.5792,4.6061,4.6719,4.6958,4.6988,4.7249,4.7309,4.7309,4.7309,4.7309,4.7309,4.7309,4.7309,4.7309,4.7309,4.7309,4.7309,4.7309,4.7309,4.7309,4.7309,4.7849,4.8718,5.0107,5.1192,5.2241,5.3314,5.3518,5.3348,5.2841,5.3179,0.0,0.0,0.0,0.0,0.0,4.7192,4.665,0.0,4.6244,0.0,0.0,0.0,0.0,0.0,0.0,0.0,0.0,5.3129,0.0,5.4262,5.6681,5.79,5.79,5.79,5.866,6.0148,6.1724,6.24,6.24,6.24,6.24,6.24,6.24,6.24,6.24,6.24,6.24,6.24,6.24,6.24,6.24,3.3646,3.3696,3.3796,3.4148,3.4198,3.4377,3.4929,3.5004,3.5079,3.5303,3.5629,3.5832,3.5832,3.5554,0.0,3.583,3.758,3.8485,3.8126,4.0547,4.1906,4.1608,4.1915,4.2308,4.2731,4.2312,0.0,4.2102,4.1713,4.1485,4.1485,4.1923,4.2342,4.275,4.313,4.3459,4.3698,4.3698,4.4057,4.4676,4.4676,4.5095,4.5723,4.6151,4.645,4.6719,4.716,4.7309,4.7309,4.7309,4.7309,4.7309,4.7309,4.7309,4.7309,4.7309,4.7309,4.7309,4.7309,4.7309,4.7309,4.7309,4.7309,4.7309,4.7309,4.8093,4.9094,5.0184,5.1192,5.2241,5.3314,5.3518,5.3518,5.3518,5.3518,5.3315,5.2723,0.0,0.0,0.0,0.0,0.0,0.0,4.7748,4.7597,0.0,0.0,0.0,0.0,0.0,0.0,5.1048,5.4076,0.0,5.5412,5.707,5.79,5.79,5.8475,5.937,6.0588,6.1806,6.24,6.24,6.24,6.24,6.24,6.24,6.24,6.24,6.24,6.24,6.24,6.24,6.24,6.24,3.4603,3.4703,3.4703,0.0,3.4753,0.0,3.5483,3.5558,3.5757,3.6331,3.6405,3.6405,3.6405,3.6405,3.6406,3.6431,0.0,0.0,0.0,3.9249,4.0447,4.1441,4.1629,4.2193,4.327,4.329,4.329,4.329,4.329,4.329,4.329,4.329,4.3319,4.3349,4.3349,4.3758,4.4356,4.4356,4.4766,4.5364,4.5364,4.5783,4.636,4.636,4.6749,4.7309,4.7309,4.7309,4.7309,4.7309,4.7309,4.7309,4.7309,4.7309,4.7309,4.7309,4.7309,4.7309,4.7309,4.7309,4.7309,4.7309,4.7309,4.7309,4.7309,4.8093,4.9074,5.0087,5.108,5.2101,5.3179,5.3382,5.3399,5.3501,5.345,5.2909,5.1404,0.0,0.0,0.0,0.0,0.0,0.0,5.0184,5.1014,0.0,0.0,0.0,0.0,0.0,5.0186,5.4532,5.5395,5.6139,5.6867,5.7561,5.7934,5.7983,5.9404,6.052,6.1332,6.2042,6.24,6.24,6.24,6.24,6.24,6.24,6.24,6.24,6.24,6.24,6.24,6.24,6.24,6.24,0.0,0.0,3.4828,3.5232,3.5307,3.5506,3.6105,3.6205,3.623,3.638,3.6405,3.6405,3.6405,3.6405,3.6557,3.6984,3.7684,3.7746,3.6873,3.9552,4.0937,4.0318,4.1968,4.3021,4.329,4.329,4.329,4.329,4.329,4.329,4.329,4.329,4.3579,4.4057,4.4057,4.4436,4.5065,4.5065,4.5454,4.6061,4.6061,4.645,4.7048,4.7048,4.716,4.7309,4.7309,4.7309,4.7309,4.7309,4.7309,4.7309,4.7309,4.7309,4.7309,4.7309,4.7309,4.7309,4.7309,4.7309,4.7309,4.7309,4.7309,4.7309,4.7309,4.8093,4.8851,4.9114,5.0029,5.1061,5.2098,5.2277,5.2557,5.3365,5.2976,5.2266,5.1336,5.071,0.0,0.0,4.8732,4.9323,5.0795,5.093,5.0947,0.0,0.0,0.0,0.0,5.1438,5.2536,5.5327,5.6139,5.69,5.7629,5.7832,5.8186,5.8761,5.9674,6.052,6.1332,6.2042,6.24,6.24,6.24,6.24,6.24,6.24,6.24,6.24,6.24,6.24,6.24,6.24,6.24,6.24,3.5429,3.5479,3.5554,3.5855,3.5906,3.6006,3.6331,3.6405,3.6505,3.6733,3.6758,3.6859,3.711,3.7135,3.7261,3.7538,3.7632,3.7546,3.7158,3.8899,3.9925,3.9866,4.1046,4.2217,4.3327,4.3348,4.3617,4.4207,4.4207,4.4207,4.4207,4.4207,4.4416,4.4766,4.4766,4.5125,4.5753,4.5753,4.6121,4.6749,4.6749,4.698,4.7309,4.7309,4.7309,4.7309,4.7309,4.7309,4.7309,4.7309,4.7309,4.7309,4.7309,4.7309,4.7309,4.7309,4.7309,4.7309,4.7309,4.7309,4.7309,4.7309,4.7309,4.7309,4.7309,4.7722,4.8231,4.8718,4.9256,5.0145,5.1616,5.1903,5.2259,5.3331,5.2841,5.2063,5.1302,5.0574,0.0,5.0033,5.0033,5.0592,5.2114,5.2249,5.2097,5.1691,5.2334,0.0,5.2739,5.3788,5.4938,5.6139,5.6596,5.7137,5.79,5.79,5.8423,5.9487,5.9911,6.0689,6.1806,6.2231,6.24,6.24,6.24,6.24,6.24,6.24,6.24,6.24,6.24,6.24,6.24,6.24,6.24,6.24,3.6306,3.6405,3.6405,3.6405,3.648,3.6531,3.6531,3.6582,3.6808,3.7261,3.7336,3.7487,3.7965,3.8015,3.804,3.814,3.7713,3.7588,3.799,3.8162,3.8724,3.9757,4.016,4.1292,4.335,4.3596,4.4227,4.5304,4.5304,4.5304,4.5304,4.5304,4.5334,4.5454,4.5454,4.5822,4.645,4.645,4.6779,4.7309,4.7309,4.7309,4.7309,4.7309,4.7309,4.7309,4.7309,4.7309,4.7309,4.7309,4.7309,4.7309,4.7309,4.7309,4.7309,4.7309,4.7309,4.7309,4.7309,4.7309,4.7309,4.7309,4.7309,4.7309,4.7309,4.7309,4.7559,4.8418,4.8697,4.9396,5.1322,5.1813,5.2226,5.3163,5.2672,5.1894,5.1133,0.0,5.0507,5.1133,5.1404,5.2046,5.3382,5.3585,5.3687,5.3687,5.4329,5.4803,5.4922,5.6122,5.6867,5.6968,5.6968,5.7273,5.79,5.8035,5.8761,6.0114,6.0216,6.1028,6.24,6.24,6.24,6.24,6.24,6.24,6.24,6.24,6.24,6.24,6.24,6.24,6.24,6.24,6.24,6.24,3.638,3.6405,3.6405,3.6405,3.6758,3.7085,3.7085,3.7462,3.7789,3.7864,3.7889,3.7914,3.799,3.8015,3.8216,3.8718,3.8693,3.8467,3.804,3.8943,3.959,3.9781,4.1771,4.3022,4.3394,4.444,4.5108,4.5304,4.5304,4.5304,4.5304,4.5304,4.5603,4.6151,4.6151,4.651,4.7138,4.7138,4.7219,4.7309,4.7309,4.7309,4.7309,4.7309,4.7309,4.7309,4.7309,4.7309,4.7309,4.7309,4.7309,4.7309,4.7309,4.7309,4.7309,4.7309,4.7309,4.7309,4.7309,4.7309,4.7309,4.7309,4.7309,4.7309,4.7309,4.7309,4.7352,4.7495,4.8189,4.9175,5.0416,5.1322,5.2027,5.2421,5.186,5.11,5.0371,0.0,5.1066,5.1201,5.2351,5.3247,5.3484,5.4059,5.4431,5.4431,5.5108,5.58,5.6427,5.6697,5.7103,5.7712,5.7712,5.778,5.79,5.8524,5.9268,6.0114,6.0791,6.1569,6.24,6.24,6.24,6.24,6.24,6.24,6.24,6.24,6.24,6.24,6.24,6.24,6.24,6.24,6.24,6.24,3.6405,3.6632,3.6833,3.6833,3.7286,3.7638,3.7638,3.7839,3.8115,3.8442,3.8467,3.8592,3.8894,3.8919,3.9019,3.9321,3.9346,3.9195,3.8944,3.9447,3.9746,3.9746,4.0824,4.2038,4.3408,4.4702,4.5701,4.6381,4.6381,4.6381,4.6381,4.6381,4.6531,4.6839,4.6839,4.6988,4.7309,4.7309,4.7309,4.7309,4.7309,4.7309,4.7309,4.7309,4.7309,4.7309,4.7309,4.7309,4.7309,4.7309,4.7309,4.7309,4.7309,4.7309,4.7369,4.7728,4.7578,4.7309,4.7309,4.7309,4.7309,4.7309,4.7309,4.7309,4.7309,4.7309,4.7309,4.7309,4.8115,4.9114,5.0204,5.1211,5.1994,5.2252,5.2029,0.0,0.0,5.1589,5.1945,5.2385,5.3416,5.4093,5.4093,5.4769,5.5209,5.5209,5.5886,5.6461,5.6799,5.7171,5.7543,5.79,5.79,5.8084,5.849,5.881,5.9588,6.0757,6.1129,6.167,6.24,6.24,6.24,6.24,6.24,6.24,6.24,6.24,6.24,6.24,6.24,6.24,6.24,6.24,6.24,6.24,3.6758,3.711,3.7411,3.7411,3.7839,3.8216,3.8216,3.8316,3.8567,3.9044,3.9095,3.9245,3.9647,3.9697,3.9697,3.9697,3.9697,3.9697,3.9697,3.9697,3.9697,3.9697,3.9981,4.1344,4.3882,4.4909,4.6032,4.7309,4.7309,4.7309,4.7309,4.7309,4.7309,4.7309,4.7309,4.7309,4.7309,4.7309,4.7309,4.7309,4.7309,4.7309,4.7309,4.7309,4.7309,4.7309,4.7309,4.7309,4.7309,4.7309,4.7309,4.7339,4.7489,4.7549,4.7668,4.8349,4.8169,4.7758,4.7758,4.7758,4.7758,4.7758,4.7758,4.7758,4.7758,4.7758,4.7758,4.7758,4.8774,4.9907,5.0741,5.1937,5.2773,5.2825,0.0,0.0,0.0,5.2841,5.3145,5.3923,5.4499,5.4871,5.4871,5.5513,5.5969,5.5969,5.663,5.707,5.707,5.7577,5.79,5.79,5.79,5.8254,5.8979,5.9148,5.9926,6.1298,6.1467,6.1839,6.24,6.24,6.24,6.24,6.24,6.24,6.24,6.24,6.24,6.24,6.24,6.24,6.24,6.24,6.24,6.24,3.7889,3.7914,3.7939,3.7939,3.8441,3.8843,3.8843,3.9271,3.9597,3.9622,3.9647,3.9647,3.9697,3.9697,3.9697,3.9697,3.9697,3.9697,3.9697,3.9697,3.9697,3.9697,4.0844,4.2641,4.5207,4.5343,4.6032,4.7309,4.7309,4.7309,4.7309,4.7309,4.7309,4.7309,4.7309,4.7309,4.7309,4.7309,4.7309,4.7309,4.7309,4.7309,4.7309,4.7309,4.7309,4.7309,4.7309,4.7309,4.7309,4.7309,4.7309,4.7429,4.8027,4.8229,4.8379,4.9037,4.9187,4.9157,4.9157,4.9157,4.9157,4.9157,4.9157,4.9157,4.9157,4.9157,4.9157,4.9157,5.0795,5.2257,5.2337,5.4024,5.5189,5.4532,0.0,0.0,5.4448,5.4448,5.4702,5.5462,5.5597,5.5631,5.5631,5.6274,5.6731,5.6731,5.7408,5.7832,5.7832,5.7866,5.79,5.79,5.79,5.8254,5.8979,5.9674,6.0452,6.1298,6.1975,6.2367,6.24,6.24,6.24,6.24,6.24,6.24,6.24,6.24,6.24,6.24,6.24,6.24,6.24,6.24,6.24,6.24,3.8015,3.8291,3.8567,3.8567,3.9019,3.9396,3.9396,3.9572,3.9697,3.9697,3.9697,3.9697,3.9697,3.9697,3.9697,3.9697,3.9697,3.9697,3.9697,3.9697,3.9697,3.9697,4.016,4.1591,4.4163,4.421,4.5229,4.7309,4.7309,4.7309,4.7309,4.7309,4.7309,4.7309,4.7309,4.7309,4.7309,4.7309,4.7309,4.7309,4.7309,4.7309,4.7309,4.7309,4.7309,4.7309,4.7309,4.7309,4.7369,4.7788,4.7908,4.8027,4.8708,4.8917,4.9037,4.9673,5.0152,5.0481,5.0481,4.9905,4.9277,4.9277,4.9277,4.9277,4.9277,4.9277,4.9277,4.9277,5.0436,5.1663,5.2376,5.3684,5.4634,5.4615,0.0,5.5108,5.4668,5.5006,5.5395,5.5665,5.6105,5.6393,5.6393,5.7036,5.7476,5.7476,5.773,5.79,5.79,5.79,5.8084,5.8558,5.8592,5.893,5.9674,6.0452,6.1231,6.1975,6.2245,6.24,6.24,6.24,6.24,6.24,6.24,6.24,6.24,6.24,6.24,6.24,6.24,6.24,6.24,6.24,6.24,6.24,3.8542,3.8868,3.9145,3.9145,3.9472,3.9697,3.9697,3.9697,3.9697,3.9697,3.9697,3.9697,3.9697,3.9697,3.9697,3.9697,3.9697,3.9697,3.9697,3.9697,3.9697,3.9697,4.0083,4.1294,4.3456,4.3882,4.5161,4.7309,4.7309,4.7309,4.7309,4.7309,4.7309,4.7309,4.7309,4.7309,4.7309,4.7309,4.7309,4.7309,4.7309,4.7309,4.7309,4.7309,4.7309,4.7339,4.7549,4.7608,4.7728,4.8409,4.8618,4.8738,4.9396,4.9726,4.9972,5.0398,5.0847,5.1206,5.1206,5.0571,4.9905,4.9905,4.9905,4.9905,4.9905,4.9905,4.9905,4.9905,5.1015,5.224,5.3027,5.4299,5.5314,5.5577,5.6055,5.6224,5.57,5.6055,5.6375,5.6375,5.6833,5.7137,5.7137,5.7577,5.79,5.79,5.79,5.8001,5.822,5.8254,5.8592,5.9317,5.9588,5.9979,6.0486,6.1028,6.167,6.24,6.24,6.24,6.24,6.24,6.24,6.24,6.24,6.24,6.24,6.24,6.24,6.24,6.24,6.24,6.24,6.24,6.24,6.24,3.9697,3.9697,3.9697,3.9697,3.9697,3.9697,3.9697,3.9697,3.9697,3.9697,3.9697,3.9697,3.9697,3.9697,3.9697,3.9697,3.9697,3.9697,3.9697,3.9697,3.9697,3.9697,4.092,4.2206,4.348,4.4748,4.6003,4.7309,4.7309,4.7309,4.7309,4.7309,4.7309,4.7309,4.7309,4.7309,4.7309,4.7309,4.7309,4.7309,4.7309,4.7309,4.7309,4.7309,4.7309,4.7399,4.8079,4.8319,4.8409,4.9067,4.9307,4.9396,5.0009,5.0667,5.1206,5.1206,5.1206,5.1206,5.1206,5.1206,5.1206,5.1206,5.1206,5.1206,5.1206,5.1206,5.1206,5.1229,5.3011,5.4589,5.461,5.6412,5.7881,5.79,5.79,5.79,5.79,5.79,5.79,5.79,5.79,5.79,5.79,5.79,5.79,5.79,5.79,5.822,5.8945,5.9013,5.9351,6.008,6.0892,6.1298,6.1298,6.1298,6.167,6.24,6.24,6.24,6.24,6.24,6.24,6.24,6.24,6.24,6.24,6.24,6.24,6.24,6.24,6.24,6.24,6.24,6.24,6.24,3.9697,3.9697,3.9697,3.9697,3.9697,3.9697,3.9697,3.9697,3.9697,3.9697,3.9697,3.9697,3.9697,3.9697,3.9697,3.9697,3.9697,3.9697,3.9697,3.9697,3.9697,3.9697,4.0057,4.1294,4.3456,4.3882,4.5138,4.7309,4.7309,4.7309,4.7309,4.7309,4.7309,4.7309,4.7309,4.7309,4.7309,4.7309,4.7309,4.7309,4.7309,4.7309,4.7369,4.7818,4.7997,4.8087,4.8768,4.9007,4.9097,4.9733,4.992,5.0039,5.0697,5.1026,5.1206,5.1206,5.1206,5.1206,5.1206,5.1206,5.1206,5.1206,5.1206,5.1206,5.1206,5.1206,5.1433,5.2245,5.2923,5.3892,5.5438,5.6263,5.6982,5.779,5.79,5.79,5.79,5.79,5.79,5.79,5.79,5.79,5.79,5.79,5.79,5.79,5.8389,5.8795,5.8979,5.9487,6.0148,6.0926,6.1163,6.1535,6.2076,6.2076,6.2178,6.24,6.24,6.24,6.24,6.24,6.24,6.24,6.24,6.24,6.24,6.24,6.24,6.24,6.24,6.24,6.24,6.24,6.24,6.24,3.9697,3.9697,3.9697,3.9697,3.9697,3.9697,3.9697,3.9697,3.9697,3.9697,3.9697,3.9697,3.9697,3.9697,3.9697,3.9697,3.9697,3.9697,3.9697,3.9697,3.9697,3.9697,3.9697,4.0642,4.2689,4.374,4.4771,4.5801,4.6792,4.704,4.6572,4.7062,4.7309,4.7309,4.7309,4.7309,4.7309,4.7309,4.7309,4.7339,4.7578,4.7698,4.7758,4.8438,4.8708,4.8768,4.9404,4.9643,4.9733,5.0368,5.0607,5.0667,5.1056,5.1206,5.1206,5.1206,5.1206,5.1206,5.1206,5.1206,5.1206,5.1206,5.1206,5.1206,5.1206,5.1206,5.1409,5.2086,5.2945,5.3999,5.5316,5.6263,5.7095,5.779,5.79,5.79,5.79,5.79,5.79,5.79,5.79,5.79,5.79,5.79,5.8017,5.8321,5.9032,5.9554,5.9892,6.0317,6.0926,6.1704,6.1738,6.1941,6.24,6.24,6.24,6.24,6.24,6.24,6.24,6.24,6.24,6.24,6.24,6.24,6.24,6.24,6.24,6.24,6.24,6.24,6.24,6.24,6.24,6.24,3.9697,3.9697,3.9697,3.9697,3.9697,3.9697,3.9697,3.9697,3.9697,3.9697,3.9697,3.9697,3.9697,3.9697,3.9697,3.9697,3.9697,3.9697,3.9697,3.9697,3.9697,3.9697,3.9697,4.0236,4.1419,4.3811,4.4581,4.3669,4.5981,4.6594,4.5598,4.6748,4.7309,4.7309,4.7309,4.7309,4.7309,4.7309,4.7339,4.7429,4.8027,4.8349,4.8468,4.9127,4.9366,4.9456,5.0069,5.0285,5.0375,5.0996,5.1206,5.1206,5.1206,5.1206,5.1206,5.1206,5.1206,5.1206,5.1206,5.1206,5.1206,5.1206,5.1206,5.1206,5.1206,5.1206,5.1276,5.1479,5.3165,5.4672,5.4858,5.6528,5.79,5.79,5.79,5.79,5.79,5.79,5.7915,5.7983,5.8001,5.8017,5.8103,5.8103,5.8389,5.9047,5.981,6.052,6.1264,6.1366,6.1704,6.24,6.24,6.24,6.24,6.24,6.24,6.24,6.24,6.24,6.24,6.24,6.24,6.24,6.24,6.24,6.24,6.24,6.24,6.24,6.24,6.24,6.24,6.24,6.24,6.24,3.9697,3.9697,3.9697,3.9697,3.9697,3.9697,3.9697,3.9697,3.9697,3.9697,3.9697,3.9697,3.9697,3.9697,3.9697,3.9697,3.9697,3.9697,3.9697,3.9697,3.9697,3.9697,3.9697,3.9826,4.0109,4.1616,4.3266,4.5001,4.5553,4.6188,4.6909,4.7149,4.7309,4.7309,4.7309,4.7309,4.7309,4.7309,4.7608,4.8087,4.8259,4.8618,4.9157,4.9793,5.0009,5.0099,5.0757,5.0996,5.0996,5.1146,5.1206,5.1206,5.1206,5.1206,5.1206,5.1206,5.1206,5.1206,5.1206,5.1206,5.1206,5.1206,5.1206,5.1206,5.1206,5.1206,5.1704,5.3483,5.4253,5.5125,5.6868,5.7572,5.79,5.79,5.79,5.79,5.79,5.79,5.8118,5.8693,5.8743,5.8998,5.9573,5.9607,5.9674,5.9844,6.0588,6.1129,6.1298,6.1839,6.2212,6.2381,6.24,6.24,6.24,6.24,6.24,6.24,6.24,6.24,6.24,6.24,6.24,6.24,6.24,6.24,6.24,6.24,6.24,6.24,6.24,6.24,6.24,6.24,6.24,6.24,3.9697,3.9697,3.9697,3.9697,3.9697,3.9697,3.9697,3.9697,3.9697,3.9697,3.9697,3.9697,3.9697,3.9697,3.9697,3.9697,3.9697,3.9697,3.9697,3.9697,3.9697,3.9697,3.9697,3.9697,3.9697,4.0338,4.164,4.3598,4.4817,4.5734,4.6388,4.7019,4.7309,4.7309,4.7309,4.7489,4.7788,4.7788,4.8147,4.8798,4.9105,4.9434,4.9793,5.0428,5.0697,5.0727,5.1056,5.1206,5.1206,5.1206,5.1206,5.1206,5.1206,5.1206,5.1206,5.1206,5.1206,5.1206,5.1206,5.1206,5.1206,5.1206,5.1206,5.1206,5.1206,5.1206,5.1704,5.3418,5.4232,5.5125,5.6792,5.7536,5.8035,5.8355,5.8423,5.8558,5.8896,5.893,5.9099,5.9471,5.952,5.9674,6.0047,6.0452,6.0655,6.0655,6.14,6.1806,6.1806,6.2178,6.24,6.24,6.24,6.24,6.24,6.24,6.24,6.24,6.24,6.24,6.24,6.24,6.24,6.24,6.24,6.24,6.24,6.24,6.24,6.24,6.24,6.24,6.24,6.24,6.24,6.24,3.9697,3.9697,3.9697,3.9697,3.9697,3.9697,3.9697,3.9697,3.9697,3.9697,3.9697,3.9697,3.9697,3.9697,3.9697,3.9697,3.9697,3.9697,3.9697,3.9697,3.9697,3.9697,3.9697,3.9697,3.9697,3.9697,4.044,4.1912,4.4046,4.5298,4.5756,4.6792,4.7369,4.7489,4.7489,4.7848,4.8468,4.8468,4.8858,4.9516,5.0009,5.0278,5.0435,5.0996,5.1206,5.1206,5.1206,5.1206,5.1206,5.1206,5.1206,5.1206,5.1206,5.1206,5.1206,5.1206,5.1206,5.1206,5.1206,5.1206,5.1206,5.1206,5.1295,5.1355,5.1355,5.143,5.1849,5.3122,5.4295,5.5454,5.6645,5.7647,5.849,5.9081,5.9182,5.9385,6.0013,6.0114,6.0148,6.0283,6.0419,6.0486,6.0486,6.1095,6.1501,6.1501,6.2042,6.24,6.24,6.24,6.24,6.24,6.24,6.24,6.24,6.24,6.24,6.24,6.24,6.24,6.24,6.24,6.24,6.24,6.24,6.24,6.24,6.24,6.24,6.24,6.24,6.24,6.24,6.24,6.24,6.24,3.9697,3.9697,3.9697,3.9697,3.9697,3.9697,3.9697,3.9697,3.9697,3.9697,3.9697,3.9697,3.9697,3.9697,3.9697,3.9697,3.9697,3.9697,3.9697,3.9697,3.9697,3.9697,3.9697,3.9697,3.9697,3.9697,4.0869,4.3242,4.3598,4.4886,4.704,4.7222,4.7608,4.8147,4.8147,4.8528,4.9157,4.9157,4.9523,5.0099,5.0166,5.0548,5.1056,5.1176,5.1206,5.1206,5.1206,5.1206,5.1206,5.1206,5.1206,5.1206,5.1206,5.1206,5.1206,5.1206,5.1206,5.1206,5.1206,5.1206,5.1206,5.1206,5.1648,5.2067,5.2067,5.2375,5.3166,5.4962,5.6228,5.7529,5.9261,5.9682,5.9844,5.9945,5.9945,5.9979,6.008,6.0114,6.0351,6.1061,6.1704,6.2096,6.2096,6.2197,6.2245,6.2245,6.2347,6.24,6.24,6.24,6.24,6.24,6.24,6.24,6.24,6.24,6.24,6.24,6.24,6.24,6.24,6.24,6.24,6.24,6.24,6.24,6.24,6.24,6.24,6.24,6.24,6.24,6.24,6.24,6.24,6.24,3.9697,3.9697,3.9697,3.9697,3.9697,3.9697,3.9697,3.9697,3.9697,3.9697,3.9973,4.0149,4.0149,4.0399,4.0575,4.0575,4.0575,4.0449,4.0174,4.0149,4.0023,3.9697,3.9697,3.9848,4.0149,4.0149,4.1593,4.4498,4.3835,4.5011,4.7848,4.7848,4.8229,4.8858,4.8858,4.9194,4.9793,4.9793,5.0159,5.0757,5.0757,5.0936,5.1206,5.1206,5.1206,5.1206,5.1206,5.1206,5.1206,5.1206,5.1206,5.1206,5.1206,5.1206,5.1206,5.1206,5.1206,5.1265,5.1678,5.1768,5.1858,5.2217,5.2546,5.2755,5.2755,5.3922,5.5265,5.6071,5.7202,5.8462,5.9842,6.0114,6.025,6.0689,6.0757,6.0926,6.1332,6.1366,6.1501,6.1873,6.2178,6.24,6.24,6.24,6.24,6.24,6.24,6.24,6.24,6.24,6.24,6.24,6.24,6.24,6.24,6.24,6.24,6.24,6.24,6.24,6.24,6.24,6.24,6.24,6.24,6.24,6.24,6.24,6.24,6.24,6.24,6.24,6.24,6.24,6.24,6.24]},{"header":{"parameterUnit":"m.s-1","parameterCategory":1,"la1":30.6,"la2":28.766,"lo1":-90.7593,"lo2":-88.6598,"dy":0.0162,"dx":0.0183,"nx":116,"ny":114,"refTime":"2024-03-23T12:00:00:Z","depth":0,"parameterNumber":3,"parameterNumberName":"V-component_of_WINDS"},"data":[0.0,0.0,0.0,0.0,0.0,0.0,0.0,0.0,0.0,0.0,0.0,0.0,0.0,0.0,0.0,0.0,0.0,0.0,0.0,0.0,0.0,0.0,0.0,0.0,0.0,0.0,0.0,0.0,0.0,0.0,0.0,0.0,0.0,0.0,0.0,0.0,0.0,0.0,0.0,0.0,0.0,0.0,0.0,0.0,0.0,0.0,0.0,0.0,0.0,0.0,0.0,0.0,0.0,0.0,0.0,0.0,0.0,0.0,0.0,0.0,0.0,0.0,0.0,0.0,0.0,0.0,0.0,0.0,0.0,0.0,0.0,0.0,0.0,0.0,0.0,0.0,0.0,0.0,0.0,0.0,0.0,0.0,0.0,0.0,0.0,0.0,0.0,0.0,0.0,0.0,0.0,0.0,0.0,0.0,0.0,0.0,0.0,0.0,0.0,0.0,0.0,0.0,0.0,0.0,0.0,0.0,0.0,0.0,0.0,0.0,0.0,0.0,0.0,0.0,0.0,0.0,0.0,0.0,0.0,0.0,0.0,0.0,0.0,0.0,0.0,0.0,0.0,0.0,0.0,0.0,0.0,0.0,0.0,0.0,0.0,0.0,0.0,0.0,0.0,0.0,0.0,0.0,0.0,0.0,0.0,0.0,0.0,0.0,0.0,0.0,0.0,0.0,0.0,0.0,0.0,0.0,0.0,0.0,0.0,0.0,0.0,0.0,0.0,0.0,0.0,0.0,0.0,0.0,0.0,0.0,0.0,0.0,0.0,0.0,0.0,0.0,0.0,0.0,0.0,0.0,0.0,0.0,0.0,0.0,0.0,0.0,0.0,0.0,0.0,0.0,0.0,0.0,0.0,0.0,0.0,0.0,0.0,0.0,0.0,0.0,0.0,0.0,0.0,0.0,0.0,0.0,0.0,0.0,0.0,0.0,0.0,0.0,0.0,0.0,0.0,0.0,0.0,0.0,0.0,0.0,0.0,0.0,0.0,0.0,0.0,0.0,0.0,0.0,0.0,0.0,0.0,0.0,0.0,0.0,0.0,0.0,0.0,0.0,0.0,0.0,0.0,0.0,0.0,0.0,0.0,0.0,0.0,0.0,0.0,0.0,0.0,0.0,0.0,0.0,0.0,0.0,0.0,0.0,0.0,0.0,0.0,0.0,0.0,0.0,0.0,0.0,0.0,0.0,0.0,0.0,0.0,0.0,0.0,0.0,0.0,0.0,0.0,0.0,0.0,0.0,0.0,0.0,0.0,0.0,0.0,0.0,0.0,0.0,0.0,0.0,0.0,0.0,0.0,0.0,0.0,0.0,0.0,0.0,0.0,0.0,0.0,0.0,0.0,0.0,0.0,0.0,0.0,0.0,0.0,0.0,0.0,0.0,0.0,0.0,0.0,0.0,0.0,0.0,0.0,0.0,0.0,0.0,0.0,0.0,0.0,0.0,0.0,0.0,0.0,0.0,0.0,0.0,0.0,0.0,0.0,0.0,0.0,0.0,0.0,0.0,0.0,0.0,0.0,0.0,0.0,0.0,0.0,0.0,0.0,0.0,0.0,0.0,0.0,0.0,0.0,0.0,0.0,0.0,0.0,0.0,0.0,0.0,0.0,0.0,0.0,0.0,0.0,0.0,0.0,0.0,0.0,0.0,0.0,0.0,0.0,0.0,0.0,0.0,0.0,0.0,0.0,0.0,0.0,0.0,0.0,0.0,0.0,0.0,0.0,0.0,0.0,0.0,0.0,0.0,0.0,0.0,0.0,0.0,0.0,0.0,0.0,0.0,0.0,0.0,0.0,0.0,0.0,0.0,0.0,0.0,0.0,0.0,0.0,0.0,0.0,0.0,0.0,0.0,0.0,0.0,0.0,0.0,0.0,0.0,0.0,0.0,0.0,0.0,0.0,0.0,0.0,0.0,0.0,0.0,0.0,0.0,0.0,0.0,0.0,0.0,0.0,0.0,0.0,0.0,0.0,0.0,0.0,0.0,0.0,0.0,0.0,0.0,0.0,0.0,0.0,0.0,0.0,0.0,0.0,0.0,0.0,0.0,0.0,0.0,0.0,0.0,0.0,0.0,0.0,0.0,0.0,0.0,0.0,0.0,0.0,0.0,0.0,0.0,0.0,0.0,0.0,0.0,0.0,0.0,0.0,0.0,0.0,0.0,0.0,0.0,0.0,0.0,0.0,0.0,0.0,0.0,0.0,0.0,0.0,0.0,0.0,0.0,0.0,0.0,0.0,0.0,0.0,0.0,0.0,0.0,0.0,0.0,0.0,0.0,0.0,0.0,0.0,0.0,0.0,0.0,0.0,0.0,0.0,0.0,0.0,0.0,0.0,0.0,0.0,0.0,0.0,0.0,0.0,0.0,0.0,0.0,0.0,0.0,0.0,0.0,0.0,0.0,0.0,0.0,0.0,0.0,0.0,0.0,0.0,0.0,0.0,0.0,0.0,0.0,0.0,0.0,0.0,0.0,0.0,0.0,0.0,0.0,0.0,0.0,0.0,0.0,0.0,0.0,0.0,0.0,0.0,0.0,0.0,0.0,0.0,0.0,0.0,0.0,0.0,0.0,0.0,0.0,0.0,0.0,0.0,0.0,0.0,0.0,0.0,0.0,0.0,0.0,0.0,0.0,0.0,0.0,0.0,0.0,0.0,0.0,0.0,0.0,0.0,0.0,0.0,0.0,0.0,0.0,0.0,0.0,0.0,0.0,0.0,0.0,0.0,0.0,0.0,0.0,0.0,0.0,0.0,0.0,0.0,0.0,0.0,0.0,0.0,0.0,0.0,0.0,0.0,0.0,0.0,0.0,0.0,0.0,0.0,0.0,0.0,0.0,0.0,0.0,0.0,0.0,0.0,0.0,0.0,0.0,0.0,0.0,0.0,0.0,0.0,0.0,0.0,0.0,0.0,0.0,0.0,0.0,0.0,0.0,0.0,0.0,0.0,0.0,0.0,0.0,0.0,0.0,0.0,0.0,0.0,0.0,0.0,0.0,0.0,0.0,0.0,0.0,0.0,0.0,0.0,0.0,0.0,0.0,0.0,0.0,0.0,0.0,0.0,0.0,0.0,0.0,0.0,0.0,0.0,0.0,0.0,0.0,0.0,0.0,0.0,0.0,0.0,0.0,0.0,0.0,0.0,0.0,0.0,0.0,0.0,0.0,0.0,0.0,0.0,0.0,0.0,0.0,0.0,0.0,0.0,0.0,0.0,0.0,0.0,0.0,0.0,0.0,0.0,0.0,0.0,0.0,0.0,0.0,0.0,0.0,0.0,0.0,0.0,0.0,0.0,0.0,0.0,0.0,0.0,0.0,0.0,0.0,0.0,0.0,0.0,0.0,0.0,0.0,0.0,0.0,0.0,0.0,0.0,0.0,0.0,0.0,0.0,0.0,0.0,0.0,0.0,0.0,0.0,0.0,0.0,0.0,0.0,0.0,0.0,0.0,0.0,0.0,0.0,0.0,0.0,0.0,0.0,0.0,0.0,0.0,0.0,0.0,0.0,0.0,0.0,0.0,0.0,0.0,0.0,0.0,0.0,0.0,0.0,0.0,0.0,0.0,0.0,0.0,0.0,0.0,0.0,0.0,0.0,0.0,0.0,0.0,0.0,0.0,0.0,0.0,0.0,0.0,0.0,0.0,0.0,0.0,0.0,0.0,0.0,0.0,0.0,0.0,0.0,0.0,0.0,0.0,0.0,0.0,0.0,0.0,0.0,0.0,0.0,0.0,0.0,0.0,0.0,0.0,0.0,0.0,0.0,0.0,0.0,0.0,0.0,0.0,0.0,0.0,0.0,0.0,0.0,0.0,0.0,0.0,0.0,0.0,0.0,0.0,0.0,0.0,0.0,0.0,0.0,0.0,0.0,0.0,0.0,0.0,0.0,0.0,0.0,0.0,0.0,0.0,0.0,0.0,0.0,0.0,0.0,0.0,0.0,0.0,0.0,0.0,0.0,0.0,0.0,0.0,0.0,0.0,0.0,0.0,0.0,0.0,0.0,0.0,0.0,0.0,0.0,0.0,0.0,0.0,0.0,0.0,0.0,0.0,0.0,0.0,0.0,0.0,0.0,0.0,0.0,0.0,0.0,0.0,0.0,0.0,0.0,0.0,0.0,0.0,0.0,0.0,0.0,0.0,0.0,0.0,0.0,0.0,0.0,0.0,0.0,0.0,0.0,0.0,0.0,0.0,0.0,0.0,0.0,0.0,0.0,0.0,0.0,0.0,0.0,0.0,0.0,0.0,0.0,0.0,0.0,0.0,0.0,0.0,0.0,0.0,0.0,0.0,0.0,0.0,0.0,0.0,0.0,0.0,0.0,0.0,0.0,0.0,0.0,0.0,0.0,0.0,0.0,0.0,0.0,0.0,0.0,0.0,0.0,0.0,0.0,0.0,0.0,0.0,0.0,0.0,0.0,0.0,0.0,0.0,0.0,0.0,0.0,0.0,0.0,0.0,0.0,0.0,0.0,0.0,0.0,0.0,0.0,0.0,0.0,0.0,0.0,0.0,0.0,0.0,0.0,0.0,0.0,0.0,0.0,0.0,0.0,0.0,0.0,0.0,0.0,0.0,0.0,0.0,0.0,0.0,0.0,0.0,0.0,0.0,0.0,0.0,0.0,0.0,0.0,0.0,0.0,0.0,0.0,0.0,0.0,0.0,0.0,0.0,0.0,0.0,0.0,0.0,0.0,0.0,0.0,0.0,0.0,0.0,0.0,0.0,0.0,0.0,0.0,0.0,0.0,0.0,0.0,0.0,0.0,0.0,0.0,0.0,0.0,0.0,0.0,0.0,0.0,0.0,0.0,0.0,0.0,0.0,0.0,0.0,0.0,0.0,0.0,0.0,0.0,0.0,0.0,0.0,0.0,0.0,0.0,0.0,0.0,0.0,0.0,0.0,0.0,0.0,0.0,0.0,0.0,0.0,0.0,0.0,0.0,0.0,0.0,0.0,0.0,0.0,0.0,0.0,0.0,0.0,0.0,0.0,0.0,0.0,0.0,0.0,0.0,0.0,0.0,0.0,0.0,0.0,0.0,0.0,0.0,0.0,0.0,0.0,0.0,0.0,0.0,0.0,0.0,0.0,0.0,0.0,0.0,0.0,0.0,0.0,0.0,0.0,0.0,0.0,0.0,0.0,0.0,0.0,0.0,0.0,0.0,0.0,0.0,0.0,0.0,0.0,0.0,0.0,0.0,0.0,0.0,0.0,0.0,0.0,0.0,0.0,0.0,0.0,0.0,0.0,0.0,0.0,0.0,0.0,0.0,0.0,0.0,0.0,0.0,0.0,0.0,0.0,0.0,0.0,0.0,0.0,0.0,0.0,0.0,0.0,0.0,0.0,0.0,0.0,0.0,0.0,0.0,0.0,0.0,0.0,0.0,0.0,0.0,0.0,0.0,0.0,0.0,0.0,0.0,0.0,0.0,0.0,0.0,0.0,0.0,0.0,0.0,0.0,0.0,0.0,0.0,0.0,0.0,0.0,0.0,0.0,0.0,0.0,0.0,0.0,0.0,0.0,0.0,0.0,0.0,0.0,0.0,0.0,0.0,0.0,0.0,0.0,0.0,0.0,0.0,0.0,0.0,0.0,0.0,0.0,0.0,0.0,0.0,0.0,0.0,0.0,0.0,0.0,0.0,0.0,0.0,0.0,0.0,0.0,0.0,0.0,0.0,0.0,0.0,0.0,0.0,0.0,0.0,0.0,0.0,0.0,0.0,0.0,0.0,0.0,0.0,0.0,0.0,0.0,0.0,0.0,0.0,0.0,0.0,0.0,0.0,0.0,0.0,0.0,0.0,0.0,0.0,0.0,0.0,0.0,0.0,0.0,0.0,0.0,0.0,0.0,0.0,0.0,0.0,0.0,0.0,0.0,0.0,0.0,0.0,0.0,0.0,0.0,0.0,0.0,0.0,0.0,0.0,0.0,0.0,0.0,0.0,0.0,0.0,0.0,0.0,0.0,0.0,0.0,0.0,0.0,0.0,0.0,0.0,0.0,0.0,0.0,0.0,0.0,0.0,0.0,0.0,0.0,0.0,0.0,0.0,0.0,0.0,0.0,0.0,0.0,0.0,0.0,0.0,0.0,0.0,0.0,0.0,0.0,0.0,0.0,1.0102,0.0,0.0,0.0,0.0,0.0,0.0,0.0,0.0,0.0,0.0,0.0,0.0,0.0,0.0,0.0,0.0,0.0,0.0,0.0,0.0,0.0,0.0,0.0,0.0,1.2463,1.2781,1.2781,1.3056,0.0,0.0,0.0,0.0,0.0,0.0,0.0,1.3198,1.3475,1.376,1.4011,1.4582,1.4984,1.5251,1.4977,1.4291,1.332,0.0,0.0,0.0,0.0,0.0,0.0,0.0,0.0,0.0,0.0,0.0,0.0,0.0,0.0,0.0,0.0,0.0,0.0,0.0,0.0,0.0,0.0,0.0,0.0,0.0,0.0,0.0,0.0,0.0,0.0,0.0,0.0,0.0,0.0,0.0,0.0,0.0,0.0,0.0,0.0,0.0,0.0,0.0,0.0,0.0,0.0,0.0,0.0,0.0,0.0,0.0,0.0,0.0,0.0,0.0,0.0,0.0,0.0,0.0,0.0,0.0,0.0,0.0,0.0,0.0,0.0,0.0,0.0,0.0,0.0,0.0,1.076,0.0,0.0,0.0,0.0,0.0,0.0,0.0,0.0,0.0,0.0,0.0,0.0,0.0,0.0,0.0,0.0,0.0,0.0,0.0,0.0,0.0,1.2446,1.2538,1.2922,1.3257,1.3341,1.3366,1.3366,1.3366,1.3366,0.0,0.0,0.0,1.3257,1.3341,1.3862,1.44,1.5044,1.5779,1.6522,1.7239,1.7738,1.7037,1.5344,1.5542,0.0,0.0,0.0,0.0,0.0,0.0,0.0,0.0,0.0,0.0,0.0,0.0,0.0,0.0,0.0,0.0,0.0,0.0,0.0,0.0,0.0,0.0,0.0,0.0,0.0,0.0,0.0,0.0,0.0,0.0,0.0,0.0,0.0,0.0,0.0,0.0,0.0,0.0,0.0,0.0,0.0,0.0,0.0,0.0,0.0,0.0,0.0,0.0,0.0,0.0,0.0,0.0,0.0,0.0,0.0,0.0,0.0,0.0,0.0,0.0,0.0,0.0,0.0,1.2518,1.2692,1.2692,1.2746,1.2925,1.3165,1.2663,1.2328,1.2096,0.0,0.0,0.0,0.0,0.0,0.0,0.0,0.0,0.0,0.0,0.0,0.0,0.0,0.0,0.0,0.0,0.0,0.0,0.0,0.0,1.2588,1.3056,1.3148,1.3416,1.3946,1.3972,1.3972,1.3972,1.3972,1.3752,1.3223,1.3198,1.345,1.3972,1.4056,1.4601,1.5593,1.7124,1.8643,2.0138,2.0227,2.0098,1.978,1.8411,1.7656,1.7401,0.0,0.0,0.0,0.0,0.0,0.0,0.0,0.0,0.0,0.0,0.0,0.0,0.0,0.0,0.0,0.0,0.0,0.0,0.0,0.0,0.0,0.0,0.0,0.0,0.0,0.0,0.0,0.0,0.0,0.0,0.0,0.0,0.0,0.0,0.0,0.0,0.0,0.0,0.0,0.0,0.0,1.2076,1.1016,0.0,0.0,0.0,0.0,0.0,0.0,0.0,0.0,0.0,0.0,0.0,0.0,0.0,1.227,1.2575,1.2885,1.316,1.3373,1.394,1.4207,1.4221,1.4517,1.4687,1.4713,1.4633,0.0,1.2986,1.2425,0.0,0.0,0.0,0.0,0.0,0.0,0.0,0.0,0.0,0.0,0.0,0.0,0.0,0.0,0.0,0.0,0.0,0.0,0.0,0.0,0.0,1.3702,1.4045,1.4909,1.4994,1.4994,1.4994,1.4727,1.429,1.3727,1.3702,1.3837,1.4081,1.5331,1.6794,1.8504,1.9547,2.0427,2.1169,2.1457,2.1608,2.1583,2.1153,2.0065,1.8558,1.8056,0.0,0.0,0.0,0.0,0.0,0.0,0.0,0.0,0.0,0.0,0.0,0.0,0.0,0.0,0.0,0.0,0.0,0.0,0.0,0.0,0.0,0.0,0.0,0.0,0.0,0.0,0.0,0.0,0.0,0.0,0.0,0.0,0.0,0.0,0.0,0.0,0.0,0.0,0.0,1.1776,1.2222,1.1141,1.1833,1.1986,0.0,0.0,0.0,0.0,0.0,0.0,0.0,0.0,0.0,1.2852,1.3146,1.344,1.3748,1.4063,1.4277,1.4389,1.4643,1.4856,1.5017,1.5173,1.5414,1.5722,1.5722,1.5521,1.5084,1.4001,1.326,1.2839,0.0,0.0,0.0,0.0,1.2353,1.2473,0.0,0.0,0.0,0.0,0.0,0.0,0.0,0.0,0.0,0.0,0.0,0.0,1.4056,1.4349,1.4893,1.5819,1.6055,1.613,1.613,1.5613,1.5069,1.4525,1.4384,1.4425,1.4702,1.6895,1.8944,2.0893,2.1432,2.1769,2.192,2.2307,2.2493,2.2533,2.292,2.1921,1.9951,1.9683,1.8768,1.7403,0.0,0.0,0.0,0.0,0.0,0.0,0.0,0.0,0.0,0.0,0.0,0.0,0.0,0.0,0.0,0.0,0.0,0.0,0.0,0.0,0.0,0.0,0.0,0.0,0.0,0.0,0.0,0.0,0.0,0.0,0.0,0.0,0.0,0.0,0.0,0.0,0.0,1.2459,1.2865,1.2045,1.2976,1.324,0.0,0.0,0.0,0.0,0.0,0.0,1.314,1.318,1.342,1.3813,1.4229,1.4563,1.4834,1.5173,1.5383,1.5427,1.5427,1.5548,1.5725,1.5725,1.5965,1.6404,1.6404,1.6513,1.6607,1.5341,1.4581,1.4146,1.402,1.3834,1.3681,1.3794,1.3826,1.3874,0.0,0.0,0.0,0.0,0.0,0.0,0.0,0.0,0.0,0.0,0.0,1.4056,1.4116,1.5009,1.5844,1.64,1.6974,1.7311,1.7311,1.6748,1.6185,1.5643,1.5135,1.5336,1.636,1.8555,2.0263,2.1457,2.1995,2.2533,2.302,2.3045,2.307,2.307,2.3095,2.303,2.2825,2.1802,2.099,2.0259,1.8619,0.0,0.0,0.0,0.0,0.0,0.0,0.0,0.0,0.0,0.0,0.0,0.0,0.0,0.0,0.0,0.0,0.0,0.0,0.0,0.0,0.0,0.0,0.0,0.0,0.0,0.0,0.0,0.0,0.0,0.0,0.0,0.0,0.0,0.0,0.0,0.0,0.0,0.0,1.4576,1.607,0.0,0.0,0.0,0.0,1.5965,1.5608,1.5386,1.5342,1.4748,1.4421,1.4447,1.503,1.5471,1.5741,1.6059,1.6364,1.662,1.662,1.662,1.6633,1.6633,1.666,1.6687,1.6687,1.6687,1.666,1.5995,1.5728,1.5648,1.5133,1.4905,1.4865,1.4576,1.4447,1.4421,0.0,0.0,0.0,0.0,0.0,0.0,1.2051,1.2563,1.2973,1.3173,1.3727,1.4349,1.5035,1.5768,1.6737,1.8005,1.8318,1.8443,1.8443,1.7576,1.7149,1.73,1.6784,1.7524,1.966,2.0489,2.1418,2.2533,2.2719,2.292,2.3095,2.3095,2.3095,2.3095,2.3095,2.3095,2.3045,2.2332,2.1706,2.1099,2.0145,1.9088,0.0,0.0,0.0,0.0,0.0,0.0,0.0,0.0,0.0,0.0,0.0,0.0,0.0,0.0,0.0,0.0,0.0,0.0,0.0,0.0,0.0,0.0,0.0,0.0,0.0,0.0,0.0,0.0,0.0,0.0,0.0,0.0,0.0,0.0,0.0,0.0,0.0,1.5607,1.6918,0.0,1.6105,1.7104,1.7621,1.7208,1.7763,1.7681,1.666,1.6572,1.6359,1.5936,1.6126,1.6286,1.6393,1.65,1.6607,1.67,1.67,1.6807,1.702,1.702,1.7113,1.7275,1.7275,1.7275,1.7248,1.7048,1.674,1.6355,1.6166,1.6086,1.6072,1.5965,1.5925,1.5912,0.0,0.0,0.0,0.0,0.0,0.0,1.232,1.2856,1.3282,1.3475,1.4013,1.4768,1.5844,1.6636,1.7578,1.8882,1.9158,1.9271,1.9271,1.843,1.8103,1.8443,1.8304,1.9246,2.1457,2.1683,2.2322,2.3396,2.3396,2.3512,2.3672,2.3672,2.3672,2.3672,2.3672,2.3672,2.3647,2.3286,2.2723,2.1995,2.1457,2.079,1.9972,0.0,0.0,0.0,0.0,0.0,0.0,0.0,0.0,0.0,0.0,0.0,0.0,0.0,0.0,0.0,0.0,0.0,0.0,0.0,0.0,0.0,0.0,0.0,0.0,0.0,0.0,0.0,0.0,0.0,0.0,0.0,0.0,0.0,0.0,0.0,1.7461,1.7545,1.8635,1.9046,1.8227,1.9411,2.0029,1.9588,2.0216,2.0149,1.9076,1.8862,1.8527,1.8099,1.8166,1.7999,1.7538,1.7624,1.7452,1.7007,1.7007,1.7154,1.7474,1.7474,1.7635,1.7889,1.7889,1.7889,1.7889,1.7889,1.7662,1.7288,1.7088,1.7007,1.6994,1.6887,1.6886,1.6847,0.0,0.0,0.0,0.0,0.0,1.1799,1.2346,1.2864,1.3416,1.4031,1.4576,1.5326,1.641,1.754,1.8443,1.8983,1.9497,1.9811,1.9811,1.9284,1.9033,1.9058,1.9597,2.0439,2.1557,2.2096,2.2884,2.4029,2.4029,2.4305,2.4816,2.4816,2.4816,2.4816,2.4816,2.4816,2.4816,2.4816,2.4148,2.312,2.2583,2.2332,2.2132,0.0,0.0,0.0,0.0,0.0,0.0,0.0,0.0,0.0,0.0,0.0,0.0,0.0,0.0,0.0,0.0,0.0,0.0,0.0,0.0,0.0,0.0,0.0,0.0,0.0,0.0,0.0,0.0,0.0,0.0,0.0,0.0,0.0,1.7585,1.8229,1.9237,2.0489,2.1407,2.1758,2.1308,2.2441,2.3247,2.3247,2.2879,2.2628,2.2599,2.1497,2.0851,2.0843,2.1096,2.0602,1.9305,1.957,1.9049,1.7767,1.7767,1.7875,1.8077,1.8077,1.8237,1.849,1.849,1.849,1.849,1.849,1.849,1.8437,1.7862,1.7635,1.7608,1.734,1.7233,1.7192,0.0,0.0,0.0,0.0,0.0,1.2152,1.2872,1.3106,1.3416,1.4031,1.4919,1.5904,1.7035,1.8117,1.8995,1.9522,1.971,1.9811,1.9811,1.9284,1.9371,2.0201,2.1479,2.2533,2.3301,2.3452,2.3879,2.4591,2.4591,2.4666,2.4816,2.4816,2.4816,2.4816,2.4816,2.4816,2.4816,2.4816,2.46,2.429,2.3738,2.305,2.2207,0.0,0.0,0.0,0.0,0.0,0.0,0.0,0.0,0.0,0.0,0.0,0.0,0.0,0.0,0.0,0.0,0.0,0.0,0.0,0.0,0.0,0.0,0.0,0.0,0.0,0.0,0.0,0.0,0.0,0.0,0.0,0.0,1.9847,1.9274,1.9966,2.0776,2.1465,2.2285,2.2732,2.2658,2.3496,2.4082,2.4082,2.3979,2.3622,2.2925,2.2588,2.2129,2.147,2.181,2.1804,2.1444,2.1826,2.1819,2.1449,2.1449,2.091,1.9966,1.9966,1.9412,1.849,1.849,1.849,1.849,1.849,1.849,1.8477,1.8331,1.8237,1.8237,1.8184,1.7983,1.7756,0.0,0.0,0.0,0.0,0.0,1.2589,1.3107,1.3198,1.3491,1.4324,1.516,1.622,1.7588,1.8493,1.9221,1.9761,2.0037,2.0075,1.9811,1.9736,2.0213,2.1331,2.2257,2.316,2.3979,2.4004,2.4381,2.5143,2.5143,2.5259,2.5511,2.5737,2.5862,2.5862,2.5862,2.5862,2.5837,2.5611,2.536,2.5109,2.4808,2.4155,2.3261,2.2458,2.1529,2.0562,1.9805,1.9104,1.8385,1.7349,0.0,0.0,0.0,0.0,0.0,0.0,0.0,0.0,0.0,0.0,0.0,0.0,0.0,0.0,0.0,0.0,0.0,0.0,0.0,0.0,0.0,0.0,0.0,0.0,2.0527,2.1368,2.1289,2.1719,2.2207,2.2637,2.3262,2.3649,2.3714,2.4297,2.4687,2.4687,2.484,2.4703,2.4162,2.4324,2.419,2.3666,2.4077,2.3989,2.3427,2.3678,2.3491,2.2908,2.2908,2.2521,2.1845,2.1845,2.1075,0.0,1.9808,1.9457,1.8893,1.8893,1.8893,0.0,0.0,0.0,0.0,0.0,1.8384,1.8209,0.0,0.0,0.0,1.1608,1.2403,1.3035,1.3166,1.3198,1.3616,1.4733,1.5427,1.6396,1.8016,1.8805,1.9346,1.9761,2.0484,2.0702,2.0154,2.0606,2.1348,2.2387,2.2466,2.3089,2.4335,2.4333,2.4801,2.5836,2.5887,2.6156,2.66,2.7135,2.7386,2.7386,2.7386,2.7386,2.7361,2.6826,2.6281,2.5787,2.5728,2.5335,2.4691,2.3672,2.2865,2.2117,2.1163,2.0355,1.9522,1.8216,0.0,0.0,0.0,0.0,0.0,0.0,0.0,0.0,0.0,0.0,0.0,0.0,0.0,0.0,0.0,0.0,0.0,0.0,0.0,0.0,0.0,0.0,0.0,0.0,2.1857,2.2812,2.3264,2.3362,2.3518,2.3828,2.4238,2.4492,2.4492,2.4906,2.518,2.5239,2.5586,2.5815,2.5854,0.0,0.0,0.0,0.0,2.6512,2.531,2.5402,2.4791,2.3572,2.3633,2.3729,2.3831,2.3831,2.3169,2.1976,2.1805,2.0974,1.9744,1.9582,1.9495,1.9441,1.8824,1.8584,1.8584,1.8584,1.8571,1.8544,0.0,0.0,0.0,1.1835,1.2486,1.2974,1.3158,1.3198,1.3616,1.4733,1.5743,1.6812,1.8067,1.9549,2.028,1.9837,2.1335,2.2248,2.2075,2.2033,2.2356,2.3144,2.3505,2.4576,2.6538,2.641,2.6651,2.7298,2.7742,2.767,2.716,2.7695,2.7946,2.7946,2.7946,2.7946,2.7921,2.7361,2.7085,2.6934,2.6499,2.5728,2.4791,2.4566,2.411,2.3601,2.3377,2.2898,2.2116,2.0516,1.9741,1.914,1.7519,0.0,0.0,0.0,0.0,0.0,0.0,0.0,0.0,0.0,0.0,0.0,0.0,0.0,0.0,0.0,0.0,0.0,0.0,0.0,0.0,2.1992,2.293,2.3691,2.4121,2.4496,2.4613,2.4336,2.4687,2.4965,2.4965,2.5352,2.5742,2.6138,2.6211,2.6406,2.6732,2.683,2.6869,2.6869,2.733,2.7435,2.7181,2.781,2.8002,2.7731,0.0,0.0,2.6554,2.6554,2.5777,2.4333,2.3054,2.2319,2.1965,2.0593,2.0037,1.9983,1.9455,1.9227,1.9227,1.9227,1.9052,1.881,0.0,0.0,0.0,0.0,1.2932,1.3594,1.3251,1.3198,1.3616,1.4733,1.6125,1.7192,1.7736,1.9605,2.0421,1.9471,2.1117,2.2443,2.2975,2.3251,2.3709,2.4365,2.4909,2.5834,2.7165,2.7421,2.78,2.8347,2.8974,2.8774,2.7945,2.9302,2.9416,2.8524,2.9032,2.8977,2.8455,2.7645,2.7311,2.7261,2.6725,2.6172,2.5628,2.5335,2.4883,2.4365,2.4104,2.3803,2.3303,2.1761,2.1097,2.0686,1.9404,1.8531,1.7869,0.0,0.0,0.0,0.0,0.0,0.0,0.0,0.0,0.0,0.0,0.0,0.0,0.0,0.0,1.9805,2.043,0.0,2.2069,2.2734,2.3753,2.4535,2.4707,2.5117,2.5234,2.4785,2.5137,2.5488,2.5727,2.5937,2.625,2.668,2.6699,2.6797,2.6986,2.7226,2.7344,2.7344,2.7949,2.8301,2.8301,2.8926,2.9238,2.9238,2.95,2.9187,2.8465,2.8465,2.7635,2.6157,2.5348,2.4561,2.3769,2.214,2.0969,2.017,1.9907,1.98,1.98,1.98,1.9677,1.9543,0.0,0.0,0.0,0.0,0.0,1.4117,1.3327,1.3198,1.3566,1.4617,1.6151,1.722,1.7371,1.9313,2.0443,1.9949,2.1105,2.2436,2.3716,2.434,2.4954,2.5591,2.6077,2.6759,2.7663,2.8148,2.8687,2.9254,2.9899,2.9778,2.8995,3.0877,3.0993,2.9651,3.0296,3.0061,2.9112,2.7961,2.7412,2.7261,2.6725,2.6499,2.6449,2.5954,2.5435,2.4892,2.4481,2.423,2.3954,2.2645,2.2218,2.2076,2.119,2.044,1.9743,1.908,1.8623,0.0,0.0,0.0,0.0,0.0,0.0,0.0,0.0,0.0,1.9299,2.0001,2.0527,2.0996,2.1484,2.2147,2.2832,2.3482,2.4418,2.5121,2.5219,2.5508,2.5601,2.5375,2.5644,2.5971,2.6348,2.6465,2.668,2.7109,2.7148,2.7187,2.7266,2.7702,2.7936,2.7936,2.8652,2.9043,2.9043,2.9473,2.9715,2.9715,2.9813,2.9852,2.9852,2.9852,2.9183,2.7977,2.7643,2.647,2.4698,2.3395,2.1893,2.037,2.037,2.037,2.0357,2.025,2.0197,2.0197,0.0,0.0,0.0,0.0,0.0,1.3798,1.3284,1.3198,1.345,1.4107,1.5179,1.6273,1.722,1.8908,2.0831,2.2896,2.2725,2.3292,2.5149,2.5281,2.5617,2.635,2.6288,2.7202,2.9276,2.9218,2.9501,3.0163,3.0716,3.0841,3.0564,3.1275,3.1828,3.2172,3.1429,3.0787,3.0141,2.8631,2.7738,2.7261,2.6725,2.6499,2.6474,2.6424,2.603,2.5511,2.5435,2.5109,2.4562,2.365,2.3306,2.3174,2.2297,2.1958,2.163,2.03,0.0,1.904,1.7684,1.7399,0.0,1.7852,1.8516,1.918,0.0,0.0,2.0937,2.1034,2.1426,2.2013,2.2814,2.3008,2.3435,2.4691,2.5004,2.5239,2.5581,2.5679,2.5835,2.6211,2.6289,2.6328,2.6387,2.6719,2.7129,2.7585,2.7624,2.778,2.8125,2.8555,2.8769,2.8769,2.9238,2.952,2.952,2.9922,3.0137,3.0137,3.0547,3.0742,3.0742,3.0742,3.0655,3.0403,2.8939,2.6563,2.3763,2.3578,2.2522,2.1015,2.1015,2.1015,2.0917,2.0397,2.0197,2.0197,0.0,0.0,0.0,0.0,0.0,1.3749,1.3275,1.3198,1.3416,1.4031,1.5357,1.6425,1.6794,1.8321,1.9845,2.1197,2.2479,2.3537,2.4401,2.5846,2.6824,2.7139,2.7439,2.8216,2.9564,2.9857,3.0336,3.0984,3.1602,3.1597,3.0987,3.1657,3.1527,3.0734,3.0361,2.9771,2.9003,2.8026,2.7494,2.7261,2.6725,2.6499,2.6499,2.6499,2.6348,2.608,2.5728,2.5259,0.0,2.4361,2.405,2.3781,2.3732,2.2971,2.1968,2.1374,2.034,0.0,1.8952,0.0,0.0,0.0,1.9961,2.0449,2.0625,2.1152,2.1659,2.1913,2.2519,2.3127,2.3479,2.3926,2.4457,0.0,2.5317,2.5503,2.5679,2.5932,2.6191,2.6392,2.6861,2.7154,2.7154,2.7311,2.7604,2.8015,2.8262,2.8476,2.8652,2.9062,2.9297,2.9297,2.9707,2.997,2.997,3.0371,3.0605,3.0605,3.0801,3.0898,3.0898,3.0898,3.0898,3.0869,3.0157,2.8564,2.6335,2.5375,2.4023,2.2466,2.1475,2.1109,2.1082,2.0828,2.0717,2.0717,0.0,0.0,0.0,0.0,0.0,0.0,0.0,0.0,1.3496,1.3795,1.5443,1.6748,1.7132,1.8209,1.919,1.9904,2.2046,2.3525,2.3903,2.6055,2.7405,2.7585,2.8081,2.865,2.9309,2.9744,3.0388,3.1212,3.1704,3.1782,3.1483,3.2026,3.1663,3.0511,3.005,2.9407,2.8565,2.7693,2.7211,2.7052,2.665,2.6499,2.6499,2.6499,2.6399,2.6197,2.5753,2.536,2.4992,2.4867,2.454,2.4305,2.4691,2.3713,2.2355,2.2081,2.0726,1.9355,1.9668,0.0,0.0,2.0664,2.1172,2.1562,2.1562,2.2012,2.2521,2.2812,2.3457,2.4004,2.4121,2.4672,2.5141,2.5258,2.5503,2.5757,2.5874,2.6191,2.6509,2.6744,2.7311,2.7741,2.7858,2.7858,2.8034,2.8437,2.875,2.8965,2.9101,2.9512,2.9774,2.9774,3.0156,3.0391,3.0391,3.0723,3.0898,3.0898,3.0898,3.0898,3.0898,3.0898,3.0957,3.1055,3.1055,3.0189,2.8673,2.7505,2.6066,2.4454,2.2722,2.207,2.2006,2.1541,2.1243,2.1109,0.0,0.0,0.0,0.0,0.0,0.0,0.0,0.0,0.0,1.3283,1.5016,1.6948,1.8635,1.8883,1.939,2.0571,2.1934,2.3251,2.4492,2.5872,2.6914,2.7555,2.7615,2.7931,2.8607,2.8637,2.9265,3.0522,3.0552,3.1226,3.2452,3.2467,3.2811,3.33,3.1528,3.045,2.9843,2.8049,2.7002,2.6524,2.6499,2.6499,2.6499,2.6499,2.6147,2.5611,2.5611,2.5586,2.5485,2.4967,2.4791,2.4791,2.4791,2.4181,0.0,2.2287,2.0726,0.0,0.0,0.0,2.0684,2.1074,2.1835,2.2459,2.2459,2.3125,2.3753,2.375,2.4102,2.4531,2.4965,2.5082,2.5239,2.562,2.5698,2.5854,2.6309,2.6387,2.6724,2.7545,2.7682,2.7858,0.0,2.8281,2.8437,2.884,2.8879,2.9101,2.9559,2.9941,3.0176,3.0176,3.0625,3.0859,3.0859,3.0879,3.0898,3.0898,3.0898,3.0898,3.0898,3.0898,3.1113,3.1474,3.1474,3.0778,2.9656,2.9625,2.8661,2.6994,2.5209,2.4501,2.4289,2.2593,2.1603,2.1109,0.0,0.0,0.0,0.0,0.0,0.0,0.0,0.0,0.0,0.0,0.0,0.0,0.0,0.0,0.0,0.0,2.107,2.2423,2.3291,2.4956,2.6243,2.6914,2.7375,2.7914,2.8577,2.8607,2.9026,2.9907,2.9907,3.0342,3.1152,3.0027,2.9857,3.0438,2.8709,2.784,2.765,2.7027,2.6675,2.6499,2.6499,2.6499,2.6499,2.6499,2.6122,2.5511,0.0,2.4531,2.4582,2.4741,0.0,0.0,2.401,0.0,0.0,2.1064,0.0,1.9766,0.0,0.0,2.1563,2.1952,2.2479,2.2986,2.3301,2.3574,2.3867,2.4141,2.4316,2.4551,2.5004,2.5082,2.5239,2.564,2.5693,2.5874,2.6328,2.6621,2.7012,2.7624,2.7936,0.0,0.0,0.0,0.0,2.8879,2.9453,2.9824,2.998,3.041,3.0664,3.0664,3.082,3.0898,3.0898,3.0898,3.0898,3.0898,3.1172,3.1465,3.1768,3.1768,3.1846,3.1953,3.1953,3.1739,3.1256,3.0174,2.8696,2.6995,2.5272,2.3898,2.2818,2.2208,2.1857,2.1697,0.0,0.0,0.0,0.0,0.0,0.0,0.0,0.0,0.0,0.0,0.0,0.0,0.0,0.0,0.0,0.0,0.0,2.1635,2.2313,2.3939,2.5196,2.5854,2.6524,2.7093,2.753,2.753,2.7979,2.8903,2.8903,2.9188,2.9743,2.8944,2.8509,2.8339,2.7232,2.6618,2.6337,2.6013,2.6005,2.6172,2.5979,2.6005,2.6172,2.5954,2.5527,0.0,2.3988,2.3662,2.3687,2.3863,0.0,0.0,0.0,0.0,0.0,0.0,2.0127,2.0711,2.0997,2.1583,2.2207,2.2615,2.3025,2.3415,2.373,2.4046,2.4339,2.459,2.4648,2.4727,2.5043,2.4965,2.498,2.543,2.5601,2.5913,2.6523,2.6973,2.7402,2.7858,2.8262,2.8633,0.0,0.0,0.0,2.9347,2.9883,3.0273,3.043,3.0723,3.0898,3.0898,3.0898,3.0898,3.0898,3.1035,3.1191,3.1377,3.1621,3.1894,3.2198,3.2198,3.2276,3.2413,3.2413,3.2511,3.2555,3.1476,3.0346,2.9161,2.7486,2.613,2.4973,2.3719,2.3236,2.3142,0.0,0.0,0.0,0.0,0.0,0.0,0.0,0.0,0.0,0.0,0.0,0.0,0.0,0.0,0.0,0.0,0.0,0.0,2.1605,2.2802,2.3808,2.4515,2.5184,2.5573,2.5603,2.5603,2.6213,2.7495,2.7495,2.7787,2.8322,2.9046,2.8617,2.7245,2.7111,2.6634,2.5931,2.5075,2.5017,2.5435,2.4942,2.5067,2.546,2.4967,2.4465,2.3929,2.3321,2.3095,2.297,0.0,0.0,0.0,0.0,0.0,0.0,0.0,0.0,2.1985,2.1945,2.2227,2.2615,2.3003,2.3435,2.3811,2.3828,2.4496,2.5082,2.5082,2.5082,2.5043,0.0,0.0,2.4551,2.4984,2.5449,2.603,2.6869,2.7383,2.7839,0.0,0.0,0.0,0.0,0.0,0.0,3.0234,0.0,3.043,3.0859,3.0898,3.0898,3.0898,3.0898,3.0898,3.0918,3.1348,3.1777,3.2237,3.2237,3.2237,3.2257,3.2257,3.2472,3.2832,3.2832,3.3047,3.3386,3.3386,3.3355,3.3082,3.1465,3.0739,3.0254,2.689,2.5584,2.5193,0.0,0.0,0.0,0.0,0.0,0.0,0.0,0.0,0.0,0.0,0.0,0.0,0.0,0.0,0.0,0.0,0.0,0.0,2.0907,2.1724,2.2682,2.3819,2.4496,2.5083,2.5573,2.5603,2.5764,2.6123,2.6123,2.6427,2.7056,2.6604,2.6456,2.6521,2.5386,2.4804,2.4569,2.3857,2.3622,2.3747,2.4064,2.428,2.4431,2.4691,2.4465,2.3929,2.3321,2.2844,0.0,0.0,0.0,0.0,0.0,2.1985,2.1668,0.0,0.0,2.1987,2.227,2.2635,2.2986,2.3062,2.3435,2.3867,2.418,2.4687,2.5082,2.5082,2.4828,2.4492,0.0,0.0,0.0,2.457,2.5508,0.0,2.6934,2.7383,0.0,0.0,0.0,2.9043,2.9403,2.9883,0.0,0.0,3.0703,3.0762,3.0879,3.0898,3.0898,3.0898,3.0898,3.1035,3.1348,3.1797,3.2207,3.2637,3.2637,3.2793,3.3105,3.3105,3.3164,3.3262,3.3262,3.332,3.3386,3.3386,3.2619,3.1433,3.0964,2.9995,2.8755,2.7834,2.6639,2.542,0.0,0.0,0.0,0.0,0.0,0.0,0.0,0.0,0.0,0.0,0.0,0.0,0.0,0.0,0.0,0.0,0.0,0.0,0.0,2.0685,2.1465,2.2702,2.34,2.4059,2.4717,2.4717,2.4855,2.5143,2.5143,2.5201,2.5292,2.5404,2.4994,2.4177,2.3972,2.3529,2.292,2.2557,2.2533,0.0,0.0,2.305,2.3276,2.3326,2.3326,2.3175,2.2608,2.2233,0.0,0.0,0.0,2.278,2.1665,2.1743,2.2152,2.171,0.0,2.2812,2.2783,2.2927,2.314,2.3357,2.375,2.4082,2.4141,2.4652,2.4926,2.4378,2.4023,0.0,0.0,0.0,0.0,0.0,0.0,0.0,2.6928,2.7559,2.8054,0.0,2.8828,0.0,2.9579,3.0137,3.0605,0.0,3.0898,3.0898,3.0898,3.0898,3.0976,3.1152,3.1172,3.1465,3.207,3.2324,3.2687,3.3066,3.3066,3.3184,3.3386,3.3386,3.3386,3.3386,0.0,3.3386,3.3406,3.3633,3.313,3.2263,3.2431,3.1901,3.0966,3.0192,2.8743,2.7009,0.0,0.0,0.0,0.0,0.0,0.0,0.0,0.0,0.0,0.0,1.4416,1.5284,0.0,0.0,0.0,0.0,0.0,0.0,0.0,0.0,2.0174,2.1317,2.199,2.2644,2.3363,2.3366,2.3681,2.4343,2.4263,2.3924,2.3365,2.453,2.3815,2.1572,2.2708,2.2538,2.1405,2.1309,2.1543,2.1931,2.1543,2.1669,2.2046,0.0,2.182,2.2217,2.1731,0.0,0.0,0.0,2.2383,2.2912,2.114,2.1837,2.3047,2.169,2.2532,2.376,2.3244,2.3101,2.3198,2.3691,2.4102,2.4316,2.3965,2.4453,2.4652,2.344,0.0,2.2908,2.2479,2.2854,2.3323,2.3711,0.0,2.6543,2.6928,2.7754,2.832,2.8359,2.9109,2.9618,2.9676,3.0439,3.0898,3.0898,3.0898,3.0898,3.0898,3.0937,3.1172,3.1582,3.163,3.2051,3.2793,3.2851,3.3066,3.3386,3.3386,3.3386,3.3386,3.3386,3.3425,3.3484,0.0,0.0,3.3581,3.4004,3.4192,3.4231,3.4551,3.4707,3.4523,3.2999,3.1223,2.9373,0.0,0.0,0.0,0.0,0.0,0.0,0.0,0.0,0.0,0.0,1.3742,1.3795,0.0,0.0,0.0,0.0,0.0,0.0,0.0,0.0,0.0,1.9514,2.0091,2.0948,2.2167,2.2084,2.2351,2.3026,2.2464,2.2146,2.2014,2.2253,2.211,2.1639,2.141,2.1162,2.0885,2.0321,2.0137,2.0263,2.0691,2.0893,2.1018,2.1356,0.0,0.0,0.0,0.0,0.0,2.1457,2.1703,2.2542,2.1066,2.1838,2.3113,2.2067,2.2469,2.3242,2.3147,2.3101,2.3198,2.3691,2.4102,2.4371,2.4293,2.4391,0.0,0.0,0.0,2.2479,2.207,2.2658,0.0,2.3711,0.0,0.0,0.0,0.0,2.8418,0.0,0.0,0.0,0.0,0.0,0.0,0.0,0.0,3.0898,3.0898,3.123,3.1601,3.2081,3.2383,3.2637,3.2793,3.3144,3.3308,3.3386,3.3386,3.3386,3.3386,3.3386,3.3613,3.3997,3.3997,0.0,3.4492,3.4551,3.459,3.459,3.4668,3.4707,3.4674,3.4359,3.3132,3.1543,0.0,0.0,0.0,0.0,0.0,0.0,0.0,1.3921,1.4207,1.4484,1.4246,1.4196,1.4466,1.4973,1.5616,0.0,0.0,0.0,0.0,0.0,0.0,0.0,1.9616,2.0356,2.1371,2.1581,0.0,0.0,0.0,2.1544,2.1246,0.0,0.0,0.0,2.0783,2.0609,2.0258,1.9952,1.9811,1.9836,2.0125,2.0226,0.0,0.0,0.0,0.0,0.0,0.0,0.0,2.0767,2.0991,2.1801,2.1131,2.167,2.2512,2.2275,2.2635,2.3101,2.3101,2.3101,2.3257,2.3945,2.4277,2.4274,2.3825,0.0,0.0,0.0,2.1796,2.1698,2.1309,0.0,0.0,0.0,0.0,0.0,0.0,0.0,0.0,0.0,0.0,0.0,0.0,0.0,0.0,0.0,0.0,3.0996,3.1211,3.1836,3.2285,3.2511,3.291,3.3125,3.3125,3.3289,3.3386,3.3386,3.3386,3.3535,3.375,3.375,3.3984,3.4394,3.4394,0.0,3.4726,3.4961,3.5059,3.5078,3.5293,3.5391,3.5391,3.5391,3.4244,3.2679,0.0,0.0,0.0,0.0,0.0,0.0,1.4006,1.4217,1.445,1.4984,1.5069,1.5044,1.4909,1.4984,1.5362,0.0,0.0,0.0,0.0,0.0,0.0,0.0,0.0,1.9739,2.0498,0.0,0.0,0.0,0.0,0.0,0.0,0.0,0.0,0.0,0.0,0.0,0.0,1.9811,1.9811,0.0,0.0,0.0,0.0,0.0,0.0,0.0,0.0,0.0,0.0,0.0,2.02,2.0909,2.0917,2.1366,2.1974,2.2285,2.2713,2.3101,2.3101,2.3101,2.3318,2.4176,2.4391,2.4196,2.3435,2.3454,0.0,0.0,2.0918,2.0996,2.0781,0.0,0.0,0.0,0.0,0.0,0.0,0.0,0.0,0.0,0.0,0.0,0.0,0.0,0.0,0.0,0.0,0.0,3.1641,3.2383,3.2832,3.293,3.3242,3.3386,3.3386,3.3386,3.3445,3.3555,3.3555,3.3789,3.4251,3.4251,3.4453,3.4844,3.4844,0.0,0.0,3.5371,3.5527,3.5566,3.5898,3.5982,3.5982,3.5982,3.5055,3.3812,0.0,0.0,0.0,0.0,0.0,0.0,1.4006,1.45,1.5019,1.5552,1.5628,1.5452,1.4934,1.5326,1.5472,0.0,0.0,0.0,0.0,0.0,0.0,0.0,0.0,0.0,0.0,0.0,0.0,0.0,0.0,0.0,0.0,0.0,0.0,0.0,0.0,0.0,0.0,0.0,0.0,0.0,0.0,0.0,0.0,0.0,0.0,0.0,0.0,0.0,0.0,0.0,0.0,2.0031,2.0025,2.0879,2.1915,2.1934,0.0,0.0,2.3101,2.3101,2.3318,2.4176,2.4391,2.4274,2.3828,0.0,0.0,2.1405,2.0879,2.0762,2.1093,2.1229,0.0,0.0,0.0,2.5019,0.0,0.0,0.0,0.0,0.0,0.0,0.0,0.0,0.0,0.0,0.0,0.0,3.214,3.257,3.2969,3.3328,3.3367,3.3386,3.3386,3.3386,3.3613,3.4055,3.4055,3.4238,3.4648,3.4648,3.4883,3.5332,3.5332,0.0,0.0,3.5937,3.5923,3.5942,3.5996,3.5982,3.5982,3.5982,3.5879,3.5743,0.0,0.0,0.0,0.0,0.0,0.0,1.4441,1.4768,1.5211,1.607,1.6185,1.5994,1.5452,1.5578,1.5477,1.4944,0.0,0.0,0.0,0.0,0.0,0.0,0.0,0.0,0.0,0.0,0.0,0.0,0.0,0.0,0.0,0.0,0.0,0.0,0.0,0.0,0.0,0.0,0.0,0.0,0.0,0.0,0.0,0.0,0.0,0.0,0.0,0.0,0.0,0.0,0.0,0.0,1.9274,2.0039,0.0,0.0,2.2305,2.2791,2.3023,2.3101,2.3237,2.3887,2.4043,2.3867,2.3184,0.0,2.2381,2.1094,2.0703,2.0644,2.082,2.1035,2.1464,2.2266,2.332,0.0,0.0,0.0,0.0,0.0,0.0,0.0,0.0,0.0,0.0,0.0,0.0,0.0,3.257,3.2949,3.3211,3.3386,3.3386,3.3386,3.3386,3.3691,3.3938,3.4114,3.4368,3.4687,3.5117,3.5117,3.5351,3.5762,3.5762,0.0,0.0,3.5982,3.5982,3.5982,3.5982,3.5982,3.5982,3.5982,3.5982,3.5982,0.0,0.0,0.0,0.0,0.0,1.3582,1.4733,1.4893,1.5286,1.636,1.635,1.612,1.5743,1.5427,1.5211,1.5135,1.5477,0.0,0.0,0.0,0.0,0.0,0.0,0.0,0.0,0.0,1.8832,1.9008,1.9522,0.0,0.0,0.0,0.0,0.0,0.0,0.0,0.0,0.0,0.0,0.0,0.0,0.0,0.0,0.0,0.0,0.0,0.0,0.0,0.0,0.0,0.0,0.0,0.0,0.0,0.0,0.0,2.1973,2.2557,2.2849,2.3003,2.3198,2.3691,2.3789,2.3555,0.0,0.0,2.2148,2.0859,2.0605,2.0605,2.0605,2.082,2.123,2.1797,2.2734,2.3691,2.4492,0.0,0.0,0.0,0.0,0.0,0.0,0.0,0.0,0.0,0.0,0.0,3.2969,3.3262,3.3386,3.3386,3.3386,3.3476,3.3613,3.3926,3.4231,3.4505,3.4766,3.5137,3.5586,3.5586,3.5742,3.5982,0.0,0.0,0.0,3.5982,3.5982,3.5982,3.5982,3.5982,3.5982,3.5982,3.5982,3.5982,0.0,0.0,0.0,0.0,0.0,0.0,1.4733,1.4893,1.5286,1.636,1.6045,1.5703,1.5703,1.4742,1.4551,1.5603,1.5703,0.0,0.0,0.0,0.0,0.0,0.0,0.0,0.0,0.0,1.8468,1.9008,1.9522,1.9811,1.9811,0.0,0.0,0.0,0.0,0.0,0.0,0.0,0.0,0.0,0.0,0.0,0.0,0.0,0.0,0.0,0.0,0.0,0.0,0.0,0.0,0.0,0.0,1.8303,1.887,0.0,2.1524,2.2498,2.2519,2.2791,2.3198,2.3691,2.3789,2.3555,0.0,0.0,2.2148,2.0859,2.0605,2.0605,2.0605,2.0605,2.0899,2.1759,2.2246,2.3125,2.4848,0.0,0.0,0.0,0.0,0.0,0.0,0.0,0.0,0.0,0.0,0.0,3.3367,3.3386,3.3386,3.3386,3.3386,3.3633,3.4095,3.4114,3.4544,3.5391,3.5391,3.5605,3.5982,3.5982,3.6016,0.0,0.0,0.0,0.0,3.5982,3.5982,3.5982,3.5982,3.5982,3.5982,3.5982,3.5982,3.5982,0.0,0.0,0.0,0.0,0.0,0.0,1.4249,1.4349,1.4601,1.5301,1.5261,1.516,1.516,1.4525,1.4525,1.5603,1.5351,0.0,0.0,0.0,0.0,0.0,0.0,0.0,0.0,1.7715,1.8267,1.8443,1.9359,1.9811,1.9811,1.9811,1.9811,0.0,0.0,0.0,0.0,0.0,0.0,0.0,0.0,0.0,0.0,0.0,0.0,0.0,0.0,0.0,0.0,0.0,0.0,0.0,0.0,0.0,0.0,1.9103,2.0176,2.1329,2.1914,2.2187,2.2324,2.2461,2.2502,2.2344,2.1757,2.162,2.1425,2.0723,2.0605,2.0605,2.0605,2.0605,2.0977,2.2129,2.2422,2.3008,0.0,0.0,0.0,0.0,0.0,0.0,0.0,0.0,0.0,0.0,0.0,0.0,3.3367,3.3386,3.3386,3.3386,3.3386,3.3633,3.4095,3.4355,3.4805,3.5391,3.5684,3.5898,3.5982,3.5982,3.5982,0.0,0.0,0.0,0.0,3.5982,3.5982,3.5982,3.5982,3.5982,3.5982,3.5982,3.5982,3.5982,0.0,0.0,0.0,0.0,0.0,0.0,1.4006,1.4116,1.4283,1.4818,1.4717,1.4676,1.4868,1.4205,1.4271,1.5603,1.5211,0.0,0.0,0.0,0.0,0.0,0.0,0.0,1.65,1.7626,1.8304,1.8493,1.9585,2.015,2.015,2.0338,2.0213,1.9811,2.005,0.0,0.0,0.0,0.0,0.0,0.0,0.0,1.9775,0.0,0.0,0.0,0.0,0.0,0.0,0.0,0.0,0.0,0.0,0.0,0.0,0.0,1.9181,2.0059,2.1114,2.1661,2.1915,2.1915,2.1915,0.0,2.1308,2.119,2.1093,2.0684,2.0605,2.0605,2.0605,2.0605,2.0957,2.209,2.2266,2.2832,0.0,0.0,0.0,0.0,0.0,0.0,0.0,0.0,0.0,0.0,0.0,0.0,3.3386,3.3386,3.3464,3.3672,3.3672,3.3867,3.4297,3.4746,3.5176,3.5625,3.5898,3.5982,3.5982,3.5982,3.5982,0.0,0.0,0.0,0.0,3.5982,3.5982,3.5982,3.5982,3.5982,3.5982,3.5982,3.5982,3.5982,0.0,0.0,0.0,0.0,0.0,0.0,0.0,1.4031,1.4198,1.4717,1.4349,1.4233,1.4708,1.3817,1.3867,1.5502,1.5185,0.0,0.0,0.0,0.0,0.0,0.0,0.0,1.65,1.7626,1.8443,1.8933,2.0125,2.0705,2.0705,2.1256,2.0916,1.9886,2.044,2.0351,0.0,0.0,0.0,0.0,1.9734,1.9683,0.0,0.0,0.0,0.0,0.0,0.0,0.0,0.0,0.0,0.0,0.0,0.0,0.0,0.0,0.0,0.0,0.0,2.1075,2.172,2.1738,2.1759,2.1641,2.1249,2.1171,0.0,2.0683,2.0605,2.0625,2.0644,2.0625,2.0899,2.1816,2.1993,0.0,0.0,0.0,0.0,0.0,0.0,0.0,0.0,0.0,0.0,0.0,0.0,0.0,3.3386,3.3386,3.3633,3.4095,3.4134,3.4349,3.4746,3.5176,3.5605,3.5982,3.5982,3.5982,3.5982,3.5982,3.5982,0.0,0.0,0.0,0.0,3.5982,3.5982,3.5982,3.5982,3.5982,3.5982,3.5982,3.5982,3.5982,0.0,0.0,0.0,0.0,0.0,0.0,0.0,0.0,0.0,0.0,1.3491,1.3466,1.3591,1.3357,1.3717,0.0,0.0,0.0,0.0,0.0,0.0,0.0,0.0,0.0,1.65,1.7626,1.8267,1.8393,1.9937,2.0705,2.0705,2.1256,2.113,2.049,2.0641,2.0351,0.0,0.0,0.0,0.0,1.9201,1.8621,0.0,0.0,0.0,0.0,1.9163,1.9153,0.0,0.0,0.0,0.0,0.0,0.0,0.0,0.0,1.8361,1.8676,1.8986,0.0,1.998,2.0293,2.0371,2.043,0.0,2.0742,2.0703,2.0625,0.0,2.0684,2.0996,2.082,2.1094,2.2576,2.2852,0.0,0.0,0.0,0.0,0.0,0.0,0.0,0.0,0.0,0.0,0.0,0.0,3.3386,3.3386,3.3386,3.3633,3.4095,3.4394,3.4766,3.5234,3.5332,3.5605,3.5982,3.5982,3.5982,3.5982,3.5982,3.5982,0.0,0.0,0.0,3.5982,3.5982,3.5982,3.5982,3.5982,3.5982,3.5982,3.5982,3.5982,3.5982,0.0,0.0,0.0,0.0,0.0,0.0,0.0,0.0,0.0,0.0,1.3198,1.3198,1.3198,1.3198,1.3667,0.0,0.0,0.0,0.0,0.0,0.0,0.0,0.0,1.65,1.65,1.7626,1.8318,1.8568,2.0,2.0817,2.1055,2.1356,2.1206,2.0691,2.0415,2.01,0.0,0.0,0.0,0.0,1.9371,0.0,0.0,0.0,0.0,0.0,1.879,1.8907,0.0,1.8048,1.8381,1.8774,0.0,0.0,0.0,0.0,1.8147,1.8325,1.8325,1.8927,1.9668,2.0098,2.0234,2.0332,2.0781,0.0,0.0,0.0,0.0,2.1167,2.0958,2.1431,0.0,2.272,2.3359,0.0,0.0,0.0,0.0,0.0,0.0,0.0,0.0,0.0,0.0,0.0,0.0,3.3386,3.3386,3.3386,3.3711,3.4336,3.459,3.4922,3.5391,3.5586,3.5801,3.5982,3.5982,3.5982,3.5982,3.5982,3.5982,0.0,0.0,0.0,3.5982,3.5982,3.5982,3.5982,3.5982,3.5982,3.5982,3.5982,3.5982,3.5982,0.0,0.0,0.0,0.0,0.0,0.0,0.0,0.0,0.0,0.0,0.0,0.0,0.0,0.0,0.0,0.0,0.0,0.0,0.0,0.0,0.0,0.0,1.65,1.6525,1.6636,1.7665,1.8468,1.9008,2.0226,2.1043,2.1507,2.1683,2.1407,2.0792,2.0201,1.9886,0.0,0.0,0.0,0.0,1.967,0.0,0.0,0.0,0.0,0.0,0.0,0.0,0.0,1.8137,1.8805,1.9609,1.8378,0.0,0.0,0.0,0.0,0.0,1.8069,1.8966,1.998,2.0312,2.0449,2.0605,2.1015,0.0,0.0,0.0,0.0,0.0,0.0,0.0,0.0,0.0,0.0,0.0,0.0,0.0,0.0,0.0,0.0,0.0,0.0,0.0,0.0,0.0,0.0,3.3386,3.3386,3.3386,3.3809,3.4668,3.4707,3.4961,3.5488,3.584,3.5982,3.5982,3.5982,3.5982,3.5982,3.5982,3.5982,3.5982,0.0,0.0,3.5982,3.5982,3.5982,3.5982,3.5982,3.5982,3.5982,3.5982,3.5982,3.5982,0.0,0.0,0.0,0.0,0.0,0.0,0.0,0.0,0.0,0.0,0.0,0.0,0.0,0.0,0.0,0.0,0.0,0.0,0.0,0.0,0.0,1.65,1.65,1.6737,1.7236,1.7877,1.8468,1.9008,2.0589,2.1432,2.1532,2.2433,2.2332,2.1356,2.0817,2.0276,1.9811,1.9811,0.0,1.9759,1.9111,0.0,0.0,0.0,0.0,0.0,0.0,0.0,0.0,1.8137,1.862,1.9227,1.8299,0.0,0.0,0.0,0.0,0.0,1.842,1.9201,1.9844,1.9569,1.9746,2.0137,2.0586,0.0,0.0,0.0,0.0,0.0,0.0,0.0,0.0,0.0,0.0,0.0,0.0,0.0,0.0,0.0,0.0,0.0,0.0,0.0,0.0,0.0,0.0,3.3386,3.3386,3.3386,3.3809,3.4668,3.4707,3.5098,3.5884,3.5996,3.5982,3.5982,3.5982,3.5982,3.5982,3.5982,3.5982,3.5982,0.0,3.5982,3.5982,3.5982,3.5982,3.5982,3.5982,3.5982,3.5982,3.5982,3.5982,3.5982,0.0,0.0,0.0,0.0,0.0,0.0,0.0,0.0,0.0,0.0,0.0,0.0,0.0,0.0,0.0,0.0,0.0,0.0,0.0,0.0,1.6636,1.6974,1.6974,1.711,1.7398,1.8204,1.9045,1.9911,2.1267,2.2081,2.2357,2.2282,2.182,2.1043,2.0477,2.0075,1.9811,1.9811,1.9566,1.9214,0.0,0.0,0.0,0.0,0.0,0.0,0.0,0.0,0.0,0.0,1.8539,1.9422,1.8339,0.0,0.0,0.0,0.0,0.0,1.8225,1.8908,1.9648,1.9921,2.0644,2.1464,2.2169,0.0,0.0,0.0,0.0,0.0,0.0,0.0,0.0,0.0,0.0,0.0,0.0,0.0,0.0,0.0,0.0,0.0,0.0,0.0,0.0,0.0,0.0,0.0,3.3386,3.3386,3.3809,3.4668,3.4707,3.5117,3.5982,3.5982,3.5982,3.5982,3.5982,3.5982,3.5982,3.5982,3.5982,3.5982,0.0,3.5982,3.5982,3.5982,3.5982,3.5982,3.5982,3.5982,3.5982,3.5982,3.5982,3.5982,0.0,0.0,0.0,0.0,0.0,0.0,0.0,0.0,0.0,0.0,0.0,0.0,0.0,0.0,0.0,0.0,0.0,0.0,0.0,1.65,1.6762,1.7361,1.7398,1.7574,1.7939,1.8769,1.9811,2.1055,2.202,2.2784,2.3286,2.2196,2.1407,2.0867,2.0276,1.9936,1.9811,1.9811,1.9475,1.9006,0.0,0.0,0.0,0.0,0.0,0.0,0.0,0.0,0.0,0.0,0.0,0.0,0.0,0.0,0.0,1.8225,1.8147,1.8218,1.8503,1.9008,1.9704,2.0778,2.1548,2.2324,2.3398,0.0,0.0,0.0,0.0,0.0,0.0,0.0,0.0,0.0,0.0,0.0,0.0,0.0,0.0,0.0,0.0,0.0,0.0,0.0,0.0,0.0,0.0,0.0,3.3386,3.3386,3.3809,3.4668,3.4707,3.5117,3.5982,3.5982,3.5982,3.5982,3.5982,3.5982,3.5982,3.5982,3.5982,3.5982,3.5982,3.5982,3.5982,3.5982,3.5982,3.5982,3.5982,3.5982,3.5982,3.5982,3.5982,3.5982,0.0,0.0,0.0,0.0,0.0,0.0,0.0,0.0,0.0,0.0,0.0,0.0,0.0,0.0,0.0,0.0,0.0,0.0,0.0,1.65,1.6762,1.7361,1.7398,1.809,1.9585,1.971,2.0539,2.2182,2.2769,2.3361,2.3904,2.2759,2.197,2.1432,2.0893,2.0326,1.9811,1.9811,1.9785,1.9721,1.9785,0.0,0.0,0.0,0.0,0.0,0.0,0.0,0.0,0.0,0.0,0.0,0.0,0.0,1.8598,1.8559,1.8559,1.883,2.0077,2.0133,2.0267,2.1937,2.1547,0.0,2.2791,2.2559,0.0,0.0,0.0,0.0,0.0,0.0,0.0,0.0,0.0,0.0,0.0,0.0,0.0,0.0,0.0,0.0,0.0,0.0,0.0,0.0,0.0,0.0,3.3386,3.3386,3.3809,3.4668,3.4707,3.5117,3.5982,3.5982,3.5982,3.5982,3.5982,3.5982,3.5982,3.5982,3.5982,3.5982,3.5982,3.5982,3.5982,3.5982,3.5982,3.5982,3.5982,3.5982,3.5982,3.5982,3.5982,3.5982,0.0,0.0,0.0,0.0,0.0,0.0,0.0,0.0,0.0,0.0,0.0,1.4349,1.5019,0.0,0.0,0.0,0.0,0.0,0.0,1.65,1.6762,1.7361,1.7713,1.848,1.9786,2.0175,2.1331,2.3351,2.3873,2.3898,2.3436,2.2322,2.1532,2.0993,2.0402,2.0012,1.9811,1.9811,1.954,1.9175,1.9618,1.9371,0.0,0.0,0.0,0.0,0.0,0.0,0.0,0.0,1.7716,1.8105,1.8031,1.8283,1.8598,1.8598,1.8598,1.8707,1.9236,1.9829,2.0565,2.1451,2.2271,0.0,0.0,0.0,0.0,0.0,0.0,0.0,0.0,0.0,0.0,0.0,0.0,0.0,0.0,0.0,0.0,0.0,0.0,0.0,0.0,0.0,0.0,0.0,0.0,0.0,3.3386,3.3386,3.3809,3.4668,3.4707,3.5117,3.5982,3.5982,3.5982,3.5982,3.5982,3.5982,3.5982,3.5982,3.5982,3.5982,3.5982,3.5982,3.5982,3.5982,3.5982,3.5982,3.5982,3.5982,3.5982,3.5982,3.5982,3.5982,0.0,0.0,0.0,0.0,0.0,0.0,0.0,0.0,1.3643,0.0,0.0,0.0,0.0,1.5844,0.0,0.0,0.0,0.0,1.65,1.65,1.6837,1.7613,1.8003,1.8781,2.005,2.0653,2.1859,2.3728,2.4264,2.4048,2.307,2.1995,2.1306,2.0943,2.0326,2.0087,2.01,2.0263,1.9836,1.9133,1.999,1.9823,0.0,0.0,0.0,0.0,0.0,0.0,0.0,0.0,1.7492,1.7637,1.791,1.8283,1.8598,1.8598,1.8695,1.8883,1.9165,2.0031,2.097,0.0,0.0,0.0,2.4442,0.0,0.0,0.0,0.0,0.0,0.0,0.0,0.0,0.0,0.0,0.0,0.0,0.0,0.0,0.0,0.0,0.0,0.0,0.0,0.0,0.0,0.0,0.0,0.0,3.3386,3.3809,3.4668,3.4707,3.5117,3.5982,3.5982,3.5982,3.5982,3.5982,3.5982,3.5982,3.5982,3.5982,3.5982,3.5982,3.5982,3.5982,3.5982,3.5982,3.5982,3.5982,3.5982,3.5982,3.5982,3.5982,3.5982,0.0,0.0,0.0,0.0,0.0,0.0,0.0,0.0,1.4081,1.4116,1.5044,0.0,0.0,0.0,0.0,0.0,0.0,0.0,1.65,1.65,1.7013,1.8154,1.8204,1.8982,2.0641,2.1206,2.2006,2.3095,2.3703,2.3662,2.3045,2.1995,2.1482,2.1457,2.0943,2.0705,2.0717,2.1256,2.084,1.9911,2.1055,2.0815,1.9886,0.0,0.0,0.0,0.0,0.0,0.0,0.0,1.8501,1.7991,1.7991,1.8283,1.8617,1.8598,1.8945,1.9495,2.0354,2.0991,2.1597,0.0,0.0,0.0,0.0,2.4966,0.0,0.0,0.0,0.0,0.0,0.0,0.0,0.0,0.0,0.0,0.0,0.0,0.0,0.0,0.0,0.0,0.0,0.0,0.0,0.0,0.0,0.0,0.0,3.3386,3.3809,3.4668,3.4707,3.5117,3.5996,3.5982,3.5982,3.5982,3.5982,3.5982,3.5982,3.5982,3.5982,3.5982,3.5982,3.5982,3.5982,3.5982,3.5982,3.5982,3.5982,3.5982,3.5982,3.5982,3.5982,3.5982,0.0,0.0,0.0,0.0,0.0,0.0,0.0,0.0,1.3618,1.4031,1.4702,0.0,0.0,0.0,0.0,0.0,0.0,0.0,1.65,1.65,1.6837,1.7613,1.8003,1.8375,1.8731,1.9678,2.0941,2.2533,2.3095,2.2684,2.1407,2.1482,2.1066,2.0313,2.0591,2.0705,2.0705,2.0867,2.0954,2.103,2.1356,2.1306,2.0925,0.0,0.0,0.0,0.0,0.0,0.0,0.0,0.0,0.0,1.791,1.8516,1.9043,1.8713,1.9371,2.0142,1.9765,2.176,0.0,0.0,0.0,0.0,0.0,0.0,0.0,0.0,0.0,0.0,0.0,0.0,0.0,0.0,0.0,0.0,0.0,0.0,0.0,0.0,0.0,0.0,0.0,0.0,0.0,0.0,0.0,0.0,0.0,3.3386,3.3672,3.4271,3.4551,3.498,3.5566,3.5879,3.5982,3.5982,3.5982,3.5982,3.5982,3.5982,3.5982,3.5982,3.5982,3.5982,3.5982,3.5982,3.5982,3.5982,3.5982,3.5982,3.5982,3.5982,3.5982,3.5982,0.0,0.0,0.0,0.0,0.0,0.0,1.3198,1.3391,1.3693,1.4056,1.4742,1.5336,0.0,0.0,0.0,1.65,1.65,0.0,1.65,1.65,1.6862,1.7677,1.8028,1.8461,1.8993,1.9688,2.0568,2.1669,2.2207,2.187,2.0705,2.1256,2.1117,2.0514,2.1306,2.1532,2.1356,2.1823,2.1809,2.1532,2.197,2.187,2.1415,0.0,0.0,0.0,0.0,0.0,0.0,0.0,0.0,0.0,1.7913,1.8359,1.8838,1.9109,1.9897,2.0782,2.1254,2.3461,0.0,0.0,0.0,0.0,0.0,0.0,0.0,0.0,0.0,0.0,0.0,0.0,0.0,0.0,0.0,0.0,0.0,0.0,0.0,0.0,0.0,0.0,0.0,0.0,0.0,0.0,0.0,0.0,0.0,3.3386,3.3633,3.4095,3.4473,3.4922,3.5391,3.5801,3.5982,3.5982,3.5982,3.5982,3.5982,3.5982,3.5982,3.5982,3.5982,3.5982,3.5982,3.5982,3.5982,3.5982,3.5982,3.5982,3.5982,3.5982,3.5982,3.5982,0.0,0.0,1.3198,1.3198,0.0,0.0,1.3198,1.3668,1.4031,1.4031,1.4959,1.5628,0.0,0.0,0.0,1.65,1.65,1.6479,1.6436,1.6529,1.7007,1.7988,1.8088,1.8909,2.0591,2.0549,2.0549,2.0616,2.1155,2.1155,2.0616,2.1231,2.1507,2.1543,2.2583,2.2769,2.2433,2.3427,2.3,2.1719,2.2694,2.2533,2.1644,2.1583,0.0,0.0,0.0,0.0,0.0,0.0,0.0,0.0,1.7991,1.803,1.8296,1.9524,2.0463,2.1539,2.372,0.0,0.0,0.0,0.0,0.0,0.0,0.0,0.0,0.0,0.0,0.0,0.0,0.0,0.0,0.0,0.0,0.0,0.0,0.0,0.0,0.0,0.0,0.0,0.0,0.0,0.0,0.0,0.0,0.0,0.0,3.3386,3.3613,3.4036,3.4453,3.4902,3.5332,3.5781,3.5982,3.5982,3.5982,3.5982,3.5982,3.5982,3.5982,3.5982,3.5982,3.5982,3.5982,3.5982,3.5982,3.5982,3.5982,3.5982,3.5982,3.5982,3.5982,3.5982,0.0,0.0,1.3198,1.3198,0.0,0.0,1.3198,1.3307,1.3391,1.3391,1.4362,1.506,1.506,1.5919,0.0,1.65,1.65,1.6292,1.582,1.668,1.704,1.6641,1.7335,1.8443,1.9974,1.9425,1.9411,1.9987,2.0577,2.0566,2.0025,2.103,2.1507,2.1532,2.2182,2.2644,2.292,2.2734,2.2709,2.2769,2.302,2.297,2.2694,2.2282,2.2121,0.0,0.0,0.0,0.0,0.0,0.0,0.0,1.7991,1.8225,1.8474,1.846,2.0653,2.3025,2.2889,2.6213,0.0,0.0,0.0,0.0,0.0,0.0,0.0,0.0,0.0,0.0,0.0,0.0,0.0,0.0,0.0,0.0,0.0,0.0,0.0,0.0,0.0,0.0,0.0,0.0,0.0,0.0,0.0,0.0,3.3386,3.3386,3.3457,3.3555,3.4297,3.4746,3.4844,3.5591,3.5982,0.0,3.5982,3.5982,3.5982,3.5982,3.5982,3.5982,3.5982,3.5982,3.5982,3.5982,3.5982,3.5982,3.5982,3.5982,3.5982,3.5982,3.5982,3.5982,0.0,0.0,0.0,0.0,0.0,0.0,0.0,0.0,1.3643,1.3643,1.4381,1.4893,1.4893,1.5628,0.0,0.0,1.6089,1.593,1.5633,1.5917,1.6303,1.6716,1.7973,1.9006,1.9773,1.9423,1.941,1.9811,2.0125,2.01,1.9811,2.0703,2.1256,2.1532,2.2332,2.2844,2.3095,2.311,2.311,2.3095,2.3095,2.3095,2.3045,2.2493,2.2223,2.2009,2.1254,0.0,0.0,0.0,0.0,0.0,0.0,0.0,1.908,1.9795,2.1385,2.332,2.5372,0.0,0.0,0.0,0.0,0.0,0.0,0.0,0.0,0.0,0.0,0.0,0.0,0.0,0.0,0.0,0.0,0.0,0.0,0.0,0.0,0.0,0.0,0.0,0.0,0.0,0.0,0.0,0.0,3.3386,3.3386,3.3386,3.3386,3.3386,3.4062,3.4492,3.4707,3.5371,3.582,3.5982,3.5982,3.5982,3.5982,3.5982,3.5982,3.5982,3.5982,3.5982,3.5982,3.5982,3.5982,3.5982,3.5982,3.5982,3.5982,3.5982,3.5982,3.5982,0.0,0.0,0.0,0.0,0.0,0.0,0.0,0.0,0.0,1.4116,1.4651,1.5044,1.5044,1.5427,1.5687,0.0,0.0,0.0,1.5443,1.504,1.5577,1.735,1.863,1.9441,1.9773,1.967,1.967,1.9811,1.9811,1.9861,1.9962,2.0566,2.1105,2.1669,2.2659,2.3095,2.312,2.3537,2.3361,2.2819,2.292,2.297,2.292,2.2583,2.2307,2.2123,2.2199,2.1527,2.0574,2.043,0.0,0.0,0.0,0.0,1.9622,2.1344,2.2178,2.3525,2.7951,0.0,2.9521,0.0,0.0,0.0,0.0,0.0,0.0,0.0,0.0,0.0,0.0,0.0,0.0,0.0,0.0,0.0,0.0,0.0,0.0,0.0,0.0,0.0,0.0,0.0,0.0,0.0,0.0,3.3386,3.3386,3.3386,3.3386,3.3386,3.3848,3.431,3.4687,3.5156,3.5605,3.5982,3.5982,3.5982,3.5982,3.5982,3.5982,3.5982,3.5982,3.5982,3.5982,3.5982,3.5982,3.5982,3.5982,3.5982,3.5982,3.5982,3.5982,3.5982,0.0,0.0,0.0,0.0,0.0,0.0,0.0,0.0,0.0,0.0,1.4969,1.5593,1.5593,1.5653,1.5682,1.5621,1.5673,1.5434,1.4869,0.0,0.0,1.7912,1.7488,1.8005,1.976,1.9175,1.9175,1.9811,1.9811,2.0075,2.0591,2.1144,2.1683,2.2207,2.2819,2.3095,2.307,2.2684,2.2221,2.1744,2.2207,2.2408,2.2458,2.2844,2.2985,2.2854,2.2191,2.1369,2.0478,1.9732,1.8894,0.0,0.0,0.0,1.9426,2.0173,2.2472,2.504,0.0,0.0,3.1318,0.0,0.0,0.0,0.0,0.0,0.0,0.0,0.0,0.0,0.0,0.0,0.0,0.0,0.0,0.0,0.0,0.0,0.0,0.0,0.0,0.0,0.0,0.0,0.0,0.0,3.3386,3.3386,3.3386,3.3386,3.3386,3.3386,3.3848,3.431,3.4687,3.5156,3.5605,3.5982,3.5982,3.5982,3.5982,3.5982,3.5982,3.5982,3.5982,3.5982,3.5982,3.5982,3.5982,3.5982,3.5982,3.5982,3.5982,3.5982,3.5982,3.5982,0.0,0.0,0.0,0.0,0.0,0.0,0.0,0.0,0.0,0.0,0.0,1.5703,1.5703,1.5703,1.5566,1.5169,1.5445,1.5384,1.4755,1.5157,1.5931,1.7098,1.772,1.8321,1.8882,1.887,1.9043,1.9334,1.9334,1.9811,0.0,2.1256,2.1794,2.2307,2.2558,2.2819,2.3055,2.2533,2.2332,2.2383,2.2332,2.2859,2.3662,0.0,0.0,0.0,0.0,0.0,0.0,2.0317,1.9765,1.9375,1.8877,0.0,0.0,0.0,2.2851,0.0,2.5147,2.8342,3.1493,0.0,0.0,0.0,0.0,0.0,0.0,0.0,0.0,0.0,0.0,0.0,0.0,0.0,0.0,0.0,0.0,0.0,0.0,0.0,0.0,0.0,0.0,0.0,0.0,0.0,3.3386,3.3386,3.3386,3.3386,3.3386,3.3386,3.3613,3.4023,3.4687,3.4902,3.5351,3.5982,3.5982,3.5982,3.5982,3.5982,3.5982,3.5982,3.5982,3.5982,3.5982,3.5982,3.5982,3.5982,3.5982,3.5982,3.5982,3.5982,3.5982,3.5982,0.0,0.0,0.0,0.0,0.0,0.0,0.0,0.0,0.0,0.0,0.0,1.5894,1.5894,0.0,0.0,0.0,1.5169,1.5203,1.4732,1.5209,1.5799,1.6372,1.746,1.8105,1.8192,1.8252,1.8511,1.9008,1.9133,1.9786,2.0918,2.1457,2.1995,0.0,2.2508,2.2644,2.2869,2.2483,2.2458,2.2709,2.2709,2.3487,2.454,0.0,0.0,0.0,0.0,0.0,0.0,0.0,0.0,0.0,0.0,0.0,0.0,0.0,0.0,0.0,0.0,0.0,3.0857,3.1183,0.0,0.0,0.0,0.0,0.0,0.0,0.0,0.0,0.0,0.0,0.0,0.0,0.0,0.0,0.0,0.0,0.0,0.0,0.0,0.0,0.0,0.0,0.0,0.0,3.3328,3.3386,3.3386,3.3386,3.3386,3.3386,3.3386,3.3789,3.4531,3.4766,3.5254,3.5982,3.5982,3.5982,3.5982,3.5982,3.5982,3.5982,3.5982,3.5982,3.5982,3.5982,3.5982,3.5982,3.5982,3.5982,3.5982,3.5982,3.5982,3.5982,0.0,0.0,0.0,0.0,0.0,0.0,0.0,0.0,0.0,0.0,0.0,1.645,1.645,1.5984,1.5445,1.4767,1.479,1.4809,1.471,1.5266,1.5826,1.6371,1.5819,0.0,1.8168,1.6983,1.7229,1.9008,1.9497,2.0338,2.1482,2.202,2.2543,2.307,2.307,2.2794,2.2332,0.0,0.0,2.1733,2.3276,2.3954,2.4155,0.0,0.0,0.0,0.0,0.0,0.0,0.0,0.0,0.0,0.0,0.0,0.0,0.0,0.0,0.0,0.0,2.7743,0.0,3.0979,0.0,0.0,0.0,0.0,0.0,0.0,0.0,0.0,0.0,0.0,0.0,0.0,0.0,0.0,0.0,0.0,0.0,0.0,0.0,0.0,0.0,0.0,0.0,0.0,3.3184,3.3386,3.3386,3.3386,3.3386,3.3386,3.3386,3.3633,3.4134,3.4941,3.5586,3.5982,3.5982,3.5982,3.5982,3.5982,3.5982,3.5982,3.5982,3.5982,3.5982,3.5982,3.5982,3.5982,3.5982,3.5982,3.5982,3.5982,3.5982,3.5982,0.0,0.0,0.0,0.0,0.0,0.0,0.0,0.0,0.0,0.0,0.0,0.0,0.0,1.6335,1.5951,1.5331,1.4957,1.5056,1.5798,1.5699,1.5693,1.5884,1.6379,1.6614,1.6524,1.6831,1.7481,1.8493,0.0,1.971,2.1493,2.1694,2.2257,2.3095,2.3095,2.2995,2.2794,2.2458,0.0,2.2608,2.3602,2.4632,0.0,0.0,0.0,0.0,0.0,0.0,0.0,0.0,0.0,0.0,0.0,0.0,0.0,0.0,0.0,0.0,0.0,0.0,0.0,2.9034,3.0417,3.2039,0.0,0.0,0.0,0.0,0.0,0.0,0.0,0.0,0.0,0.0,0.0,0.0,0.0,0.0,0.0,0.0,0.0,0.0,0.0,0.0,0.0,0.0,0.0,3.3386,3.3386,3.3386,3.3386,3.3386,3.3386,3.3633,3.4095,3.4941,3.5469,3.5625,3.5898,3.5982,3.5982,3.5982,3.5982,3.5982,3.5982,3.5982,3.5982,3.5982,3.5982,3.5982,3.5982,3.5982,3.5982,3.5982,3.5982,3.5982,0.0,0.0,0.0,1.4893,0.0,1.4384,1.4384,1.4818,1.516,1.516,0.0,0.0,0.0,0.0,1.6766,1.594,1.5154,1.513,1.614,1.582,1.5699,1.5886,1.6473,1.6618,1.621,1.6779,1.7542,1.8468,1.8644,1.9585,2.1245,2.1608,2.2146,2.2844,2.302,2.3095,0.0,0.0,0.0,2.3195,0.0,0.0,2.6499,0.0,0.0,0.0,0.0,0.0,0.0,0.0,0.0,0.0,0.0,0.0,0.0,0.0,0.0,0.0,0.0,0.0,0.0,0.0,0.0,3.1009,3.2713,0.0,0.0,0.0,0.0,0.0,0.0,0.0,0.0,0.0,0.0,0.0,0.0,0.0,0.0,0.0,0.0,0.0,0.0,0.0,0.0,0.0,0.0,0.0,3.3386,3.3386,3.3386,3.3386,3.3386,3.3633,3.4095,3.4805,3.5234,3.5391,3.582,3.5982,3.5982,3.5982,3.5982,3.5982,3.5982,3.5982,3.5982,3.5982,3.5982,3.5982,3.5982,3.5982,3.5982,3.5982,3.5982,3.5982,1.4166,1.4576,1.4944,1.4944,1.4944,1.4944,1.4919,1.5377,1.5718,1.5718,0.0,0.0,0.0,0.0,0.0,1.6548,1.5441,1.5028,1.5599,1.5644,1.5875,1.6457,1.5954,1.6199,1.7364,1.6767,1.7302,1.9008,1.9522,2.0087,2.0717,2.1784,2.2257,2.2332,2.2844,2.3095,2.3095,0.0,2.312,2.3321,0.0,2.6499,2.665,0.0,2.8147,0.0,2.5983,2.5312,0.0,0.0,0.0,0.0,0.0,0.0,0.0,0.0,0.0,0.0,0.0,0.0,0.0,0.0,0.0,0.0,3.2361,0.0,3.347,0.0,0.0,0.0,0.0,0.0,0.0,0.0,0.0,0.0,0.0,0.0,0.0,0.0,0.0,0.0,0.0,0.0,0.0,0.0,3.2559,3.2969,3.3347,3.3386,3.3386,3.3386,3.3386,3.3633,3.4075,3.4473,3.4922,3.5371,3.5801,3.5982,3.5982,3.5982,3.5982,3.5982,3.5982,3.5982,3.5982,3.5982,3.5982,3.5982,3.5982,3.5982,3.5982,3.5982,3.5982,3.5982,1.5261,1.5693,1.607,1.607,1.607,1.5919,1.5552,1.5944,1.6285,0.0,0.0,0.0,1.7928,1.8103,1.8058,1.7718,1.7074,1.672,1.6889,1.6482,1.614,1.5853,1.6533,1.6826,1.6674,1.7355,1.8137,1.9008,1.9158,1.9736,2.0705,2.0993,2.1557,2.2307,2.2458,2.2744,2.3095,2.3095,0.0,0.0,2.577,2.6725,0.0,2.8254,2.895,2.9189,0.0,2.7872,0.0,0.0,2.712,2.6221,0.0,0.0,0.0,0.0,0.0,0.0,2.5997,0.0,0.0,0.0,0.0,0.0,2.9785,3.0688,3.1888,0.0,0.0,0.0,0.0,0.0,0.0,0.0,0.0,0.0,0.0,0.0,0.0,0.0,0.0,0.0,0.0,0.0,0.0,0.0,3.2383,3.2851,3.2969,3.323,3.3386,3.3386,3.3386,3.3445,3.3594,3.4023,3.4486,3.4902,3.5351,3.5723,3.5982,3.5982,3.5982,3.5982,3.5982,3.5982,3.5982,3.5982,3.5982,3.5982,3.5982,3.5982,3.5982,3.5982,3.5982,3.5982,1.5703,1.6346,1.6873,1.6873,1.7063,1.7088,1.6798,1.7024,1.7213,0.0,0.0,0.0,1.8807,1.8882,1.8781,1.8543,1.8028,1.7638,1.7412,1.7085,1.673,1.6373,1.7006,1.7527,1.78,1.8299,1.892,1.971,1.9447,1.9673,2.0326,2.0804,2.1356,2.1995,2.2433,2.2794,0.0,0.0,0.0,0.0,2.572,0.0,0.0,2.8405,2.9107,0.0,0.0,0.0,2.9383,3.0061,2.9202,0.0,2.6799,0.0,0.0,0.0,0.0,0.0,0.0,0.0,0.0,0.0,0.0,0.0,2.9283,3.0306,3.1397,0.0,3.4214,0.0,0.0,0.0,0.0,0.0,0.0,0.0,0.0,0.0,0.0,0.0,0.0,0.0,0.0,3.2481,3.1328,3.1474,3.1973,3.2422,3.2773,3.3184,3.3386,3.3386,3.3386,3.3386,3.3386,3.3848,3.431,3.4707,3.5176,3.5605,3.5982,3.5982,3.5982,3.5982,3.5982,3.5982,3.5982,3.5982,3.5982,3.5982,3.5982,3.5982,3.5982,3.5982,3.5982,3.5982,0.0,1.6784,1.7487,1.7487,1.7928,1.8292,1.8292,1.8292,1.8318,0.0,1.8933,1.9472,1.9936,1.9936,1.971,1.9233,1.8644,1.8078,1.7613,1.7512,1.7487,1.7487,1.7588,1.8316,1.9685,1.9447,1.971,2.0591,2.0125,1.9886,1.9911,2.0929,2.1482,2.1633,2.2583,2.3045,2.3095,0.0,0.0,2.3471,2.5628,2.6541,0.0,0.0,2.9057,0.0,2.9704,2.9955,3.0281,3.1662,3.116,2.9829,2.9057,2.757,0.0,0.0,2.5812,0.0,0.0,0.0,0.0,0.0,0.0,0.0,2.9628,3.0478,3.1079,3.2158,3.4055,0.0,0.0,0.0,0.0,0.0,0.0,0.0,0.0,0.0,0.0,0.0,0.0,0.0,3.3106,3.1767,3.1055,3.1426,3.1455,3.1894,3.2754,3.3144,3.3347,3.3386,3.3386,3.3386,3.3386,3.3809,3.4251,3.4629,3.5098,3.5547,3.5923,3.5962,3.5982,3.5982,3.5982,3.5982,3.5982,3.5982,3.5982,3.5982,3.5982,3.5982,3.5982,3.5982,3.5982,3.5982,1.7702,1.7903,1.8028,1.8028,1.8493,1.8832,1.8832,1.8832,1.9171,2.0088,2.0678,2.1041,2.1155,2.0778,2.049,2.039,1.9422,1.8807,1.8682,1.8267,1.8028,1.8028,1.8882,1.9284,1.9158,2.0388,2.0665,1.9987,2.0339,2.0515,2.0541,2.0742,2.1306,2.2157,2.2357,2.2709,2.3095,0.0,0.0,2.4591,2.5954,0.0,2.7311,2.8976,2.9905,3.0287,3.0387,3.1009,3.1712,0.0,3.1356,3.0758,0.0,0.0,0.0,0.0,0.0,0.0,0.0,0.0,0.0,0.0,0.0,0.0,2.7361,2.7084,2.7567,0.0,3.011,0.0,0.0,0.0,0.0,0.0,0.0,0.0,0.0,0.0,0.0,0.0,0.0,0.0,3.3106,3.1767,3.0918,3.0996,3.1328,3.1894,3.2754,3.2871,3.3066,3.3386,3.3386,3.3386,3.3386,3.3496,3.3769,3.4231,3.4629,3.5078,3.5527,3.5859,3.5982,3.5982,3.5982,3.5982,3.5982,3.5982,3.5982,3.5982,3.5982,3.5982,3.5982,3.5982,3.5982,3.5982,1.8204,1.8418,1.8594,1.8594,1.9033,1.9497,1.9811,1.9836,2.015,2.0993,2.1583,2.1794,2.1532,2.1507,2.1382,2.1105,2.0577,2.0012,1.9447,1.9158,1.8882,1.8619,1.912,1.9673,2.0225,2.0514,2.079,2.1066,2.0804,2.0842,2.1105,2.1382,2.1769,2.2307,2.2583,2.2844,0.0,0.0,2.3898,2.5285,2.6147,0.0,2.8247,2.9679,3.0532,3.1035,3.129,3.1938,3.2591,3.2336,3.1687,0.0,0.0,2.9578,2.9076,0.0,2.7871,2.8348,0.0,0.0,0.0,2.7695,0.0,0.0,0.0,2.7507,2.76,2.8559,2.9342,0.0,0.0,0.0,0.0,0.0,0.0,0.0,0.0,0.0,0.0,0.0,0.0,0.0,3.2006,3.1325,3.0898,3.0898,3.1269,3.1797,3.2441,3.2676,3.2988,3.3386,3.3386,3.3386,3.3386,3.3386,3.3633,3.4114,3.4492,3.4941,3.541,3.582,3.5982,3.5982,3.5982,3.5982,3.5982,3.5982,3.5982,3.5982,3.5982,3.5982,3.5982,3.5982,3.5982,3.5982,1.848,1.887,1.9158,1.9158,1.9522,1.9987,2.0616,2.0591,2.0767,2.1407,2.197,2.2157,2.1845,0.0,0.0,0.0,2.182,2.1368,2.0363,2.0188,1.9923,1.9484,1.9397,2.0012,2.1482,2.069,2.0877,2.2146,2.1382,2.1231,2.1644,2.2096,2.2357,2.2483,2.3145,0.0,0.0,0.0,0.0,2.6113,0.0,2.7713,2.9208,3.0312,3.1085,3.1612,3.219,3.2692,3.309,3.2964,0.0,3.0914,3.106,3.0382,0.0,0.0,0.0,0.0,0.0,0.0,0.0,0.0,0.0,2.7914,0.0,0.0,0.0,2.7615,0.0,0.0,0.0,0.0,0.0,0.0,0.0,0.0,0.0,0.0,0.0,0.0,0.0,0.0,0.0,3.0566,3.0625,3.0879,3.0976,3.1328,3.2042,3.2441,3.2871,3.3281,3.3347,3.3386,3.3386,3.3386,3.3594,3.3977,3.4453,3.4902,3.5273,3.5781,3.5982,3.5982,3.5982,3.5982,3.5982,3.5982,3.5982,3.5982,3.5982,3.5982,3.5982,3.5982,3.5982,3.5982,1.9434,1.9685,1.971,1.971,1.9761,1.9987,2.0616,2.0251,2.0288,2.1356,2.197,0.0,0.0,0.0,0.0,0.0,0.0,0.0,2.2056,0.0,2.1281,2.1231,2.0753,2.0817,2.1482,2.1845,2.187,2.1583,2.1945,2.2146,2.2207,2.2257,2.2543,2.307,2.4123,0.0,0.0,0.0,2.6289,0.0,2.7896,2.8624,0.0,3.0884,3.1637,3.219,3.2767,3.304,3.3014,0.0,3.219,3.1767,0.0,3.0834,0.0,0.0,0.0,0.0,0.0,0.0,0.0,0.0,2.8825,0.0,0.0,0.0,2.6832,2.666,0.0,0.0,0.0,0.0,0.0,0.0,0.0,0.0,0.0,0.0,0.0,0.0,0.0,0.0,0.0,2.9375,2.9629,3.0801,2.9844,2.9874,3.1474,3.2042,3.2452,3.2851,3.3191,3.3386,3.3386,3.3386,3.3406,3.3496,3.4316,3.4726,3.4805,3.5644,3.5982,3.5982,3.5982,3.5982,3.5982,3.5982,3.5982,3.5982,3.5982,3.5982,3.5982,3.5982,3.5982,3.5982,1.9246,1.9346,1.9447,1.9761,1.9811,1.9987,2.0616,2.1267,2.1881,2.2383,2.2924,0.0,0.0,0.0,0.0,0.0,0.0,2.3697,0.0,0.0,2.2146,2.1532,2.1281,2.1407,2.1945,2.187,2.202,2.2433,2.2332,2.2458,2.2769,2.2769,2.2869,2.3145,2.4274,0.0,2.4556,0.0,0.0,0.0,0.0,0.0,0.0,3.1562,3.2215,3.2763,3.3014,3.309,3.3065,0.0,3.2265,0.0,0.0,0.0,0.0,0.0,0.0,0.0,0.0,0.0,0.0,0.0,0.0,0.0,0.0,0.0,2.6425,0.0,0.0,0.0,0.0,0.0,0.0,0.0,2.678,0.0,0.0,0.0,0.0,0.0,0.0,0.0,0.0,0.0,0.0,0.0,2.9668,2.9659,3.1396,3.1699,3.2109,3.2773,3.2969,3.3184,3.3386,3.3386,3.3386,3.3406,3.4043,3.4473,3.4726,3.5371,3.5801,3.5982,3.5982,3.5982,3.5982,3.5982,3.5982,3.5982,3.5982,3.5982,3.5982,3.5982,3.5982,3.5982,1.8983,1.9108,1.9346,1.9736,1.9949,2.0251,2.0842,2.192,2.2719,0.0,0.0,0.0,2.418,2.423,0.0,0.0,0.0,2.5067,0.0,0.0,2.3286,0.0,0.0,0.0,2.296,2.2146,2.2157,2.3095,2.2694,2.2734,2.3095,2.3095,2.3095,2.317,0.0,2.5285,2.536,0.0,0.0,2.9076,2.9905,3.0904,3.1909,3.229,3.2717,3.309,3.309,3.309,3.3065,3.2914,3.229,0.0,3.2411,0.0,0.0,0.0,0.0,0.0,2.9785,0.0,0.0,0.0,0.0,0.0,0.0,0.0,0.0,0.0,0.0,0.0,0.0,0.0,0.0,0.0,0.0,0.0,0.0,0.0,0.0,0.0,0.0,0.0,0.0,0.0,0.0,0.0,0.0,2.923,3.125,3.1416,3.1855,3.2598,3.2734,3.2988,3.3386,3.3386,3.3386,3.3406,3.3867,3.4297,3.4726,3.5176,3.5625,3.5982,3.5982,3.5982,3.5982,3.5982,3.5982,3.5982,3.5982,3.5982,3.5982,3.5982,3.5982,3.5982,1.8907,1.9422,1.9786,1.9811,2.0276,2.0842,2.1382,2.1532,0.0,0.0,0.0,0.0,0.0,0.0,0.0,0.0,0.0,2.6984,2.6424,0.0,2.4967,0.0,0.0,2.2523,0.0,2.311,2.2558,2.3095,2.3095,2.3095,2.3095,2.3095,2.3095,2.3195,2.5452,2.6449,2.6575,2.8768,3.0306,3.1306,3.1311,3.2035,3.304,0.0,3.309,3.309,3.309,0.0,0.0,3.2441,3.2194,0.0,0.0,0.0,0.0,0.0,0.0,0.0,0.0,0.0,0.0,2.9584,0.0,0.0,0.0,0.0,2.6932,0.0,0.0,0.0,0.0,0.0,0.0,0.0,0.0,0.0,0.0,0.0,0.0,0.0,0.0,0.0,0.0,0.0,0.0,0.0,0.0,0.0,3.0781,3.1289,3.1719,3.2198,3.2578,3.2988,3.3386,3.3386,3.3386,3.3406,3.3867,3.4297,3.4726,3.5176,3.5625,3.5982,3.5982,3.5982,3.5982,3.5982,3.5982,3.5982,3.5982,3.5982,3.5982,3.5982,3.5982,3.5982,1.9497,2.0288,2.0703,1.9936,0.0,0.0,2.1895,2.2332,0.0,0.0,0.0,0.0,0.0,0.0,2.6816,0.0,0.0,2.7595,2.706,2.6331,0.0,0.0,0.0,2.4039,0.0,0.0,2.3311,2.3095,2.3095,2.3095,2.312,2.3512,2.3703,2.3788,0.0,2.7236,0.0,0.0,0.0,0.0,0.0,3.2085,3.309,0.0,0.0,3.309,3.309,3.309,0.0,3.2842,3.2813,3.2839,3.2993,3.2943,3.2839,3.2993,3.309,0.0,0.0,0.0,3.3119,3.106,0.0,0.0,0.0,0.0,0.0,0.0,0.0,0.0,0.0,0.0,0.0,0.0,0.0,0.0,0.0,0.0,2.1659,0.0,0.0,0.0,0.0,0.0,0.0,0.0,0.0,0.0,0.0,3.1035,3.1426,3.2179,3.2335,3.2715,3.3386,3.3386,3.3386,3.3386,3.3574,3.4004,3.4707,3.4863,3.5332,3.5982,3.5982,3.5982,3.5982,3.5982,3.5982,3.5982,3.5982,3.5982,3.5982,3.5982,3.5982,3.5982,2.0388,2.1005,2.1281,0.0,0.0,0.0,0.0,0.0,0.0,0.0,2.5251,0.0,2.6984,0.0,2.7688,0.0,2.8524,2.8247,2.7896,2.7361,0.0,2.7361,2.6088,0.0,0.0,0.0,0.0,2.3988,2.3797,2.3697,2.3722,2.4089,2.4264,2.4365,0.0,2.7695,0.0,0.0,3.1135,0.0,0.0,3.2437,0.0,0.0,3.309,3.309,0.0,3.3215,3.337,3.337,3.3517,3.3721,3.4073,3.3947,3.3746,3.4098,3.4073,3.3897,3.3721,3.4073,0.0,3.2437,3.2265,0.0,3.0683,0.0,0.0,0.0,0.0,0.0,0.0,0.0,0.0,0.0,0.0,0.0,0.0,2.1249,0.0,0.0,0.0,0.0,0.0,0.0,0.0,0.0,0.0,0.0,0.0,0.0,3.1211,3.1914,3.212,3.2531,3.3184,3.3308,3.3386,3.3386,3.3386,3.3867,3.4707,3.4707,3.5176,3.5982,3.5982,3.5982,3.5982,3.5982,3.5982,3.5982,3.5982,3.5982,3.5982,3.5982,3.5982,3.5982,2.1588,2.1639,2.1675,0.0,2.1995,0.0,0.0,0.0,2.4816,0.0,2.5879,2.6977,2.8021,2.772,2.8097,2.9704,2.9333,0.0,2.9032,2.8505,0.0,0.0,2.7512,2.7153,2.8172,0.0,0.0,0.0,2.5093,2.48,2.4842,2.4842,2.4842,2.4917,2.659,0.0,2.9007,3.0683,3.206,3.309,3.309,3.3115,3.314,3.314,3.3165,3.3165,3.314,3.347,3.3947,3.3947,3.4299,3.4753,3.4753,3.4753,3.4778,3.4778,3.5155,3.5433,3.4929,3.5155,3.518,3.3617,0.0,0.0,0.0,0.0,3.0052,0.0,0.0,0.0,0.0,0.0,0.0,0.0,0.0,0.0,0.0,0.0,0.0,0.0,0.0,0.0,0.0,0.0,0.0,0.0,0.0,0.0,0.0,0.0,3.1016,3.1504,3.1983,3.2394,3.2793,3.3203,3.3386,3.3386,3.3386,3.3867,3.4707,3.4707,3.5176,3.5982,3.5982,3.5982,3.5982,3.5982,3.5982,3.5982,3.5982,3.5982,3.5982,3.5982,3.5982,3.5982,2.2907,2.3629,2.4053,0.0,2.2774,2.2633,0.0,0.0,0.0,0.0,2.701,2.7946,2.8631,2.9333,2.993,3.0357,3.0633,0.0,0.0,0.0,0.0,3.0733,2.9597,2.9095,2.9352,2.772,0.0,2.6859,2.5485,2.4992,2.5385,2.5385,2.5385,2.5485,0.0,0.0,2.9007,3.0683,3.206,3.309,3.309,3.3341,0.0,0.0,3.3947,3.4248,3.3847,3.4048,3.4477,3.4477,3.4853,3.5282,3.5282,3.5581,3.5954,3.5954,3.6055,3.6155,3.6004,3.6055,3.5956,3.5104,3.4577,3.4123,0.0,0.0,0.0,0.0,0.0,0.0,0.0,0.0,0.0,0.0,0.0,0.0,0.0,0.0,0.0,2.2305,0.0,0.0,0.0,0.0,0.0,0.0,0.0,0.0,0.0,0.0,0.0,3.1465,3.1983,3.2394,3.2793,3.3203,3.3386,3.3386,3.3386,3.3867,3.4707,3.4707,3.5176,3.5982,3.5982,3.5982,3.5982,3.5982,3.5982,3.5982,3.5982,3.5982,3.5982,3.5982,3.5982,3.5982,2.4662,0.0,0.0,2.5055,0.0,0.0,2.4709,0.0,0.0,2.6751,2.8015,0.0,2.9258,3.0262,3.0959,3.0959,3.121,0.0,0.0,0.0,0.0,3.1386,3.0809,3.0482,3.0482,2.9352,0.0,2.7996,0.0,0.0,2.5979,2.5979,2.5979,2.6055,0.0,2.8405,0.0,3.0959,3.2114,3.2742,3.3266,0.0,0.0,3.4173,3.4577,3.5029,3.4703,3.4803,3.5054,3.5054,3.5431,3.5906,3.5906,3.613,3.6405,3.6405,3.6405,3.6405,3.6405,3.6405,3.6306,3.5981,3.568,3.5303,3.4728,3.346,3.2183,0.0,0.0,0.0,0.0,0.0,0.0,0.0,0.0,0.0,0.0,0.0,0.0,0.0,0.0,0.0,0.0,0.0,0.0,0.0,0.0,0.0,0.0,0.0,0.0,3.0644,3.1465,3.209,3.2519,3.293,3.3242,3.3386,3.3386,3.3867,3.4707,3.4707,3.5176,3.5982,3.5982,3.5982,3.5982,3.5982,3.5982,3.5982,3.5982,3.5982,3.5982,3.5982,3.5982,3.5982,0.0,0.0,0.0,0.0,0.0,0.0,0.0,2.6816,0.0,2.8066,0.0,3.0064,3.0219,3.0984,3.1486,3.1486,0.0,3.1633,3.1633,3.1633,3.1633,3.1633,3.1633,3.1633,3.1633,3.1035,0.0,0.0,0.0,0.0,2.66,2.6524,2.6499,2.6524,0.0,0.0,0.0,3.124,3.2219,3.2516,3.3495,3.3997,3.4173,3.4628,3.5155,3.5631,3.5631,3.5631,3.5631,3.5631,3.5981,3.6405,3.6405,3.6405,3.6405,3.6405,3.6405,3.643,3.6505,3.6482,3.6531,3.6582,3.6607,3.6482,3.5958,3.5692,3.5145,3.3622,3.2199,3.0778,0.0,0.0,0.0,0.0,0.0,0.0,0.0,0.0,0.0,0.0,0.0,0.0,0.0,0.0,0.0,0.0,0.0,0.0,0.0,0.0,0.0,2.9755,3.0957,3.1758,3.2101,0.0,3.3027,3.3308,3.3367,3.3867,3.4707,3.4707,3.5176,3.5982,3.5982,3.5982,3.5982,3.5982,3.5982,3.5982,3.5982,3.5982,3.5982,3.5982,3.5982,3.5982,0.0,0.0,0.0,0.0,0.0,3.1501,3.1526,3.0512,3.0431,3.24,3.1759,3.1447,3.2333,3.2214,3.2064,3.2064,3.2491,0.0,0.0,0.0,0.0,3.2813,3.2813,3.2813,3.2813,3.1808,3.0959,0.0,0.0,0.0,2.7135,2.67,2.6499,0.0,0.0,0.0,3.0362,3.1185,0.0,3.3621,3.3822,3.4427,3.5232,3.5307,3.5732,3.623,3.623,3.623,3.623,3.623,3.6306,3.6405,3.6405,3.6405,3.6405,3.6405,3.6405,3.6505,3.6934,3.706,3.7185,3.7613,3.7713,3.7688,3.7613,3.6702,3.5831,3.5535,3.4026,3.2161,3.0133,0.0,0.0,0.0,0.0,0.0,0.0,0.0,0.0,0.0,0.0,0.0,0.0,0.0,0.0,0.0,0.0,0.0,0.0,0.0,0.0,0.0,3.1592,0.0,0.0,0.0,3.3184,3.291,3.323,3.3867,3.4707,3.4707,3.5176,3.5982,3.5982,3.5982,3.5982,3.5982,3.5982,3.5982,3.5982,3.5982,3.5982,3.5982,3.5982,3.5982,0.0,0.0,0.0,0.0,0.0,0.0,0.0,3.4078,0.0,3.3797,3.3363,3.324,3.3761,3.4093,3.4038,3.3535,3.3777,3.3704,3.3133,3.309,3.309,3.309,3.309,0.0,3.309,3.2562,3.1587,3.0181,0.0,0.0,2.6876,2.6625,0.0,2.6549,0.0,2.89,0.0,0.0,0.0,3.3567,3.4377,3.5054,3.5533,3.5832,3.6155,3.6405,3.6405,3.6581,3.6758,3.6482,3.6405,3.6455,3.6733,3.6808,3.6859,3.716,3.7235,3.7311,3.7538,3.7613,3.7688,3.7939,3.8015,3.8015,3.8015,3.7494,3.7044,3.7044,3.5158,3.2611,2.961,2.7242,0.0,0.0,0.0,0.0,0.0,0.0,0.0,0.0,0.0,0.0,0.0,0.0,0.0,0.0,0.0,0.0,0.0,0.0,0.0,0.0,0.0,0.0,0.0,0.0,0.0,3.3125,3.332,3.3867,3.4707,3.4707,3.5176,3.5982,3.5982,3.5982,3.5982,3.5982,3.5982,3.5982,3.5982,3.5982,3.5982,3.5982,3.5982,3.5982,0.0,3.2946,0.0,0.0,3.4593,0.0,3.65,3.7074,3.6793,3.519,3.4957,3.5039,3.5246,3.564,3.5581,3.4753,3.4491,3.3995,3.3154,3.309,3.309,3.309,3.309,3.309,3.309,3.309,3.2135,0.0,0.0,0.0,0.0,0.0,0.0,0.0,0.0,0.0,0.0,0.0,3.3416,3.3721,3.5004,3.5583,3.5732,3.623,3.6405,3.6406,3.6531,3.6833,3.716,3.6833,3.6733,3.6808,3.7261,3.7386,3.7437,3.7889,3.8015,3.804,3.8165,3.8191,3.8216,3.8341,3.8366,3.8366,3.8366,3.8366,3.8366,3.8366,3.6017,3.2893,2.9352,2.7747,0.0,0.0,0.0,0.0,0.0,0.0,0.0,0.0,0.0,0.0,0.0,0.0,0.0,0.0,0.0,0.0,0.0,0.0,0.0,0.0,0.0,3.1504,3.1768,0.0,3.3047,3.325,3.3347,3.3867,3.4707,3.4707,3.5176,3.5982,3.5982,3.5982,3.5982,3.5982,3.5982,3.5982,3.5982,3.5982,3.5982,3.5982,3.5982,3.5982,0.0,0.0,0.0,0.0,0.0,0.0,3.8095,3.8746,3.9079,3.8906,3.7244,3.6417,3.7396,3.5907,3.4794,3.4718,3.3805,3.3219,3.3111,3.309,3.309,3.309,3.309,3.309,3.309,3.309,3.2487,0.0,0.0,0.0,0.0,0.0,0.0,0.0,0.0,0.0,0.0,3.3294,3.4377,3.5282,3.5433,3.5832,3.6306,3.638,3.6405,3.6457,3.6959,3.716,3.7286,3.7688,3.7839,3.7864,3.7914,3.7939,3.7939,3.799,3.8015,3.8115,3.8668,3.8818,3.8944,3.9421,3.9546,3.9546,3.9546,3.9546,3.9546,3.9546,3.6875,3.3608,3.0663,2.9313,2.8301,0.0,0.0,0.0,0.0,0.0,0.0,0.0,0.0,0.0,0.0,0.0,0.0,0.0,0.0,0.0,0.0,0.0,0.0,2.9559,0.0,3.0762,3.0391,3.2363,3.3184,3.2851,3.3242,3.3867,3.4707,3.4707,3.5176,3.5982,3.5982,3.5982,3.5982,3.5982,3.5982,3.5982,3.5982,3.5982,3.5982,3.5982,3.5982,3.5982,0.0,0.0,0.0,0.0,0.0,0.0,0.0,3.9212,3.9391,3.9391,3.8657,3.8275,3.8712,3.8013,3.7423,3.7183,3.6144,3.54,3.515,3.4441,3.4073,3.4073,3.3746,3.3571,3.3571,3.3266,3.2537,0.0,0.0,0.0,0.0,0.0,0.0,0.0,0.0,3.234,3.2817,3.4251,3.513,3.5533,3.5906,3.618,3.6455,3.6758,3.6884,3.6959,3.7487,3.7889,3.824,3.8467,3.8291,3.8065,3.8441,3.8542,3.8592,3.8919,3.9019,3.9069,3.9295,3.9396,3.9446,3.9647,3.9697,3.9697,3.9697,3.9697,3.9697,3.9697,3.7204,3.4137,3.122,2.9703,2.8898,0.0,0.0,0.0,0.0,0.0,0.0,0.0,0.0,0.0,0.0,0.0,0.0,0.0,0.0,0.0,0.0,0.0,0.0,2.8425,0.0,3.1358,3.0625,3.248,3.3308,3.3164,3.3308,3.3867,3.4707,3.4707,3.5176,3.5982,3.5982,3.5982,3.5982,3.5982,3.5982,3.5982,3.5982,3.5982,3.5982,3.5982,3.5982,3.5982,3.7674,0.0,3.7404,0.0,3.8302,3.8374,3.9511,3.969,3.975,3.996,4.0008,3.99,3.972,3.9583,3.9402,3.9121,3.7772,3.6784,3.6517,3.5369,3.4703,3.4703,3.4327,0.0,3.4148,3.3746,3.319,3.2365,3.1687,0.0,0.0,0.0,0.0,0.0,3.2893,3.3646,3.3897,3.5205,3.5757,3.5782,3.623,3.6482,3.6683,3.706,3.7311,3.7487,3.8065,3.8542,3.8919,3.9095,3.8843,3.8567,3.8994,3.9145,3.922,3.9572,3.9697,3.9697,3.9697,3.9697,3.9697,3.9697,3.9697,3.9697,3.9697,3.9697,3.9439,3.8582,3.6406,3.3894,3.1354,3.0137,2.9609,2.9961,0.0,0.0,0.0,0.0,0.0,0.0,0.0,2.7506,2.8015,0.0,0.0,0.0,0.0,0.0,0.0,0.0,0.0,0.0,0.0,0.0,0.0,3.2578,3.3386,3.3386,3.3386,3.3867,3.4707,3.4961,3.543,3.5982,3.5982,3.5982,3.5982,3.5982,3.5982,3.5982,3.5982,3.5982,3.5982,3.5982,3.5982,3.5982,3.8242,3.8362,3.8571,3.9272,3.9391,3.9601,4.0277,4.0397,4.0636,4.1283,4.1373,4.1134,4.0457,4.0022,3.9785,3.9794,3.7764,3.6495,3.65,3.5369,3.4703,0.0,0.0,3.4703,3.4703,3.4678,3.4678,3.4653,0.0,0.0,3.304,0.0,3.2491,3.3115,3.4198,3.4979,3.5508,3.613,3.6405,3.6405,3.6405,3.6708,3.721,3.721,3.7513,3.8065,3.8668,3.8894,3.8969,3.9522,3.9672,3.9672,3.9697,3.9697,3.9697,3.9697,3.9697,3.9697,3.9697,3.9697,3.9697,3.9697,3.9697,3.9697,3.9697,3.9697,3.8868,3.5945,3.4153,3.2672,3.117,3.0879,3.0586,2.9755,0.0,0.0,0.0,0.0,0.0,0.0,2.7422,2.707,2.8703,0.0,0.0,0.0,0.0,0.0,0.0,0.0,0.0,2.954,3.0458,0.0,3.0898,3.2578,3.3386,3.3386,3.3386,3.3867,3.4726,3.5605,3.5982,3.5982,3.5982,3.5982,3.5982,3.5982,3.5982,3.5982,3.5982,3.5982,3.5982,3.5982,3.5982,3.5982,3.9032,3.908,3.9272,3.996,4.0079,4.0307,4.0984,4.1074,4.1164,4.1373,4.1792,4.2021,4.1792,4.1256,4.1064,0.0,3.9463,3.8666,0.0,3.74,3.6199,3.6972,3.589,3.5232,3.5232,3.4904,3.4703,3.4703,0.0,0.0,0.0,3.38,3.4201,3.4778,3.5504,3.5954,3.613,3.6306,3.6607,3.6959,3.6959,3.7286,3.7789,3.8215,3.8467,3.8693,3.9245,3.9446,3.9472,3.9647,3.9697,3.9697,3.9697,3.9697,3.9697,3.9697,3.9697,3.9697,3.9697,3.9697,3.9697,3.9697,3.9697,3.9697,3.9697,3.8921,3.7636,3.5699,3.4125,3.2644,3.117,3.0898,3.0801,3.0508,3.0703,0.0,0.0,0.0,0.0,0.0,2.7246,2.6934,0.0,2.6699,0.0,0.0,0.0,0.0,0.0,0.0,0.0,0.0,3.0713,0.0,3.1328,3.2684,3.3386,3.3386,3.3386,3.3867,3.4726,3.5591,3.5982,3.5982,3.5982,3.5982,3.5982,3.5982,3.5982,3.5982,3.5982,3.5982,3.5982,3.5982,3.5982,3.5982,4.0098,4.0157,4.0277,4.0696,4.0756,4.1014,4.1673,4.1762,4.1852,4.2073,4.2462,4.275,4.275,4.2372,0.0,4.2701,4.1011,4.0378,4.1517,3.9156,3.7815,3.8085,3.7042,3.6294,3.5855,3.5504,0.0,3.5328,3.5002,3.4849,3.4849,3.5177,3.5529,3.5832,3.623,3.6507,3.6708,3.6708,3.7009,3.7487,3.7487,3.7839,3.8366,3.8768,3.9019,3.9245,3.9572,3.9697,3.9697,3.9697,3.9697,3.9697,3.9697,3.9697,3.9697,3.9697,3.9697,3.9697,3.9697,3.9697,3.9697,3.9697,3.9697,3.9697,3.9697,3.8556,3.7079,3.559,3.4125,3.2644,3.117,3.0898,3.0898,3.0898,3.0898,3.0781,3.0478,0.0,0.0,0.0,0.0,0.0,0.0,2.7532,2.748,0.0,0.0,0.0,0.0,0.0,0.0,2.9473,3.126,0.0,3.1992,3.2949,3.3386,3.3386,3.3718,3.4277,3.498,3.5684,3.5982,3.5982,3.5982,3.5982,3.5982,3.5982,3.5982,3.5982,3.5982,3.5982,3.5982,3.5982,3.5982,3.5982,4.1283,4.1403,4.1403,0.0,4.1463,0.0,4.2381,4.247,4.2661,4.325,4.329,4.329,4.329,4.329,4.3339,4.3369,0.0,0.0,0.0,4.0511,3.9316,3.8266,3.8062,3.7494,3.6428,3.6405,3.6405,3.6405,3.6405,3.6405,3.6405,3.6405,3.643,3.6455,3.6455,3.6758,3.7261,3.7261,3.7563,3.8065,3.8065,3.8417,3.8944,3.8944,3.9271,3.9697,3.9697,3.9697,3.9697,3.9697,3.9697,3.9697,3.9697,3.9697,3.9697,3.9697,3.9697,3.9697,3.9697,3.9697,3.9697,3.9697,3.9697,3.9697,3.9697,3.8556,3.7106,3.5727,3.4292,3.2794,3.1325,3.1054,3.1025,3.0928,3.0859,3.0547,2.9715,0.0,0.0,0.0,0.0,0.0,0.0,2.8937,2.9453,0.0,0.0,0.0,0.0,0.0,2.9012,3.1484,3.2022,3.2452,3.2832,3.3191,3.3406,3.3476,3.4297,3.4941,3.541,3.582,3.5982,3.5982,3.5982,3.5982,3.5982,3.5982,3.5982,3.5982,3.5982,3.5982,3.5982,3.5982,3.5982,3.5982,0.0,0.0,4.1553,4.2081,4.2171,4.2361,4.298,4.31,4.313,4.326,4.329,4.329,4.329,4.329,4.3519,4.4027,4.2547,4.1968,4.284,4.0161,3.8805,3.9448,3.7746,3.6662,3.6405,3.6405,3.6405,3.6405,3.6405,3.6405,3.6405,3.6405,3.6607,3.7009,3.7009,3.7287,3.7814,3.7814,3.814,3.8693,3.8693,3.9019,3.9522,3.9522,3.9572,3.9697,3.9697,3.9697,3.9697,3.9697,3.9697,3.9697,3.9697,3.9697,3.9697,3.9697,3.9697,3.9697,3.9697,3.9697,3.9697,3.9697,3.9697,3.9697,3.9697,3.8556,3.74,3.7052,3.5809,3.432,3.2871,3.2587,3.2207,3.1083,3.0586,3.0176,2.9676,2.9277,0.0,0.0,2.8171,2.8476,2.9364,2.9442,2.9414,0.0,0.0,0.0,0.0,2.9735,3.0332,3.1983,3.2452,3.2851,3.323,3.3347,3.3594,3.3926,3.4453,3.4941,3.541,3.582,3.5982,3.5982,3.5982,3.5982,3.5982,3.5982,3.5982,3.5982,3.5982,3.5982,3.5982,3.5982,3.5982,3.5982,4.2222,4.2282,4.2372,4.2731,4.2791,4.291,4.325,4.329,4.3409,4.3728,4.3758,4.3878,4.4177,4.4207,4.4356,4.4736,4.3578,4.3239,4.4136,4.2451,4.1434,4.1599,4.0379,3.9153,3.8039,3.8015,3.7707,3.7135,3.7135,3.7135,3.7135,3.7135,3.7311,3.7563,3.7563,3.7864,3.8391,3.8391,3.8743,3.9271,3.9271,3.9421,3.9697,3.9697,3.9697,3.9697,3.9697,3.9697,3.9697,3.9697,3.9697,3.9697,3.9697,3.9697,3.9697,3.9697,3.9697,3.9697,3.9697,3.9697,3.9697,3.9697,3.9697,3.9697,3.9697,3.9077,3.8321,3.7636,3.6865,3.5645,3.348,3.3106,3.2615,3.1141,3.0508,3.0059,2.9657,2.9199,0.0,2.8887,2.8887,2.9246,3.0126,3.0204,3.0078,2.9844,3.0215,0.0,3.0449,3.1055,3.1719,3.2452,3.2676,3.2988,3.3386,3.3386,3.373,3.4388,3.459,3.5039,3.5684,3.5884,3.5982,3.5982,3.5982,3.5982,3.5982,3.5982,3.5982,3.5982,3.5982,3.5982,3.5982,3.5982,3.5982,3.5982,4.322,4.329,4.329,4.329,4.3379,4.3439,4.3439,4.3549,4.3818,4.4356,4.4446,4.4676,4.5244,4.5304,4.5334,4.5454,4.4945,4.4796,4.5274,4.5129,4.4596,4.3625,4.3255,4.2065,3.9941,3.973,3.9086,3.8015,3.8015,3.8015,3.8015,3.8015,3.804,3.814,3.814,3.8492,3.9019,3.9019,3.9296,3.9697,3.9697,3.9697,3.9697,3.9697,3.9697,3.9697,3.9697,3.9697,3.9697,3.9697,3.9697,3.9697,3.9697,3.9697,3.9697,3.9697,3.9697,3.9697,3.9697,3.9697,3.9697,3.9697,3.9697,3.9697,3.9697,3.9697,3.9336,3.8084,3.7663,3.6676,3.3929,3.3247,3.2595,3.1043,3.041,2.9961,2.9559,0.0,2.916,2.9559,2.9715,3.0087,3.082,3.0937,3.0996,3.0996,3.1367,3.1641,3.1669,3.2402,3.2832,3.2891,3.2891,3.3066,3.3386,3.3464,3.3926,3.4707,3.4766,3.5234,3.5982,3.5982,3.5982,3.5982,3.5982,3.5982,3.5982,3.5982,3.5982,3.5982,3.5982,3.5982,3.5982,3.5982,3.5982,3.5982,4.326,4.329,4.329,4.329,4.3758,4.4147,4.4147,4.4646,4.5035,4.5125,4.5155,4.5185,4.5274,4.5304,4.5544,4.6091,4.6061,4.5792,4.5334,4.4405,4.3777,4.3603,4.159,4.0294,3.9894,3.8844,3.8187,3.8015,3.8015,3.8015,3.8015,3.8015,3.8266,3.8768,3.8768,3.907,3.9597,3.9597,3.9622,3.9697,3.9697,3.9697,3.9697,3.9697,3.9697,3.9697,3.9697,3.9697,3.9697,3.9697,3.9697,3.9697,3.9697,3.9697,3.9697,3.9697,3.9697,3.9697,3.9697,3.9697,3.9697,3.9697,3.9697,3.9697,3.9697,3.9697,3.9645,3.9413,3.8374,3.6972,3.5261,3.3929,3.2471,3.0609,2.9941,2.954,2.9082,0.0,2.952,2.9598,3.0263,3.0742,3.0879,3.1211,3.1426,3.1426,3.1816,3.2257,3.2578,3.2734,3.2969,3.332,3.332,3.3359,3.3386,3.3789,3.4219,3.4707,3.5098,3.5547,3.5982,3.5982,3.5982,3.5982,3.5982,3.5982,3.5982,3.5982,3.5982,3.5982,3.5982,3.5982,3.5982,3.5982,3.5982,3.5982,4.329,4.3609,4.3848,4.3848,4.4386,4.4855,4.4855,4.5095,4.5424,4.5813,4.5843,4.5992,4.6352,4.6381,4.6501,4.6809,4.6839,4.6711,4.6411,4.5882,4.5571,4.5571,4.4502,4.3248,4.1873,4.0605,3.9596,3.8919,3.8919,3.8919,3.8919,3.8919,3.9044,3.9346,3.9346,3.9472,3.9697,3.9697,3.9697,3.9697,3.9697,3.9697,3.9697,3.9697,3.9697,3.9697,3.9697,3.9697,3.9697,3.9697,3.9697,3.9697,3.9697,3.9697,3.9747,4.0049,3.9923,3.9697,3.9697,3.9697,3.9697,3.9697,3.9697,3.9697,3.9697,3.9697,3.9697,3.9697,3.853,3.7052,3.5563,3.4097,3.245,3.0511,3.0039,0.0,0.0,2.9785,3.0028,3.0282,3.084,3.123,3.123,3.1621,3.1875,3.1875,3.2266,3.2598,3.2793,3.3008,3.3223,3.3386,3.3386,3.3535,3.3769,3.3997,3.4446,3.5078,3.5293,3.5605,3.5982,3.5982,3.5982,3.5982,3.5982,3.5982,3.5982,3.5982,3.5982,3.5982,3.5982,3.5982,3.5982,3.5982,3.5982,3.5982,4.3758,4.4177,4.4536,4.4536,4.5095,4.5544,4.5544,4.5663,4.5963,4.648,4.654,4.6719,4.7249,4.7309,4.7309,4.7309,4.7309,4.7309,4.7309,4.7309,4.7309,4.7309,4.7019,4.5666,4.3122,4.2108,4.0995,3.9697,3.9697,3.9697,3.9697,3.9697,3.9697,3.9697,3.9697,3.9697,3.9697,3.9697,3.9697,3.9697,3.9697,3.9697,3.9697,3.9697,3.9697,3.9697,3.9697,3.9697,3.9697,3.9697,3.9697,3.9722,3.9848,3.9898,3.9998,4.0524,4.0374,4.0074,4.0074,4.0074,4.0074,4.0074,4.0074,4.0074,4.0074,4.0074,4.0074,4.0074,3.858,3.6971,3.5818,3.4132,3.2379,3.0768,0.0,0.0,0.0,3.0508,3.0684,3.1133,3.1465,3.168,3.168,3.2051,3.2355,3.2355,3.2695,3.2949,3.2949,3.3242,3.3386,3.3386,3.3386,3.3633,3.4095,3.4192,3.4642,3.5391,3.5488,3.5703,3.5982,3.5982,3.5982,3.5982,3.5982,3.5982,3.5982,3.5982,3.5982,3.5982,3.5982,3.5982,3.5982,3.5982,3.5982,3.5982,4.5155,4.5185,4.5214,4.5214,4.5762,4.6241,4.6241,4.6749,4.7189,4.7219,4.7249,4.7249,4.7309,4.7309,4.7309,4.7309,4.7309,4.7309,4.7309,4.7309,4.7309,4.7309,4.6166,4.4349,4.1789,4.164,4.0995,3.9697,3.9697,3.9697,3.9697,3.9697,3.9697,3.9697,3.9697,3.9697,3.9697,3.9697,3.9697,3.9697,3.9697,3.9697,3.9697,3.9697,3.9697,3.9697,3.9697,3.9697,3.9697,3.9697,3.9697,3.9798,4.03,4.0424,4.0549,4.1102,4.1227,4.1202,4.1202,4.1202,4.1202,4.1202,4.1202,4.1202,4.1202,4.1202,4.1202,4.1202,3.8844,3.6718,3.6604,3.4211,3.2065,3.1484,0.0,0.0,3.1396,3.1396,3.1582,3.2061,3.214,3.2159,3.2159,3.2531,3.2754,3.2754,3.3144,3.3347,3.3347,3.3367,3.3386,3.3386,3.3386,3.3633,3.4095,3.4453,3.4902,3.5391,3.5781,3.5962,3.5982,3.5982,3.5982,3.5982,3.5982,3.5982,3.5982,3.5982,3.5982,3.5982,3.5982,3.5982,3.5982,3.5982,3.5982,3.5982,4.5304,4.5633,4.5912,4.5912,4.645,4.6899,4.6899,4.716,4.7309,4.7309,4.7309,4.7309,4.7309,4.7309,4.7309,4.7309,4.7309,4.7309,4.7309,4.7309,4.7309,4.7309,4.6866,4.5389,4.2834,4.2786,4.1764,3.9697,3.9697,3.9697,3.9697,3.9697,3.9697,3.9697,3.9697,3.9697,3.9697,3.9697,3.9697,3.9697,3.9697,3.9697,3.9697,3.9697,3.9697,3.9697,3.9697,3.9697,3.9747,4.0099,4.0199,4.03,4.0826,4.1001,4.1102,4.1681,4.2082,4.2359,4.2359,4.1829,4.1302,4.1302,4.1302,4.1302,4.1302,4.1302,4.1302,4.1302,3.9627,3.7881,3.6888,3.5029,3.3153,3.1731,0.0,3.1816,3.1562,3.1758,3.2022,3.2179,3.2433,3.2559,3.2559,3.293,3.3184,3.3184,3.3289,3.3386,3.3386,3.3386,3.3535,3.3809,3.3828,3.4023,3.4453,3.4902,3.5351,3.5781,3.5937,3.5982,3.5982,3.5982,3.5982,3.5982,3.5982,3.5982,3.5982,3.5982,3.5982,3.5982,3.5982,3.5982,3.5982,3.5982,3.5982,3.5982,4.5933,4.6322,4.66,4.66,4.6988,4.7309,4.7309,4.7309,4.7309,4.7309,4.7309,4.7309,4.7309,4.7309,4.7309,4.7309,4.7309,4.7309,4.7309,4.7309,4.7309,4.7309,4.6931,4.5711,4.3551,4.3122,4.1838,3.9697,3.9697,3.9697,3.9697,3.9697,3.9697,3.9697,3.9697,3.9697,3.9697,3.9697,3.9697,3.9697,3.9697,3.9697,3.9697,3.9697,3.9697,3.9722,3.9898,3.9948,4.0049,4.0575,4.075,4.0851,4.1403,4.1679,4.1932,4.2336,4.2713,4.3014,4.3014,4.2434,4.1829,4.1829,4.1829,4.1829,4.1829,4.1829,4.1829,4.1829,4.0217,3.848,3.7389,3.5516,3.3689,3.233,3.2363,3.2461,3.2118,3.2363,3.2589,3.2589,3.2812,3.2988,3.2988,3.3242,3.3386,3.3386,3.3386,3.3445,3.3613,3.3633,3.3828,3.429,3.4446,3.4629,3.4922,3.5234,3.5605,3.5982,3.5982,3.5982,3.5982,3.5982,3.5982,3.5982,3.5982,3.5982,3.5982,3.5982,3.5982,3.5982,3.5982,3.5982,3.5982,3.5982,3.5982,3.5982,4.7309,4.7309,4.7309,4.7309,4.7309,4.7309,4.7309,4.7309,4.7309,4.7309,4.7309,4.7309,4.7309,4.7309,4.7309,4.7309,4.7309,4.7309,4.7309,4.7309,4.7309,4.7309,4.6099,4.4817,4.3527,4.2279,4.0969,3.9697,3.9697,3.9697,3.9697,3.9697,3.9697,3.9697,3.9697,3.9697,3.9697,3.9697,3.9697,3.9697,3.9697,3.9697,3.9697,3.9697,3.9697,3.9772,4.0299,4.0499,4.0575,4.1127,4.1327,4.1403,4.2009,4.2562,4.3014,4.3014,4.3014,4.3014,4.3014,4.3014,4.3014,4.3014,4.3014,4.3014,4.3014,4.3014,4.3014,4.2986,4.0448,3.8223,3.8194,3.555,3.3418,3.3386,3.3386,3.3386,3.3386,3.3386,3.3386,3.3386,3.3386,3.3386,3.3386,3.3386,3.3386,3.3386,3.3386,3.3613,3.4075,3.4114,3.431,3.4687,3.5156,3.5391,3.5391,3.5391,3.5605,3.5982,3.5982,3.5982,3.5982,3.5982,3.5982,3.5982,3.5982,3.5982,3.5982,3.5982,3.5982,3.5982,3.5982,3.5982,3.5982,3.5982,3.5982,3.5982,4.7309,4.7309,4.7309,4.7309,4.7309,4.7309,4.7309,4.7309,4.7309,4.7309,4.7309,4.7309,4.7309,4.7309,4.7309,4.7309,4.7309,4.7309,4.7309,4.7309,4.7309,4.7309,4.6953,4.5711,4.3551,4.3122,4.1862,3.9697,3.9697,3.9697,3.9697,3.9697,3.9697,3.9697,3.9697,3.9697,3.9697,3.9697,3.9697,3.9697,3.9697,3.9697,3.9747,4.0124,4.0275,4.035,4.0876,4.1076,4.1152,4.1731,4.1934,4.2034,4.2587,4.2864,4.3014,4.3014,4.3014,4.3014,4.3014,4.3014,4.3014,4.3014,4.3014,4.3014,4.3014,4.3014,4.2681,4.1558,4.0563,3.92,3.6911,3.5714,3.4705,3.3576,3.3386,3.3386,3.3386,3.3386,3.3386,3.3386,3.3386,3.3386,3.3386,3.3386,3.3386,3.3386,3.3711,3.3945,3.4095,3.4388,3.4726,3.5176,3.5312,3.5527,3.584,3.584,3.5898,3.5982,3.5982,3.5982,3.5982,3.5982,3.5982,3.5982,3.5982,3.5982,3.5982,3.5982,3.5982,3.5982,3.5982,3.5982,3.5982,3.5982,3.5982,3.5982,4.7309,4.7309,4.7309,4.7309,4.7309,4.7309,4.7309,4.7309,4.7309,4.7309,4.7309,4.7309,4.7309,4.7309,4.7309,4.7309,4.7309,4.7309,4.7309,4.7309,4.7309,4.7309,4.7309,4.6344,4.4303,4.3266,4.2255,4.1194,4.0185,3.9955,4.044,3.9929,3.9697,3.9697,3.9697,3.9697,3.9697,3.9697,3.9697,3.9722,3.9923,4.0023,4.0074,4.06,4.0826,4.0876,4.1455,4.1656,4.1731,4.2311,4.2512,4.2562,4.2889,4.3014,4.3014,4.3014,4.3014,4.3014,4.3014,4.3014,4.3014,4.3014,4.3014,4.3014,4.3014,4.3014,4.2709,4.1757,4.0534,3.9053,3.7092,3.5714,3.4518,3.3576,3.3386,3.3386,3.3386,3.3386,3.3386,3.3386,3.3386,3.3386,3.3386,3.3386,3.3496,3.3672,3.4082,3.4427,3.4622,3.4824,3.5176,3.5625,3.5644,3.5762,3.5982,3.5982,3.5982,3.5982,3.5982,3.5982,3.5982,3.5982,3.5982,3.5982,3.5982,3.5982,3.5982,3.5982,3.5982,3.5982,3.5982,3.5982,3.5982,3.5982,3.5982,3.5982,4.7309,4.7309,4.7309,4.7309,4.7309,4.7309,4.7309,4.7309,4.7309,4.7309,4.7309,4.7309,4.7309,4.7309,4.7309,4.7309,4.7309,4.7309,4.7309,4.7309,4.7309,4.7309,4.7309,4.6748,4.5598,4.3194,4.2398,4.3337,4.0994,4.0415,4.1419,4.0236,3.9697,3.9697,3.9697,3.9697,3.9697,3.9697,3.9722,3.9798,4.03,4.0524,4.0625,4.1177,4.1378,4.1453,4.206,4.2288,4.2363,4.2838,4.3014,4.3014,4.3014,4.3014,4.3014,4.3014,4.3014,4.3014,4.3014,4.3014,4.3014,4.3014,4.3014,4.3014,4.3014,4.3014,4.293,4.2625,4.0245,3.8104,3.7835,3.5366,3.3386,3.3386,3.3386,3.3386,3.3386,3.3386,3.3437,3.3476,3.3445,3.3496,3.3503,3.3503,3.3711,3.4134,3.4531,3.4941,3.5371,3.543,3.5625,3.5982,3.5982,3.5982,3.5982,3.5982,3.5982,3.5982,3.5982,3.5982,3.5982,3.5982,3.5982,3.5982,3.5982,3.5982,3.5982,3.5982,3.5982,3.5982,3.5982,3.5982,3.5982,3.5982,3.5982,3.5982,4.7309,4.7309,4.7309,4.7309,4.7309,4.7309,4.7309,4.7309,4.7309,4.7309,4.7309,4.7309,4.7309,4.7309,4.7309,4.7309,4.7309,4.7309,4.7309,4.7309,4.7309,4.7309,4.7309,4.7149,4.6909,4.5366,4.374,4.201,4.1468,4.0819,4.0109,3.9826,3.9697,3.9697,3.9697,3.9697,3.9697,3.9697,3.9948,4.035,4.0449,4.075,4.1202,4.1781,4.2009,4.2085,4.2637,4.2838,4.2838,4.2964,4.3014,4.3014,4.3014,4.3014,4.3014,4.3014,4.3014,4.3014,4.3014,4.3014,4.3014,4.3014,4.3014,4.3014,4.3014,4.3014,4.2291,3.9756,3.8698,3.7445,3.4891,3.387,3.3386,3.3386,3.3386,3.3386,3.3386,3.3386,3.3555,3.3887,3.3958,3.4062,3.4394,3.4414,3.4453,3.4551,3.498,3.5293,3.5391,3.5703,3.5918,3.6016,3.5982,3.5982,3.5982,3.5982,3.5982,3.5982,3.5982,3.5982,3.5982,3.5982,3.5982,3.5982,3.5982,3.5982,3.5982,3.5982,3.5982,3.5982,3.5982,3.5982,3.5982,3.5982,3.5982,3.5982,4.7309,4.7309,4.7309,4.7309,4.7309,4.7309,4.7309,4.7309,4.7309,4.7309,4.7309,4.7309,4.7309,4.7309,4.7309,4.7309,4.7309,4.7309,4.7309,4.7309,4.7309,4.7309,4.7309,4.7309,4.7309,4.666,4.5343,4.3409,4.2206,4.1269,4.0592,3.9981,3.9697,3.9697,3.9697,3.9848,4.0099,4.0099,4.04,4.0901,4.1204,4.148,4.1781,4.2361,4.2587,4.2612,4.2889,4.3014,4.3014,4.3014,4.3014,4.3014,4.3014,4.3014,4.3014,4.3014,4.3014,4.3014,4.3014,4.3014,4.3014,4.3014,4.3014,4.3014,4.3014,4.3014,4.2291,3.9844,3.8728,3.7445,3.5015,3.3933,3.3464,3.3691,3.373,3.3809,3.4004,3.4023,3.4121,3.4336,3.4407,3.4453,3.4668,3.4902,3.5019,3.5019,3.5449,3.5684,3.5684,3.5898,3.5982,3.5982,3.5982,3.5982,3.5982,3.5982,3.5982,3.5982,3.5982,3.5982,3.5982,3.5982,3.5982,3.5982,3.5982,3.5982,3.5982,3.5982,3.5982,3.5982,3.5982,3.5982,3.5982,3.5982,3.5982,3.5982,4.7309,4.7309,4.7309,4.7309,4.7309,4.7309,4.7309,4.7309,4.7309,4.7309,4.7309,4.7309,4.7309,4.7309,4.7309,4.7309,4.7309,4.7309,4.7309,4.7309,4.7309,4.7309,4.7309,4.7309,4.7309,4.7309,4.6572,4.5092,4.2954,4.169,4.1244,4.0185,3.9747,3.9848,3.9848,4.0149,4.0625,4.0625,4.0951,4.1503,4.2009,4.2235,4.2414,4.2838,4.3014,4.3014,4.3014,4.3014,4.3014,4.3014,4.3014,4.3014,4.3014,4.3014,4.3014,4.3014,4.3014,4.3014,4.3014,4.3014,4.3014,4.3014,4.309,4.314,4.314,4.2868,4.2174,4.0624,3.9042,3.7448,3.5913,3.451,3.3769,3.4153,3.4212,3.4329,3.4648,3.4707,3.4726,3.4805,3.4883,3.4922,3.4922,3.5273,3.5508,3.5508,3.582,3.5982,3.5982,3.5982,3.5982,3.5982,3.5982,3.5982,3.5982,3.5982,3.5982,3.5982,3.5982,3.5982,3.5982,3.5982,3.5982,3.5982,3.5982,3.5982,3.5982,3.5982,3.5982,3.5982,3.5982,3.5982,3.5982,3.5982,3.5982,3.5982,4.7309,4.7309,4.7309,4.7309,4.7309,4.7309,4.7309,4.7309,4.7309,4.7309,4.7309,4.7309,4.7309,4.7309,4.7309,4.7309,4.7309,4.7309,4.7309,4.7309,4.7309,4.7309,4.7309,4.7309,4.7309,4.7309,4.6144,4.3764,4.3409,4.2133,3.9955,3.98,3.9948,4.04,4.04,4.0675,4.1202,4.1202,4.1555,4.2085,4.2187,4.2462,4.2889,4.2989,4.3014,4.3014,4.3014,4.3014,4.3014,4.3014,4.3014,4.3014,4.3014,4.3014,4.3014,4.3014,4.3014,4.3014,4.3014,4.3014,4.3014,4.3014,4.3338,4.3689,4.3689,4.227,4.0566,3.9385,3.7837,3.6342,3.5082,3.4675,3.4551,3.4609,3.4609,3.4629,3.4687,3.4707,3.4844,3.5254,3.5625,3.5806,3.5806,3.5864,3.5937,3.5937,3.5996,3.5982,3.5982,3.5982,3.5982,3.5982,3.5982,3.5982,3.5982,3.5982,3.5982,3.5982,3.5982,3.5982,3.5982,3.5982,3.5982,3.5982,3.5982,3.5982,3.5982,3.5982,3.5982,3.5982,3.5982,3.5982,3.5982,3.5982,3.5982,3.5982,4.7309,4.7309,4.7309,4.7309,4.7309,4.7309,4.7309,4.7309,4.7309,4.7309,4.7638,4.7848,4.7848,4.8199,4.8409,4.8409,4.8409,4.8259,4.7878,4.7848,4.7698,4.7309,4.7309,4.7489,4.7848,4.7848,4.6755,4.4498,4.3835,4.2342,4.0149,4.0149,4.0424,4.0951,4.0951,4.1279,4.1781,4.1781,4.2135,4.2637,4.2637,4.2788,4.3014,4.3014,4.3014,4.3014,4.3014,4.3014,4.3014,4.3014,4.3014,4.3014,4.3014,4.3014,4.3014,4.3014,4.3014,4.3065,4.3363,4.3438,4.3514,4.3815,4.4091,4.4267,4.4267,4.2081,3.9968,3.9444,3.7996,3.6398,3.4943,3.4707,3.4785,3.5039,3.5078,3.5176,3.541,3.543,3.5508,3.5723,3.5898,3.5982,3.5982,3.5982,3.5982,3.5982,3.5982,3.5982,3.5982,3.5982,3.5982,3.5982,3.5982,3.5982,3.5982,3.5982,3.5982,3.5982,3.5982,3.5982,3.5982,3.5982,3.5982,3.5982,3.5982,3.5982,3.5982,3.5982,3.5982,3.5982,3.5982,3.5982,3.5982,3.5982,3.5982,3.5982]}]]